GFSGL_sfc_temp_000.txt.gz
Temp
78 78 77 77 78 77 77 77 75 71 74 68 63 63 64 70 70 72 71 68 67 65 67 65 63 65 62 61 66 67 76 78 71 74 76 74 73 76 75 78 74 77 73
79 78 76 77 78 77 77 77 78 75 74 70 66 64 63 64 67 72 73 72 72 68 68 70 66 70 68 71 76 70 78 78 76 69 73 73 73 75 76 75 79 82 80
80 78 76 76 76 76 76 75 78 74 77 77 71 66 65 64 66 70 72 75 75 76 75 74 72 74 74 77 78 76 77 80 78 76 73 77 75 75 73 73 73 75 78
81 79 76 75 76 76 77 78 79 80 78 78 77 76 74 72 73 76 76 75 76 76 76 77 78 76 75 75 77 76 77 78 77 76 75 74 74 72 75 72 70 72 73
80 79 76 76 77 78 77 78 78 79 80 80 79 78 78 78 78 75 76 76 74 74 75 78 77 68 61 66 79 77 74 77 77 77 75 75 74 72 70 74 73 74 72
79 79 78 78 78 77 77 77 77 77 79 79 79 79 78 77 50 56 71 76 76 75 74 73 71 65 60 53 55 54 69 75 75 77 76 74 73 73 75 75 73 72 68
79 80 79 78 77 76 78 77 76 75 76 77 78 78 76 72 49 52 59 78 76 75 75 75 78 74 71 73 54 54 55 55 58 75 73 75 74 75 74 70 71 71 70
80 80 80 79 78 78 77 76 74 74 74 75 76 76 76 69 49 51 57 77 76 76 76 76 76 75 71 74 76 76 75 74 71 76 75 76 76 76 74 73 71 71 72
81 81 81 81 78 77 76 74 74 74 74 74 76 75 75 72 48 48 59 76 75 74 76 75 76 75 50 51 77 75 75 74 51 49 50 47 47 47 56 74 72 70 70
83 83 83 82 79 77 76 74 74 75 75 79 76 76 65 74 45 46 56 80 73 76 73 72 53 67 45 48 75 75 74 75 75 74 71 58 52 60 47 63 73 70 71
86 85 83 81 78 77 76 74 73 74 76 74 75 75 75 73 64 44 46 78 78 77 77 75 76 47 44 45 47 73 70 72 65 70 73 74 73 71 72 68 68 70 70
86 85 83 80 80 79 75 74 74 73 72 72 72 74 76 75 55 45 44 46 56 78 79 80 74 45 44 43 50 50 46 52 74 75 74 74 74 75 75 73 70 68 70
84 82 81 80 80 79 75 73 75 73 76 75 76 77 78 78 77 47 43 43 45 70 79 60 48 44 43 45 42 43 40 68 72 72 73 74 75 74 70 67 66 68 66
83 81 81 79 78 78 79 78 78 76 77 79 79 79 80 80 80 77 69 62 46 57 57 68 61 56 54 54 60 56 66 71 71 72 72 73 72 71 68 67 67 67 61
82 81 80 80 77 77 78 80 80 79 77 80 81 83 80 80 81 71 71 76 75 68 69 74 71 71 72 74 74 74 75 74 71 72 70 70 70 68 66 65 59 60 62
81 81 82 83 79 81 79 79 56 54 53 51 51 67 82 57 48 49 53 53 50 46 69 76 76 76 75 76 77 77 76 63 71 67 66 66 62 59 58 61 65 62 62
80 82 84 79 83 82 81 80 78 65 47 45 45 47 47 55 45 47 45 42 41 47 74 76 74 73 74 74 75 75 71 66 66 67 61 54 49 55 63 65 65 65 64
82 63 84 85 86 85 83 83 84 82 76 75 47 48 43 44 44 41 41 45 60 60 73 75 74 74 73 70 69 65 65 61 57 55 58 58 60 61 60 62 63 63 61
83 85 85 87 87 83 86 85 85 85 85 84 69 55 46 40 40 40 41 73 78 75 74 70 71 68 66 64 57 57 56 53 55 56 54 57 60 58 59 61 61 46 49
83 67 72 85 86 85 86 86 85 85 84 85 81 78 65 61 67 67 71 74 73 71 68 66 63 60 61 62 56 50 47 45 49 56 59 59 58 58 57 56 58 57 56
85 83 65 80 85 84 84 85 85 85 85 85 85 72 52 77 73 72 70 70 68 67 68 62 64 61 58 49 51 56 58 58 58 56 56 55 56 55 56 55 55 54 54
85 84 82 81 83 83 82 83 85 85 85 84 72 64 41 76 73 70 69 66 60 59 58 60 56 53 55 58 59 60 61 57 55 56 56 57 56 55 55 54 54 53 52
84 83 82 79 76 65 75 81 83 84 79 73 70 69 73 71 67 64 62 62 59 55 57 59 59 58 57 57 56 56 56 56 56 55 56 56 56 55 56 53 54 52 50
86 83 82 79 79 80 78 77 79 65 73 71 71 70 68 65 63 61 60 60 55 54 54 53 55 55 54 55 56 57 58 57 58 57 57 58 57 54 56 54 54 52 46
86 81 79 78 75 76 73 73 72 71 70 69 66 64 63 61 60 58 57 52 48 51 53 55 54 55 56 56 55 53 38 34 48 37 59 58 57 56 56 54 52 50 49
76 74 74 72 69 68 65 65 67 65 62 61 62 59 56 54 49 48 49 52 52 53 54 55 56 55 54 53 51 36 34 34 41 34 50 59 58 57 56 52 52 51 49

GFSGL_sfc_temp_003.txt.gz
Temp
80 79 79 79 79 78 77 77 72 71 68 73 73 73 71 71 72 72 71 71 69 66 64 62 62 61 61 60 61 64 66 65 68 67 73 72 72 74 71 74 72 74 70
81 80 79 79 79 78 77 77 74 72 66 65 72 73 74 73 70 73 73 72 68 65 63 63 62 63 63 62 64 69 68 72 70 67 70 70 70 74 72 74 77 81 78
83 80 78 78 78 76 76 76 77 75 69 67 70 68 73 76 74 74 72 72 70 70 67 64 67 63 63 66 68 68 73 74 73 73 70 73 74 76 74 75 75 76 79
83 80 77 77 78 78 79 78 78 79 75 72 68 70 72 77 78 77 76 74 73 69 69 71 70 68 69 71 73 68 75 76 75 74 74 74 74 74 74 72 70 73 74
82 80 77 78 79 79 79 79 79 79 79 79 76 75 76 77 77 75 77 75 72 72 73 72 74 69 63 65 76 75 75 76 76 76 75 75 73 72 70 74 73 74 72
82 80 79 79 80 78 78 78 79 79 80 80 79 78 74 74 52 59 73 77 76 75 72 72 72 67 59 55 57 59 68 76 75 77 76 74 73 74 75 74 74 72 69
82 82 81 80 79 78 79 79 77 77 78 79 78 77 73 71 52 55 63 78 77 76 75 75 78 76 72 74 56 56 56 57 61 77 75 76 75 76 76 73 72 72 71
82 83 82 81 80 79 79 78 76 76 76 77 77 78 76 68 53 57 61 78 77 77 78 79 75 76 73 75 77 76 76 75 74 79 77 77 78 78 77 75 73 72 73
83 83 83 83 80 79 78 76 76 75 75 76 78 77 76 72 51 52 59 77 76 76 78 78 77 76 54 55 77 76 76 74 54 53 52 49 49 50 55 73 73 71 70
85 85 85 85 81 79 78 76 76 76 76 79 78 78 68 74 49 48 57 82 75 76 76 73 54 69 51 50 77 76 74 75 77 73 72 64 55 63 49 62 70 69 70
88 87 86 84 81 80 78 77 76 76 77 77 77 76 77 75 65 48 48 74 79 78 78 76 74 47 47 47 47 75 68 66 68 74 75 76 76 74 74 69 69 68 67
89 88 85 83 83 82 77 76 76 75 75 74 75 75 78 76 60 46 47 45 52 80 79 80 69 45 46 46 54 49 50 54 75 76 77 76 77 77 78 74 72 71 70
87 86 84 83 82 81 77 75 76 75 76 75 76 76 77 78 74 50 46 45 48 72 76 54 47 44 45 47 44 45 42 70 72 73 74 76 77 76 72 72 72 69 60
86 85 84 81 80 80 80 79 78 76 77 78 78 78 80 79 79 73 70 64 48 60 56 65 63 58 58 58 61 57 67 71 72 73 72 74 75 72 65 62 60 58 58
85 85 83 83 79 80 80 81 81 79 78 80 82 82 81 80 80 70 69 73 73 68 70 75 72 72 72 72 73 75 75 74 73 72 68 68 63 61 61 63 61 59 57
84 84 84 84 81 82 81 81 57 57 56 52 48 66 83 64 52 50 53 52 51 50 69 75 76 77 77 78 78 77 76 66 68 70 68 59 59 58 55 55 54 57 61
83 83 85 80 84 83 82 81 79 65 48 49 45 48 53 52 47 48 46 44 44 50 74 77 78 80 79 79 79 76 65 67 64 60 59 59 54 55 56 58 62 64 64
85 64 86 86 87 85 85 83 84 81 76 76 48 57 47 46 45 43 43 50 65 59 77 79 79 76 75 75 74 67 65 61 60 57 53 52 53 57 61 63 62 61 59
87 87 87 88 88 84 87 86 86 85 83 81 79 53 48 41 41 41 43 76 77 77 78 79 79 76 72 68 66 65 58 56 53 52 54 62 63 62 61 61 60 46 49
88 71 75 88 89 88 88 88 87 86 86 85 81 76 66 59 65 66 66 72 76 82 80 76 72 70 67 66 63 60 54 51 59 62 61 60 61 61 59 59 58 57 56
90 88 63 85 88 89 89 88 88 87 86 87 83 76 54 71 72 71 71 76 80 76 74 70 69 65 64 58 59 56 58 61 60 59 60 59 59 57 58 57 57 57 56
90 89 87 85 88 88 88 88 85 85 86 86 76 61 44 79 80 78 77 75 74 70 70 66 64 65 62 56 59 60 59 57 58 60 60 59 58 56 57 56 56 55 54
91 89 87 85 86 73 83 87 85 84 82 78 73 71 72 80 76 74 69 67 66 65 65 65 64 63 62 58 58 60 60 58 56 57 58 58 59 57 57 54 55 53 52
91 88 87 86 83 84 83 81 77 63 78 78 74 75 77 74 69 66 65 65 65 65 65 63 59 54 54 56 57 58 57 55 59 59 59 59 58 55 57 56 54 53 51
90 88 86 85 81 79 79 80 76 81 76 72 72 71 71 68 66 65 64 63 58 54 52 52 54 55 56 57 54 52 38 35 46 37 57 59 58 58 58 54 53 51 51
90 87 85 84 81 81 81 79 77 75 72 72 70 67 66 64 63 59 57 55 54 52 51 53 54 55 55 54 49 36 34 34 39 33 49 58 58 57 54 51 52 51 50

GFSGL_sfc_temp_006.txt.gz
Temp
76 76 76 74 75 71 68 70 64 66 68 68 68 68 68 68 67 67 67 67 66 65 64 62 62 63 62 62 62 62 61 62 60 63 66 66 66 66 65 67 67 64 62
77 76 76 75 74 70 68 69 66 66 69 70 71 70 68 69 68 67 67 67 65 64 63 62 61 62 61 61 62 61 62 64 65 61 63 65 64 65 64 64 68 72 65
79 76 76 73 71 71 69 68 66 65 67 71 71 71 70 69 68 68 69 67 65 64 63 62 61 61 61 61 62 62 63 65 65 64 62 63 63 64 62 64 66 66 70
79 75 74 73 72 73 72 70 69 69 66 67 69 72 70 70 70 70 69 66 65 65 63 63 62 62 62 63 64 64 66 64 64 64 63 62 62 64 64 62 61 63 62
78 75 73 74 75 75 74 74 71 70 69 68 70 72 70 69 69 68 68 66 65 65 65 64 63 63 63 63 66 64 65 65 65 63 61 61 61 60 60 62 61 62 62
77 75 75 75 76 73 74 74 72 72 72 71 69 70 67 66 52 57 66 66 65 64 64 64 62 59 58 57 60 61 64 65 63 63 62 61 61 61 62 62 61 60 57
78 77 77 75 75 74 75 74 72 71 72 69 68 67 65 63 52 54 59 67 65 64 65 65 68 69 64 64 55 56 56 57 60 67 64 64 64 64 64 62 61 61 60
78 78 78 77 75 75 73 72 71 71 70 69 68 67 65 61 55 54 61 69 68 68 68 67 65 66 65 67 68 67 67 67 66 70 67 65 63 61 64 65 64 63 63
80 79 79 78 75 74 72 70 70 70 70 70 70 68 64 64 55 54 65 69 69 69 68 68 68 65 54 55 68 66 66 63 55 52 50 50 50 50 52 61 60 58 57
81 81 81 80 76 74 72 70 70 71 71 73 71 70 64 63 50 52 58 70 67 67 65 62 53 61 50 53 66 65 63 63 64 61 61 56 53 56 52 58 57 54 54
84 84 81 78 74 73 71 71 70 70 71 70 70 70 69 65 58 51 50 65 67 66 66 64 59 48 48 50 51 62 58 58 62 64 64 63 63 62 58 57 58 57 55
85 84 81 76 79 77 71 70 70 69 69 68 68 68 70 66 58 48 47 50 49 66 66 65 56 45 48 50 52 48 51 57 63 62 62 63 63 62 60 61 61 60 59
83 80 78 76 77 74 71 70 70 69 69 69 70 69 68 70 63 51 46 48 50 61 61 58 45 45 48 49 45 49 50 60 61 61 61 62 63 61 58 59 59 57 57
81 78 77 75 74 73 75 73 72 69 70 71 71 69 70 69 67 63 59 54 49 59 52 55 53 54 55 57 54 50 59 60 60 61 61 59 59 59 56 56 55 54 53
79 79 76 77 73 72 74 74 73 71 70 72 71 73 70 69 70 62 62 64 64 63 63 61 61 60 60 60 62 63 63 62 61 61 59 58 57 56 56 56 54 52 51
77 79 79 78 75 76 74 74 51 57 53 50 51 65 75 65 51 52 51 52 52 52 61 64 63 63 64 65 65 65 65 61 61 60 56 55 55 54 52 53 54 52 51
77 78 80 77 77 76 75 75 71 58 46 46 51 52 55 59 50 50 50 49 47 48 64 64 66 67 68 68 66 64 59 59 58 56 54 52 51 52 52 52 55 54 52
79 63 80 80 80 78 77 76 78 74 69 66 49 55 45 44 45 46 44 49 57 55 66 67 68 69 68 63 61 59 56 55 53 51 51 51 52 54 54 53 52 51 50
82 82 81 81 82 77 80 79 79 78 75 73 61 54 44 41 41 42 47 68 67 66 66 68 69 65 62 61 57 56 54 52 51 49 50 53 54 53 52 52 51 43 44
83 68 72 81 81 81 80 81 79 78 76 75 71 66 60 57 61 61 61 66 69 71 71 69 64 62 60 57 56 54 52 50 51 53 53 54 54 53 52 51 50 49 48
86 81 66 79 82 81 82 81 81 80 79 78 75 68 53 66 65 65 64 65 68 69 70 67 63 59 58 57 55 53 53 52 51 52 54 54 52 50 50 50 49 48 47
88 85 80 81 80 78 79 77 81 82 81 81 77 65 45 69 69 67 68 66 68 67 66 62 60 59 59 58 56 54 53 52 53 54 53 53 52 50 50 49 49 46 46
88 86 83 80 80 67 75 78 81 81 82 80 72 61 61 67 69 68 63 64 63 62 63 61 59 58 58 56 56 54 53 52 52 52 52 51 50 49 50 45 47 45 44
88 86 85 83 79 79 79 77 79 66 77 70 66 65 64 69 65 61 61 61 60 60 61 59 55 54 52 53 52 50 49 49 52 52 51 52 51 49 50 47 46 46 40
84 83 83 81 79 76 78 76 75 72 72 70 66 66 67 62 61 61 60 61 59 55 53 53 53 52 52 50 48 45 37 36 44 39 51 53 52 50 48 45 45 41 40
84 81 78 81 77 75 74 74 73 74 71 68 68 64 63 61 60 59 55 52 53 52 52 52 52 51 50 48 45 36 34 34 36 34 46 50 51 48 46 45 46 41 41

GFSGL_sfc_temp_012.txt.gz
Temp
62 62 64 62 62 61 59 59 60 60 61 61 61 61 61 61 61 61 59 61 61 62 63 62 61 61 60 61 61 61 60 61 58 60 62 63 63 62 62 62 64 61 61
63 62 62 62 61 61 60 59 60 60 61 61 62 62 62 61 61 61 61 63 63 61 61 62 61 62 61 61 62 61 61 61 60 59 61 61 62 61 61 60 63 65 60
63 61 61 61 61 61 59 60 60 61 61 63 62 61 62 62 61 61 61 61 62 62 61 62 62 62 61 61 61 61 61 62 60 60 59 60 60 60 59 59 59 58 62
63 61 60 61 60 61 60 60 61 62 62 62 62 63 63 62 62 62 61 60 60 61 61 62 62 62 61 61 61 61 61 60 60 59 59 58 58 58 58 56 55 57 57
63 61 61 61 61 61 61 63 62 62 62 64 64 63 63 62 63 62 62 61 60 60 61 62 61 61 60 60 62 61 60 59 59 58 56 56 56 55 54 54 55 55 56
62 62 63 62 62 62 61 61 63 61 61 61 62 62 61 61 52 55 60 61 61 61 60 61 61 59 58 56 57 57 59 59 57 57 55 55 54 55 54 54 54 54 54
63 63 64 63 63 62 62 61 60 59 58 58 59 59 59 58 50 52 55 62 61 61 61 61 62 63 60 61 55 54 55 55 58 59 56 56 56 57 55 54 54 54 53
64 65 64 64 64 62 61 60 59 57 57 56 57 57 57 57 50 51 53 62 61 61 61 61 62 61 61 60 59 58 58 58 59 63 59 57 58 58 58 58 56 54 54
65 65 65 64 63 62 60 57 57 56 55 56 57 57 57 55 48 49 56 59 60 59 60 61 60 59 52 50 59 57 55 54 52 49 52 51 49 49 54 57 53 54 49
66 67 66 65 62 61 59 58 57 56 57 58 57 57 54 55 48 50 55 59 57 57 57 59 53 57 46 47 59 57 56 55 55 54 52 50 50 49 50 54 52 50 47
69 69 66 63 62 61 59 58 57 57 57 56 57 55 57 55 52 48 51 59 59 57 56 55 53 46 47 47 51 57 56 55 53 54 52 51 52 51 51 51 52 52 49
69 69 67 63 68 63 60 58 58 57 56 55 54 53 54 55 51 48 49 52 53 59 57 56 51 45 45 45 50 45 46 51 53 52 53 49 52 50 50 50 51 51 52
67 68 66 64 66 63 62 58 57 57 55 55 55 54 54 53 50 46 46 48 49 57 57 53 45 43 44 46 44 45 49 53 53 52 50 48 48 49 49 50 50 54 55
66 66 65 64 62 63 65 63 62 57 56 56 56 54 54 53 49 46 50 49 48 52 49 46 46 46 46 47 50 50 52 51 54 51 47 47 47 48 48 48 48 51 51
65 65 65 66 64 63 64 63 64 62 62 58 58 60 55 53 54 49 49 51 50 50 46 47 46 46 48 49 49 49 49 52 50 47 47 47 48 48 47 47 47 49 45
66 65 66 65 64 64 62 56 46 52 49 50 49 55 58 55 47 45 44 45 44 45 49 48 47 47 48 49 50 48 48 49 48 50 47 47 48 49 48 46 49 44 40
69 66 66 64 65 62 61 61 57 52 45 46 47 48 50 54 45 45 44 43 43 46 52 50 51 52 50 50 50 49 47 51 49 50 48 46 48 47 46 46 48 45 41
68 57 66 66 66 64 64 63 63 60 58 54 46 47 44 45 45 43 43 43 45 48 52 53 53 52 51 51 49 49 50 46 45 46 46 46 46 50 49 47 44 41 40
68 67 68 68 67 64 64 63 63 61 62 56 50 45 40 40 40 40 42 60 57 56 55 54 52 52 51 51 50 51 50 49 48 46 46 48 50 49 44 45 41 37 37
71 60 63 68 65 64 64 64 61 61 59 60 56 57 44 46 47 45 49 58 59 61 61 60 51 50 50 51 51 50 48 46 47 48 49 50 50 47 46 45 41 40 39
72 64 56 67 66 66 65 64 64 63 62 61 61 58 45 56 55 52 52 55 59 60 59 57 54 51 52 52 51 50 50 49 50 50 50 50 48 47 44 43 41 41 38
73 69 67 68 67 67 66 66 65 65 64 63 63 58 41 59 60 56 56 59 60 59 57 55 54 54 53 53 52 52 51 50 50 50 49 48 47 46 44 43 41 38 37
73 70 68 69 69 57 59 65 64 65 65 62 63 59 51 57 61 59 58 59 55 53 54 55 54 54 54 54 54 54 53 50 51 52 50 48 47 45 44 39 38 37 34
71 71 68 70 68 63 64 63 63 55 64 64 61 57 55 58 61 60 58 55 57 55 56 56 55 54 52 50 48 50 51 53 53 52 51 49 46 43 42 40 38 36 31
68 67 67 66 67 64 64 61 61 60 59 61 60 59 59 59 59 55 56 56 53 51 52 54 53 52 51 50 49 46 39 39 48 44 49 48 45 43 42 39 36 33 31
62 64 63 63 64 65 65 62 61 63 61 57 55 54 55 56 54 52 52 52 51 49 50 49 49 48 48 47 46 39 37 37 40 39 47 46 44 42 41 37 36 33 31

GFSGL_sfc_temp_015.txt.gz
Temp
59 59 60 60 60 59 58 58 59 59 59 59 59 59 59 59 59 60 60 62 63 61 60 61 60 61 60 60 61 61 61 60 58 60 62 63 62 63 62 61 62 61 61
60 60 60 60 60 58 58 59 59 59 59 60 60 60 60 59 59 60 61 63 62 60 60 61 60 61 61 61 61 60 61 61 60 59 61 61 61 61 61 60 62 64 61
60 59 59 59 59 58 58 59 59 60 60 60 60 60 60 59 59 61 61 62 61 61 62 61 61 62 61 61 61 61 61 61 61 60 59 60 60 60 59 60 60 59 61
60 59 59 59 59 59 59 59 60 61 60 60 60 61 60 60 60 60 61 60 60 61 61 62 62 62 61 61 60 60 61 60 60 60 59 57 59 58 58 57 55 55 56
60 59 59 59 60 60 59 60 60 60 61 61 61 60 60 60 61 60 60 61 60 60 61 62 62 60 59 60 61 60 60 60 59 58 56 56 56 55 55 54 54 54 55
59 60 60 60 60 60 59 60 60 58 60 62 60 62 61 61 49 54 59 60 61 61 60 60 60 58 57 55 55 56 59 59 58 57 55 55 53 55 53 53 53 53 53
60 61 61 61 61 60 60 59 58 56 57 60 60 60 60 59 49 50 54 61 60 60 60 60 61 61 60 60 53 54 55 53 57 58 56 56 55 55 55 53 53 53 53
60 61 62 62 61 60 59 58 56 55 55 56 58 58 59 57 48 49 53 61 60 60 61 61 61 60 60 60 59 59 58 58 57 61 59 58 58 56 57 58 55 54 52
62 61 62 63 60 59 58 56 55 54 53 55 55 56 57 56 46 47 56 60 59 59 60 60 61 60 50 50 59 57 54 53 50 49 46 45 45 49 53 56 53 52 48
64 64 63 63 61 59 57 55 54 54 55 56 57 56 53 55 45 47 55 59 57 57 59 58 53 57 45 46 56 54 53 53 53 52 52 51 50 48 50 54 52 50 46
67 65 62 61 61 59 57 56 55 54 54 54 55 54 55 54 52 46 50 58 57 56 56 55 54 48 44 44 50 55 55 53 51 52 51 49 49 50 50 50 50 52 48
66 64 62 59 64 60 57 56 55 54 53 52 52 51 53 53 49 45 46 51 52 56 55 55 52 44 43 44 49 47 44 49 51 50 50 48 48 48 47 50 50 50 50
65 63 60 59 60 59 57 55 54 54 53 52 52 52 52 52 51 46 45 46 48 55 55 52 43 42 42 44 44 43 46 51 50 50 48 46 46 47 47 50 50 49 47
64 62 60 60 57 57 61 59 58 55 53 55 53 52 51 51 50 48 50 50 48 51 47 46 45 46 46 47 48 49 50 51 53 51 46 45 45 47 47 46 48 44 45
64 63 61 62 60 58 60 59 60 59 59 57 56 57 53 51 52 49 49 51 51 49 45 45 46 46 48 48 47 48 49 49 49 45 45 45 46 46 45 45 44 42 41
64 62 62 62 59 60 59 54 46 48 47 47 48 55 57 53 46 45 44 44 42 43 47 46 45 46 47 48 48 47 47 47 46 47 45 46 46 46 45 43 42 41 41
66 64 62 61 62 60 59 59 56 51 45 44 43 46 49 53 44 44 43 41 40 44 50 48 50 48 49 50 50 47 47 46 46 47 48 45 45 45 46 44 44 45 39
67 55 64 64 63 62 61 61 61 59 57 54 46 46 43 43 43 42 40 43 43 45 49 51 50 50 48 49 48 47 45 44 45 44 45 45 46 46 45 46 45 41 40
67 64 66 64 64 62 62 61 60 60 60 54 48 44 41 41 41 39 41 55 52 51 50 51 51 52 51 51 49 47 48 48 47 45 44 46 46 46 46 46 44 37 36
68 58 60 64 62 61 61 60 59 59 57 57 55 57 43 44 47 43 45 52 55 56 56 55 52 53 54 53 50 49 47 44 46 47 47 47 47 48 47 45 44 42 40
68 61 54 63 62 63 62 61 61 60 59 57 58 55 44 54 55 50 47 50 56 57 57 56 52 52 50 50 50 49 48 48 49 48 48 48 47 46 43 44 42 41 39
69 63 63 65 64 63 62 63 61 61 60 59 59 53 40 55 57 56 54 54 56 58 59 56 53 53 53 51 51 51 51 50 49 49 48 48 48 47 46 44 42 39 38
68 63 64 65 64 54 56 62 62 62 61 60 59 54 47 53 58 57 57 57 57 56 55 55 54 51 52 52 53 53 53 52 51 51 49 48 47 45 44 40 40 38 36
68 66 65 65 64 61 61 62 61 53 62 61 59 57 53 55 55 58 57 55 55 54 55 55 56 55 53 53 53 53 53 52 51 50 49 47 45 42 41 41 39 37 34
68 65 64 64 64 61 60 60 59 60 60 61 59 59 57 55 55 55 52 52 52 53 52 52 53 52 51 51 51 50 41 40 49 45 48 47 44 41 40 38 37 34 34
65 65 64 65 64 62 62 60 59 60 60 61 60 59 57 57 56 53 49 48 47 47 47 47 50 50 49 47 46 40 39 40 42 40 44 43 41 39 40 38 37 35 33

GFSGL_sfc_temp_018.txt.gz
Temp
59 59 61 61 61 60 60 60 60 61 61 61 61 61 61 60 61 61 61 62 62 61 62 62 61 61 61 62 61 62 61 61 59 60 62 63 63 63 62 62 63 62 63
60 60 61 61 60 59 60 60 61 61 61 61 61 61 61 61 61 61 62 63 62 61 61 61 61 62 61 62 61 61 61 62 61 59 61 61 62 62 61 60 61 64 64
60 60 60 60 60 59 60 60 61 61 61 61 61 61 61 61 62 63 63 62 61 62 62 62 62 62 61 62 62 61 61 61 62 60 60 61 61 61 59 60 61 60 63
60 60 59 60 60 59 60 61 61 62 61 61 61 61 61 61 62 62 62 61 61 62 62 62 63 63 62 62 61 61 61 61 61 60 59 59 59 59 59 58 57 59 62
60 59 59 60 60 61 61 61 61 61 61 62 61 61 61 61 61 61 62 62 61 61 62 62 62 61 59 60 62 61 62 60 60 59 58 58 57 57 57 57 59 59 60
60 60 60 61 61 60 60 60 60 62 62 62 61 62 61 60 50 53 59 61 62 62 60 60 60 58 57 54 55 55 59 60 59 58 57 56 56 57 59 60 59 59 60
60 61 61 61 61 61 61 60 59 59 61 61 61 62 60 58 48 49 53 62 61 61 60 60 61 60 60 61 53 54 54 54 56 59 58 59 59 60 60 58 59 60 59
60 61 61 62 61 61 60 59 57 58 59 59 59 60 59 56 47 48 52 61 61 61 62 62 62 62 60 61 62 60 60 60 61 64 63 62 63 61 63 62 60 56 57
61 61 62 63 61 60 59 58 57 57 57 58 59 60 59 55 46 48 57 61 60 60 62 62 61 61 48 51 60 59 58 57 49 47 47 47 47 49 56 62 59 61 57
62 63 63 63 61 60 59 58 57 57 57 59 59 59 55 56 45 47 56 60 59 60 60 59 52 58 46 49 61 59 58 57 56 56 58 54 52 51 50 60 60 58 55
64 63 62 61 61 60 58 58 57 56 56 57 57 57 58 57 53 45 50 61 61 60 60 59 61 47 45 46 50 59 58 56 52 57 56 56 56 56 56 56 56 59 57
64 64 61 60 64 61 58 57 57 56 55 54 55 55 56 56 49 45 47 51 53 61 61 61 58 45 44 44 51 46 45 51 58 57 56 55 56 55 54 54 53 53 54
63 61 60 60 61 60 59 57 56 55 56 54 56 57 56 56 55 46 44 45 48 59 61 55 45 43 42 45 45 43 47 58 58 57 56 55 55 53 52 52 52 51 50
62 60 59 60 58 59 60 60 59 56 55 57 57 57 56 56 56 55 55 53 48 52 49 50 47 46 45 48 50 50 58 58 59 58 56 54 53 53 53 55 51 51 50
62 61 59 61 60 58 60 59 61 60 59 58 58 58 56 56 57 52 53 56 57 52 50 52 53 53 54 53 54 55 56 56 56 54 54 53 54 53 52 53 53 52 50
61 61 61 61 60 60 59 56 44 48 48 46 47 56 59 52 46 44 44 44 42 43 54 54 54 54 55 55 55 55 56 54 56 56 55 55 54 54 52 52 53 51 48
63 61 61 60 61 60 60 60 58 53 44 44 43 45 48 52 43 43 42 40 40 46 58 55 56 55 56 56 57 57 56 56 54 55 55 54 53 53 52 51 50 50 47
64 54 62 62 63 62 62 62 63 61 59 58 46 47 43 44 43 41 40 43 48 49 56 56 56 56 56 56 56 56 56 53 54 53 53 53 53 52 51 50 50 48 46
66 63 64 64 63 61 63 62 62 62 62 60 53 46 45 41 40 39 41 58 57 54 55 56 58 57 56 57 57 56 55 54 53 52 51 52 52 53 51 51 50 42 42
67 56 59 63 62 61 62 62 61 61 60 61 59 61 48 48 51 49 49 54 58 59 58 58 58 57 56 57 56 56 54 49 50 51 52 52 52 52 51 50 49 45 43
68 61 55 64 63 63 62 62 61 62 61 61 61 59 45 58 59 57 54 53 57 60 60 59 59 59 58 57 56 55 55 54 53 52 51 52 50 50 51 48 46 44 43
68 64 64 65 65 63 63 63 62 62 62 62 62 57 40 59 62 60 59 57 58 60 61 60 59 60 59 58 56 55 55 53 52 52 52 51 51 49 47 44 44 42 40
67 64 65 66 65 55 58 63 63 63 63 63 63 60 51 57 61 61 60 59 58 59 60 59 59 59 60 59 58 58 54 53 53 54 52 51 48 45 44 41 40 39 39
67 65 65 66 64 62 63 63 63 54 64 63 62 61 58 58 59 61 61 61 60 60 61 59 60 60 58 58 58 58 59 58 55 54 52 48 45 43 42 41 40 38 38
66 63 63 63 64 62 63 62 62 63 62 63 62 62 62 60 60 60 61 61 60 59 58 59 60 60 58 57 56 55 46 41 51 47 50 48 44 42 41 39 38 37 36
67 65 64 64 63 62 62 61 60 62 62 62 62 61 61 59 60 59 58 56 57 57 57 57 57 57 55 55 53 43 40 40 43 44 48 46 43 41 40 38 38 37 37

GFSGL_sfc_temp_021.txt.gz
Temp
72 72 71 71 71 70 70 71 70 70 70 70 70 70 69 65 66 66 67 67 65 65 66 65 65 66 66 66 67 65 64 61 59 60 62 63 63 63 63 63 64 62 61
73 72 71 71 71 69 69 70 70 70 71 70 71 71 65 64 65 66 65 67 67 64 65 63 64 66 66 63 63 66 64 64 62 59 61 61 62 62 62 62 62 63 65
73 73 71 70 69 69 69 69 71 70 70 70 71 68 64 64 66 67 66 66 66 66 65 65 65 66 64 62 62 64 64 64 62 61 60 61 61 61 60 61 62 62 65
73 73 71 70 70 70 70 70 71 71 70 69 70 68 64 65 66 66 66 66 65 65 66 69 68 67 67 66 63 64 63 62 62 60 60 59 60 60 60 59 58 62 64
73 72 71 70 70 71 70 70 71 71 70 71 70 68 64 64 65 66 66 65 66 65 65 65 66 66 61 61 64 63 62 61 60 60 59 58 58 59 58 59 60 62 65
72 72 72 71 71 70 70 70 70 70 70 70 70 69 64 62 50 55 62 65 65 66 62 64 62 59 56 54 55 56 61 61 60 59 59 58 59 59 58 60 64 66 64
73 72 72 72 71 71 71 70 70 69 69 69 68 69 63 61 49 51 55 67 66 64 64 63 61 63 64 64 53 54 53 53 56 62 59 60 59 60 64 65 67 69 67
73 73 73 73 71 71 71 69 68 69 69 64 63 63 62 59 47 48 53 67 64 66 66 64 62 67 62 66 63 63 66 62 63 64 62 63 69 70 70 71 68 64 66
74 74 74 74 72 71 70 68 68 68 68 63 62 61 59 54 46 48 57 64 63 64 66 65 67 68 48 52 63 61 62 61 51 47 48 50 48 52 62 72 69 70 67
75 75 75 75 73 72 70 68 68 69 69 71 64 62 55 58 45 48 57 62 60 60 64 64 52 58 46 51 69 68 66 65 66 66 65 58 60 55 55 72 72 69 68
77 77 75 74 73 73 70 69 68 69 69 68 67 64 64 61 54 46 51 65 65 62 63 62 62 46 46 48 53 70 66 66 59 68 67 67 67 67 68 68 70 72 69
77 76 75 73 74 73 70 69 69 68 67 66 66 67 68 64 51 46 47 54 57 68 67 70 64 44 44 46 55 43 46 57 69 67 68 67 67 66 64 64 63 65 68
75 74 73 73 73 72 71 68 69 68 70 69 70 68 68 69 67 45 45 46 51 69 73 60 46 43 43 48 43 44 50 71 70 69 69 68 68 65 62 61 60 60 60
73 73 73 72 71 72 74 72 72 71 71 72 72 71 70 68 69 69 66 64 49 62 53 61 53 52 47 57 57 57 72 72 71 72 70 68 65 65 65 66 64 64 62
73 73 72 73 70 71 73 73 74 73 71 73 73 74 71 70 71 62 63 69 71 63 62 66 68 69 69 69 70 69 71 68 70 70 67 65 65 66 64 64 64 64 62
72 72 73 75 72 73 72 69 44 50 49 47 51 65 72 56 46 45 45 45 43 44 67 69 69 70 70 70 70 68 68 63 70 68 67 66 65 65 64 64 65 64 62
73 73 74 71 74 73 73 72 70 58 45 44 45 46 50 56 44 43 42 41 41 46 72 71 71 71 72 72 72 72 71 71 70 70 69 68 67 66 62 63 64 63 61
74 58 75 76 75 75 74 74 75 73 71 70 47 52 43 44 42 41 40 45 57 56 72 73 72 72 72 72 72 72 72 70 68 69 68 68 66 65 64 63 62 60 59
75 74 77 77 77 73 76 75 75 75 74 75 73 51 49 41 40 39 41 71 70 69 71 72 73 73 72 72 72 72 71 70 68 67 67 66 65 65 64 64 63 47 49
75 62 67 76 75 75 76 75 75 75 74 75 73 74 69 56 63 62 60 66 72 73 73 72 73 73 72 72 72 71 70 65 66 66 66 66 66 65 64 62 60 51 47
78 73 61 76 76 76 76 75 76 76 75 75 75 74 52 69 72 73 70 68 71 73 74 74 75 74 73 72 71 70 70 69 68 66 66 65 64 63 63 62 56 53 50
79 76 73 77 77 76 76 76 76 76 76 76 76 73 41 68 77 76 75 73 73 74 76 74 74 75 75 73 72 71 71 70 68 67 66 65 62 61 60 57 55 51 45
78 76 74 76 77 64 71 77 76 76 76 77 77 77 65 69 74 76 75 75 74 73 74 74 74 75 75 74 73 73 72 72 70 68 64 63 63 61 58 52 47 46 43
79 76 76 76 76 75 75 74 76 63 76 77 76 76 75 71 72 75 75 75 74 74 74 74 73 74 75 73 73 73 73 73 71 68 64 62 59 49 52 51 50 44 40
77 75 74 74 74 73 75 74 75 76 74 75 75 75 77 74 74 74 75 75 75 73 73 73 73 73 73 72 72 71 61 42 63 54 64 60 53 52 51 45 42 40 38
75 71 72 72 71 73 73 72 73 74 75 74 74 75 76 76 75 74 74 73 73 73 73 73 72 72 71 72 70 58 40 40 49 46 58 54 50 47 47 43 41 39 38

GFSGL_sfc_temp_024.txt.gz
Temp
79 79 77 77 77 77 74 73 75 75 76 76 76 76 73 74 75 73 72 73 70 71 70 70 69 71 71 73 70 69 65 62 59 60 62 62 62 62 63 64 64 63 63
80 79 77 77 77 75 73 75 75 76 77 77 77 75 74 75 74 70 71 73 69 67 68 69 70 72 70 67 68 67 65 63 61 58 61 61 61 62 62 62 62 62 62
81 80 77 76 76 73 74 73 74 76 77 78 78 75 71 73 71 71 71 70 69 70 68 67 69 70 64 64 65 67 65 63 64 61 59 61 61 62 61 62 61 61 65
81 80 77 75 75 75 75 75 74 76 76 76 77 73 69 70 70 70 71 69 68 72 69 70 70 68 64 63 65 65 65 64 62 61 60 59 60 61 61 59 58 60 66
80 79 77 75 77 77 76 76 76 76 77 76 73 70 69 69 70 69 69 68 66 69 71 71 69 65 61 63 65 66 64 61 61 60 59 59 58 58 58 60 60 66 64
80 79 78 78 77 75 76 76 75 75 76 76 75 72 69 69 52 55 64 70 69 69 70 70 68 64 59 54 56 57 62 62 60 59 59 58 59 59 59 59 65 63 60
80 79 79 78 77 75 77 77 75 74 74 73 71 71 67 68 50 51 54 72 70 70 69 64 64 68 65 63 54 53 53 53 58 62 60 60 59 60 60 64 67 69 70
80 80 80 79 78 77 76 76 74 73 70 70 65 69 68 66 49 49 53 70 70 71 68 70 69 68 63 66 65 61 60 61 62 62 62 62 62 64 69 72 71 69 69
81 80 80 80 78 77 76 74 74 71 63 65 66 65 66 62 46 48 57 71 71 70 72 69 71 71 50 52 63 60 60 55 50 51 52 53 51 54 66 72 68 70 68
82 82 82 82 79 77 75 74 75 75 72 71 66 62 55 58 45 47 60 66 64 65 66 69 52 60 47 51 66 68 62 61 60 62 62 56 61 59 56 74 77 74 73
85 84 82 81 79 78 75 75 75 75 75 71 68 66 66 62 55 47 52 64 67 64 67 68 61 45 46 51 54 70 65 66 62 70 70 71 72 72 75 76 77 79 74
85 84 82 80 81 79 75 75 75 74 73 71 70 69 66 67 55 48 46 53 58 67 65 69 61 44 45 48 58 46 49 60 77 75 75 74 74 74 72 72 71 72 73
83 81 81 80 80 79 76 74 76 75 76 75 75 73 71 72 71 47 46 48 51 67 73 61 45 43 45 49 44 47 46 76 76 75 73 74 73 72 69 69 68 67 67
81 80 80 79 78 79 80 79 79 77 78 79 78 77 76 74 73 73 71 70 54 67 55 65 60 55 45 59 60 61 79 80 78 77 76 76 73 71 72 73 70 70 68
80 80 79 80 77 78 80 80 81 80 77 80 80 80 76 76 76 68 69 76 77 69 70 71 72 74 74 74 75 76 79 78 78 79 76 73 74 75 73 73 72 70 68
79 81 81 82 79 80 79 78 45 52 54 51 54 66 77 59 49 49 50 47 46 48 72 75 75 76 76 77 77 76 78 71 79 78 76 75 74 74 72 71 72 71 69
80 81 83 78 81 81 80 79 76 62 48 46 47 48 49 54 46 44 43 42 42 48 77 77 77 77 78 78 78 78 77 78 78 77 76 75 75 74 69 71 72 71 69
81 62 84 83 84 83 82 81 81 78 75 74 48 56 45 44 42 41 41 47 64 61 78 80 79 79 80 80 80 80 80 79 77 77 76 76 75 74 71 71 71 69 68
83 84 85 84 86 80 84 83 83 83 81 80 79 52 48 41 40 40 41 76 76 75 77 80 81 81 80 81 80 81 80 80 77 76 76 75 75 74 72 73 72 53 57
84 68 73 85 85 83 84 83 83 82 82 82 82 79 74 58 67 66 66 73 79 80 80 80 81 81 81 81 81 80 80 76 76 75 76 76 75 74 73 73 72 67 65
87 84 69 86 86 84 84 83 84 83 83 82 83 81 57 75 77 77 75 75 77 81 82 82 83 83 81 81 81 80 79 78 77 76 76 76 75 73 73 73 72 68 65
88 87 82 86 86 85 85 85 84 84 84 84 84 80 43 78 82 82 81 80 80 80 83 82 83 84 84 82 81 80 80 79 78 77 76 77 75 73 73 72 70 65 61
89 88 83 85 87 71 81 86 85 85 85 85 86 85 76 80 81 84 83 83 82 81 82 83 83 83 84 84 83 82 81 80 81 80 77 76 75 71 71 67 68 63 58
90 88 86 85 86 86 84 83 85 69 84 85 85 85 85 81 81 81 84 85 84 84 83 83 83 83 83 83 83 83 82 83 83 82 79 77 74 66 70 65 64 60 53
90 86 86 84 85 84 84 84 83 86 84 85 85 85 86 86 83 82 84 85 85 84 82 83 83 82 82 82 82 82 69 45 71 65 80 76 73 70 69 64 60 55 45
88 86 85 85 84 84 83 83 82 83 85 85 84 86 86 86 86 83 83 84 84 84 83 83 82 81 81 82 81 67 43 42 57 43 74 74 72 68 65 60 52 47 48

GFSGL_sfc_temp_027.txt.gz
Temp
81 81 76 77 79 74 75 75 75 76 78 76 77 75 75 75 75 72 70 67 70 65 66 65 71 67 69 70 67 68 67 65 60 60 62 62 62 61 61 62 63 62 61
82 81 77 79 79 74 74 73 73 73 79 78 77 78 78 78 74 72 74 74 72 70 71 68 70 71 72 70 70 67 66 64 61 58 59 60 61 62 61 61 61 63 61
83 82 76 78 76 72 73 75 75 79 79 80 78 78 77 75 71 72 72 71 68 72 71 69 69 70 69 67 65 65 64 62 62 59 58 60 61 61 60 60 60 60 61
84 82 75 76 74 74 73 75 76 80 79 79 78 77 75 72 71 72 71 71 72 73 70 72 68 63 63 66 64 64 63 62 61 60 59 59 59 60 60 58 56 58 59
83 82 74 77 77 76 72 75 74 76 79 80 77 75 70 71 70 70 70 71 72 69 70 67 68 63 61 61 65 64 63 62 60 59 58 58 58 58 57 56 56 60 62
82 82 77 77 76 76 74 74 76 76 73 75 75 74 70 74 52 56 63 69 72 69 68 69 68 61 58 54 56 57 62 61 60 59 58 57 58 58 58 58 60 58 57
82 82 77 80 75 75 77 75 75 72 73 70 72 73 72 69 51 53 55 69 72 69 70 68 68 68 65 66 55 54 54 54 59 62 59 59 58 60 61 63 64 65 64
83 83 80 81 78 75 76 75 74 72 71 72 71 74 71 67 51 51 53 73 68 71 71 70 68 66 64 67 63 61 61 62 61 62 61 61 61 60 63 67 67 67 69
83 83 83 78 76 77 75 72 73 66 67 68 70 71 71 67 48 48 56 72 67 71 68 67 70 67 50 52 62 58 58 58 53 51 52 50 50 52 60 72 67 68 65
85 84 85 83 78 80 75 72 73 73 70 71 70 65 57 67 46 47 56 70 67 65 69 67 53 58 49 52 62 61 58 59 60 60 59 55 56 59 53 71 73 70 69
87 86 85 83 81 79 77 73 73 73 73 69 70 68 67 63 57 46 51 72 70 68 67 71 66 47 50 53 57 63 59 62 58 65 65 65 66 69 72 72 71 67 72
87 86 84 82 83 80 77 76 73 72 72 71 67 67 69 66 55 48 47 55 59 71 72 69 62 44 47 51 58 48 49 59 68 67 68 69 70 70 74 73 69 70 72
86 84 83 82 83 80 77 77 75 73 70 72 70 68 68 68 68 49 47 48 52 70 73 57 45 44 46 52 49 50 50 72 71 71 71 71 74 75 71 69 68 69 70
84 83 82 80 80 80 81 80 81 78 80 80 73 73 71 71 72 70 70 68 51 62 53 58 58 54 50 58 61 61 76 78 77 76 75 77 74 70 69 71 68 69 68
83 82 81 82 79 79 81 80 82 82 77 82 81 79 74 74 73 66 67 74 74 68 69 71 72 72 72 71 72 74 79 79 78 78 77 74 73 72 73 74 73 71 68
82 83 83 83 81 81 81 79 44 51 50 49 50 66 77 60 50 50 49 48 48 51 73 74 74 76 76 76 75 77 79 73 80 79 77 76 75 75 75 74 74 71 69
82 82 84 79 82 82 82 81 77 64 49 50 46 49 55 55 48 46 44 44 46 51 74 73 76 78 78 79 79 79 78 79 80 80 78 76 77 76 71 73 72 72 72
83 62 85 85 85 85 83 83 83 78 76 76 52 55 47 45 45 44 43 49 67 62 77 79 79 79 80 80 80 80 80 80 78 79 78 77 76 76 73 73 72 72 72
85 86 86 86 88 82 86 85 85 83 80 79 78 56 48 41 40 41 43 75 75 75 76 80 82 81 81 81 82 82 81 81 79 78 78 78 77 76 75 74 74 54 60
86 69 75 88 87 86 87 86 85 85 83 82 80 76 70 60 67 67 67 74 78 79 80 80 82 83 83 83 83 83 82 79 79 79 78 78 78 77 76 75 74 73 70
89 87 71 87 88 88 87 86 86 86 85 85 84 81 60 73 74 74 74 74 77 81 82 83 84 84 83 84 83 83 82 82 81 80 79 78 78 77 76 77 76 75 72
92 90 87 87 89 88 87 87 86 86 86 86 86 80 46 78 80 79 79 79 80 81 84 85 85 86 86 85 84 83 82 82 82 81 79 79 79 78 77 76 75 74 72
92 91 88 87 90 74 83 88 87 87 87 87 88 85 75 81 83 83 83 84 83 82 83 84 85 85 87 87 86 85 84 83 83 82 80 79 79 78 77 74 74 73 70
92 92 91 88 89 90 88 86 88 71 86 88 88 88 82 83 84 84 86 86 86 86 85 85 85 85 86 86 87 87 86 85 86 85 82 80 79 72 77 75 74 72 67
91 92 91 88 88 88 89 88 87 88 88 88 88 88 89 87 85 86 86 87 88 87 86 86 86 85 84 84 85 86 73 46 74 66 85 82 79 77 77 74 72 68 60
89 89 92 91 89 89 89 88 87 87 88 88 88 89 89 89 89 87 86 86 86 88 87 87 86 85 85 85 84 70 47 43 58 45 78 81 79 77 77 72 70 63 53

GFSGL_sfc_temp_030.txt.gz
Temp
76 76 73 74 72 73 71 72 73 74 73 72 71 72 71 70 69 67 67 66 64 64 65 65 63 64 63 64 64 63 62 62 59 59 60 61 61 61 62 62 63 62 60
78 75 74 72 70 70 71 72 73 73 71 73 72 73 72 70 70 70 68 69 67 65 64 63 62 64 64 64 63 63 62 62 60 57 59 59 60 61 61 60 60 62 61
80 75 72 70 71 71 72 72 72 71 72 72 72 73 71 70 69 69 69 67 68 67 65 65 64 63 63 63 63 62 62 61 60 59 58 59 60 60 60 60 60 59 60
81 74 72 72 70 72 72 72 74 72 72 71 71 73 71 70 69 70 70 69 69 67 65 65 62 62 63 63 62 62 61 60 60 59 58 58 58 59 59 57 56 58 57
79 74 73 71 72 72 72 72 74 72 73 71 72 70 69 69 69 69 69 68 67 65 64 66 63 61 59 61 62 61 61 60 59 58 58 57 56 56 55 55 55 56 55
76 75 75 73 74 72 71 72 72 72 72 72 70 69 68 68 51 54 60 67 67 65 64 63 62 59 56 55 57 58 61 60 59 58 58 56 56 55 55 56 56 56 52
79 76 76 74 75 72 72 72 70 69 68 67 67 69 66 64 51 51 53 67 65 66 65 65 65 64 61 60 53 54 54 54 58 62 58 58 56 56 57 57 58 59 57
80 77 77 75 76 75 69 70 69 68 67 67 68 67 65 63 52 46 49 67 66 66 66 66 64 64 61 62 61 61 60 61 61 61 61 60 60 59 61 62 62 62 61
81 77 78 78 75 74 71 69 69 67 66 65 67 67 65 63 46 47 58 66 65 65 66 66 65 61 50 51 60 59 59 58 53 51 51 50 50 52 60 64 61 60 58
82 82 79 79 74 73 70 69 69 69 67 67 64 65 59 63 47 47 54 64 63 62 64 62 53 57 48 51 61 60 58 58 59 58 56 53 53 54 52 62 66 61 60
84 84 79 77 74 72 70 69 69 69 68 65 65 63 66 64 58 48 48 65 65 64 64 61 58 47 49 50 55 62 59 61 56 60 60 61 61 61 62 63 65 62 62
84 84 80 77 78 76 71 69 70 68 67 66 64 62 65 65 54 49 48 53 57 67 65 64 55 46 49 51 56 47 48 56 63 62 61 61 61 63 64 63 64 63 64
82 80 78 78 76 75 72 70 70 70 68 67 65 65 64 65 63 49 48 49 52 65 67 52 43 46 46 48 47 47 49 64 64 62 62 63 64 64 64 62 62 63 62
80 78 77 76 74 74 76 73 72 71 71 71 69 66 66 65 64 64 63 61 54 57 52 55 54 54 54 56 54 54 66 66 65 65 64 65 64 64 62 62 59 59 57
79 78 77 78 75 74 75 73 76 64 67 73 71 71 67 66 67 61 63 67 64 60 60 61 63 63 63 63 64 65 67 68 67 67 66 64 64 63 62 62 60 59 57
77 78 78 78 77 77 72 70 44 49 47 46 50 68 72 59 51 51 51 52 49 49 64 65 66 65 64 65 65 66 68 66 69 69 67 66 65 65 64 64 64 61 58
77 77 79 75 77 77 76 75 70 57 45 47 47 52 57 56 48 46 47 46 47 49 69 69 69 69 69 69 69 69 69 70 70 71 69 67 67 67 60 65 65 63 60
79 62 80 80 79 80 78 77 77 72 70 67 50 55 48 46 45 45 43 50 61 58 70 71 70 71 72 72 72 71 70 70 69 69 69 68 66 67 64 64 63 61 60
80 81 81 80 82 77 80 80 80 76 75 73 63 54 45 42 41 42 45 70 69 69 70 72 73 73 72 73 73 73 73 72 71 68 67 67 66 66 64 65 64 51 54
81 67 71 81 82 80 81 81 80 78 75 75 70 68 61 55 61 62 62 69 71 72 72 72 73 73 73 73 72 73 73 67 68 70 70 69 68 69 67 66 66 63 60
84 81 66 81 83 83 82 81 81 81 78 77 75 71 52 67 67 67 66 68 70 74 75 75 76 76 74 74 75 73 72 70 71 71 71 70 69 69 67 66 65 65 62
86 84 81 82 84 84 83 82 81 82 82 80 79 70 45 70 72 71 70 70 71 72 76 75 77 78 78 77 75 74 75 74 72 71 71 71 70 69 67 67 67 63 61
88 86 83 82 82 70 75 83 83 82 82 82 83 72 66 70 73 73 73 73 72 72 74 74 75 78 79 77 77 77 77 76 74 74 72 72 71 69 69 65 65 64 61
90 88 87 83 83 83 83 81 82 68 83 83 82 74 71 72 74 74 75 76 75 75 75 75 76 77 77 77 77 79 79 77 77 76 74 72 71 61 68 66 66 63 58
90 87 87 83 83 81 83 82 81 83 83 83 82 81 74 76 77 78 78 78 78 78 77 77 77 77 77 77 77 78 67 47 70 64 72 72 70 68 69 66 63 59 49
87 87 86 87 84 82 81 82 81 82 83 83 83 83 82 78 79 79 79 79 79 80 79 80 79 78 78 78 78 65 46 42 53 47 72 69 68 68 70 65 62 52 48

GFSGL_sfc_temp_033.txt.gz
Temp
67 66 66 66 66 65 64 64 64 64 64 65 66 65 65 65 65 63 61 63 63 62 63 61 61 61 61 61 61 59 58 58 57 59 60 61 60 61 61 62 63 62 61
67 66 66 68 65 64 64 64 64 68 65 66 66 67 66 64 63 63 63 63 62 62 62 61 61 63 61 61 61 60 59 60 59 57 59 59 59 61 61 61 61 62 61
68 66 67 65 64 63 64 64 64 65 66 69 69 67 66 65 63 64 64 63 64 64 63 62 62 62 60 60 61 60 61 60 60 59 58 59 60 60 60 60 60 59 60
72 66 66 63 64 63 64 64 66 67 68 68 65 66 65 64 65 65 65 64 63 64 63 62 62 61 61 61 61 61 61 60 59 58 58 58 58 59 59 57 56 58 56
69 66 65 64 66 64 64 65 67 69 69 68 64 64 65 65 64 62 66 65 62 62 62 62 61 61 60 61 61 61 60 59 58 57 56 56 56 57 56 56 54 54 53
67 70 66 66 67 64 64 64 65 66 67 65 63 63 60 62 51 53 58 63 63 62 60 60 60 59 57 56 56 57 60 59 58 57 57 55 55 55 56 55 54 53 50
69 72 68 68 66 65 65 64 62 62 62 62 61 61 58 56 47 47 51 64 63 61 60 60 61 61 60 59 53 53 53 54 59 62 57 56 55 56 57 55 56 57 53
70 72 70 72 67 66 65 63 62 61 61 61 60 59 58 54 46 46 50 62 62 63 61 60 61 61 60 62 61 60 60 61 60 61 60 58 58 59 60 60 59 56 57
70 71 72 72 66 65 63 62 62 62 61 61 60 58 57 53 47 46 57 61 61 61 62 61 62 60 50 51 61 59 58 57 52 51 50 50 48 51 59 61 58 56 53
71 74 72 71 66 64 62 62 62 61 60 62 61 59 55 55 48 46 53 61 59 60 60 59 52 56 48 50 61 61 57 57 58 57 55 52 53 51 55 59 61 56 54
74 77 71 67 66 64 62 63 62 61 62 60 60 59 59 56 54 46 51 61 60 60 60 57 54 47 47 48 54 62 58 60 55 58 57 58 57 57 58 59 58 58 56
74 73 69 67 71 67 63 62 62 60 60 59 60 58 59 58 51 48 50 55 55 60 60 57 52 46 46 47 55 45 47 55 61 60 58 57 54 56 58 60 61 61 60
72 70 69 69 68 65 63 62 62 61 60 59 58 57 57 57 55 47 49 50 54 59 60 54 45 45 45 47 46 48 52 62 61 59 57 56 56 58 59 57 58 59 58
70 70 68 68 64 65 66 64 62 61 60 61 60 59 58 57 56 57 58 53 50 52 48 49 52 51 50 53 53 54 62 63 61 59 58 58 58 58 56 56 55 54 53
71 70 68 68 65 63 61 59 63 63 64 64 62 62 59 58 59 56 57 60 59 55 55 55 55 55 56 57 59 57 59 59 59 59 57 57 58 59 57 55 54 53 52
70 70 69 68 66 65 59 56 45 46 45 51 53 61 63 55 48 48 49 47 46 47 57 57 55 56 57 58 58 58 58 59 62 59 58 60 59 59 56 55 55 52 51
71 70 69 68 69 64 62 60 57 55 45 47 51 51 51 51 47 47 47 45 45 48 58 57 58 59 59 60 61 60 61 61 64 63 62 61 60 60 55 58 56 55 53
70 58 70 69 69 68 66 63 62 59 58 58 48 50 47 47 46 45 43 47 52 52 58 59 59 61 61 61 61 61 60 61 63 63 62 62 61 61 56 58 58 55 53
71 71 72 68 72 67 67 66 65 63 61 58 53 48 42 42 44 44 44 63 60 59 60 60 62 64 65 65 64 64 63 62 64 60 61 62 61 59 57 59 59 47 49
74 62 62 72 66 69 69 68 68 65 63 60 58 57 49 48 52 52 53 63 63 64 64 63 62 62 65 67 67 66 64 59 64 62 61 63 63 62 61 60 60 59 54
76 65 61 67 70 71 68 71 67 69 66 62 63 60 47 60 59 59 59 60 64 65 66 65 65 65 62 65 66 68 67 67 65 66 65 62 64 64 63 60 61 59 55
76 74 70 73 69 69 71 66 69 68 70 68 65 61 42 63 62 62 62 62 64 63 62 65 66 66 64 64 67 66 66 65 65 65 66 66 64 64 63 62 57 55 54
77 74 72 73 74 61 62 72 67 70 68 71 70 66 55 63 64 64 64 64 64 65 66 63 61 68 69 65 64 70 70 69 67 64 64 65 65 64 62 60 61 58 53
75 76 74 74 74 74 66 69 72 59 70 69 70 67 62 63 65 66 66 66 66 66 67 68 69 67 65 63 66 67 68 67 67 68 67 65 63 55 64 62 57 58 55
69 72 74 73 73 71 73 66 70 70 70 71 69 64 66 66 66 67 68 68 67 66 66 68 68 69 66 66 67 66 62 46 66 58 67 65 65 61 64 62 57 53 43
64 66 69 71 74 73 73 71 70 71 72 73 71 66 66 67 67 68 69 68 69 69 69 69 69 68 69 69 69 61 46 45 50 45 67 66 64 63 63 61 57 49 45

GFSGL_sfc_temp_036.txt.gz
Temp
63 63 62 62 63 62 62 62 62 62 62 62 63 63 63 63 62 61 60 61 60 60 62 61 60 60 60 58 58 57 58 58 57 58 60 61 60 61 60 61 61 60 60
64 64 63 62 62 62 62 62 62 62 62 63 64 64 64 63 61 62 61 63 62 61 62 61 60 62 60 59 58 57 56 58 60 57 58 59 59 60 60 60 60 62 61
64 63 63 64 61 61 62 62 62 62 62 63 64 64 64 63 62 62 62 62 62 63 62 62 60 60 60 60 60 59 59 60 60 58 57 59 59 59 59 60 59 59 59
65 63 65 61 61 61 62 62 62 64 65 66 63 63 63 62 63 63 63 61 62 63 63 62 62 61 60 60 60 60 60 60 59 58 57 58 59 59 59 57 56 57 54
67 66 61 61 62 62 62 62 63 67 66 65 62 62 61 62 61 60 62 61 62 61 61 62 61 61 60 60 61 60 60 59 58 57 57 57 57 56 56 56 54 53 52
66 68 63 63 63 62 62 63 65 65 64 64 61 60 58 60 49 50 57 61 61 60 59 60 60 59 57 56 56 57 59 59 58 57 57 56 56 56 56 55 53 53 49
67 69 65 64 64 62 62 62 62 61 61 59 58 58 56 55 46 46 51 61 60 58 59 60 61 60 59 58 52 53 53 53 57 60 57 56 56 57 56 55 55 54 51
68 70 66 65 64 63 62 60 60 59 59 58 57 57 55 55 46 46 52 61 60 60 59 61 60 60 59 60 60 59 59 59 59 60 60 59 59 58 59 60 56 53 52
70 70 67 66 63 62 61 59 59 59 58 58 57 56 55 54 45 47 56 60 60 60 61 61 61 60 49 50 60 58 57 55 50 49 49 48 48 49 56 59 55 53 49
68 69 69 66 64 62 60 60 59 59 60 60 57 56 53 55 45 47 55 60 60 59 59 58 52 56 47 49 61 59 57 56 56 55 55 52 54 53 53 57 58 53 50
70 70 67 64 63 62 60 60 59 59 59 59 58 55 56 54 53 47 50 60 59 59 58 57 55 46 46 47 53 60 57 57 53 57 57 58 58 55 56 55 54 57 52
71 69 65 63 67 64 61 59 59 59 60 58 56 55 56 55 49 46 49 52 54 59 57 57 52 45 45 46 51 45 47 54 59 57 58 56 54 55 56 56 55 55 56
68 65 64 64 63 62 61 59 58 57 57 57 57 57 56 56 56 46 48 47 51 58 59 52 44 44 44 46 45 47 50 60 58 56 56 53 53 55 58 57 56 56 55
67 65 64 63 61 61 61 60 59 58 57 58 58 58 57 55 56 57 56 53 48 51 49 50 50 50 50 53 53 56 61 61 59 57 55 54 55 55 55 54 53 53 52
67 66 65 63 63 61 58 58 61 60 60 59 59 61 57 57 57 54 55 57 56 53 52 56 56 56 56 57 59 60 59 58 57 57 56 56 56 56 55 53 53 51 51
66 66 65 64 62 61 57 54 44 48 46 47 51 57 59 53 45 44 46 46 43 45 54 54 55 57 58 58 58 60 58 56 58 58 56 56 57 56 55 53 52 51 51
68 66 65 64 63 58 57 57 57 52 44 43 46 47 50 49 45 44 44 42 42 47 55 54 55 58 58 59 60 60 59 59 58 58 56 57 57 57 52 56 54 52 51
69 56 66 66 65 62 59 58 58 57 56 56 46 46 44 44 44 43 41 45 52 52 56 56 56 57 57 58 58 57 57 57 58 57 57 58 58 59 56 57 57 55 53
69 67 67 67 67 62 62 59 58 58 58 58 51 47 41 40 40 41 42 59 57 56 56 57 57 58 58 58 58 57 58 58 59 59 58 59 59 58 58 58 57 46 47
70 61 62 66 65 65 63 62 60 57 56 58 58 58 48 48 51 51 50 58 58 59 59 58 57 60 60 60 60 61 61 57 59 60 60 61 61 60 60 58 56 54 51
71 65 57 67 66 66 66 64 63 62 60 58 60 55 45 59 58 58 55 57 60 61 61 60 60 59 62 63 63 62 62 62 62 62 61 61 62 60 60 60 58 57 57
69 69 67 69 68 67 66 67 65 64 63 62 60 55 39 61 61 61 60 60 62 63 64 64 63 63 63 62 64 64 64 64 63 62 62 62 62 61 61 60 59 57 55
65 67 69 70 68 58 60 65 67 66 65 64 63 60 51 58 61 61 62 62 62 62 61 62 64 65 64 63 63 65 64 65 67 65 63 62 62 62 60 59 60 58 54
66 65 66 67 69 63 66 66 66 56 67 66 64 63 57 59 62 62 63 63 63 63 64 64 64 64 66 64 63 64 66 67 66 66 66 66 64 59 62 61 61 60 57
64 64 63 63 62 62 64 62 65 66 66 67 67 66 62 61 63 64 64 64 64 64 63 64 66 66 63 63 64 63 58 45 60 56 64 65 63 62 62 62 61 56 47
62 64 63 62 61 64 65 63 63 65 67 69 67 67 64 64 63 64 64 64 64 64 64 65 65 65 66 66 64 58 45 43 48 43 61 63 63 63 62 61 60 57 52

GFSGL_sfc_temp_039.txt.gz
Temp
62 61 61 61 61 61 60 60 60 60 61 61 61 61 61 61 61 59 60 60 59 59 61 60 59 59 58 58 56 57 57 57 57 59 61 61 61 61 61 61 61 61 60
62 61 61 61 61 60 60 61 61 61 61 62 62 62 63 62 60 60 60 61 61 61 61 61 59 60 58 59 57 56 57 58 59 57 59 59 58 58 58 57 59 60 60
61 61 60 60 60 60 60 60 60 60 61 61 62 62 62 62 61 61 61 61 61 62 61 61 60 60 59 59 57 56 57 59 60 59 57 58 57 58 57 58 58 58 59
62 61 60 60 60 60 60 60 60 61 61 62 61 62 62 61 61 61 62 61 62 62 62 62 60 61 60 60 59 59 59 59 59 58 57 57 58 58 58 56 55 55 53
63 61 60 60 61 61 60 60 61 63 63 63 61 60 60 60 59 59 61 61 61 61 61 61 61 60 59 60 61 60 60 59 58 57 56 57 56 56 55 55 53 52 52
62 61 61 61 61 61 61 61 61 63 63 63 60 59 57 58 46 49 56 61 61 60 59 59 59 58 56 55 56 56 59 59 58 57 57 55 56 55 55 54 53 52 49
63 64 62 62 62 61 61 61 61 62 61 58 57 57 56 55 45 46 52 60 58 58 60 60 60 59 59 58 53 53 53 54 57 59 57 57 55 56 56 54 54 53 50
64 65 63 63 61 61 60 59 58 57 57 57 56 56 55 54 45 47 52 59 59 59 61 61 60 59 58 59 59 58 58 59 59 60 60 59 58 58 58 57 54 50 50
65 66 64 63 61 60 59 58 57 57 56 56 56 55 56 55 45 47 56 59 60 60 61 61 60 59 48 50 58 56 54 54 50 50 50 48 47 48 53 57 54 53 49
66 67 65 63 62 60 59 58 57 58 57 57 55 55 52 55 45 47 56 61 59 58 58 58 52 55 47 49 59 57 54 54 55 55 54 51 52 51 51 57 58 54 49
66 66 64 62 61 60 59 58 57 58 58 57 55 54 55 55 53 46 51 60 59 58 58 57 54 45 46 47 52 59 55 57 53 57 56 57 57 57 55 55 54 56 49
66 65 62 60 64 61 59 57 57 57 57 56 55 55 54 56 48 46 47 50 52 59 58 57 51 43 45 46 51 45 46 54 59 58 57 56 56 55 54 52 53 54 53
64 62 61 61 61 60 58 57 56 57 59 57 56 56 56 56 56 45 44 45 49 56 59 49 43 43 44 46 45 45 49 59 59 57 57 55 55 54 55 53 52 53 52
62 61 61 60 59 59 59 58 57 56 56 59 57 57 54 56 57 56 54 53 48 52 49 50 50 51 50 51 51 53 58 58 57 56 54 52 53 54 54 54 53 52 52
63 62 61 60 59 58 59 57 58 58 57 58 59 61 59 56 57 53 53 56 55 52 53 56 57 57 56 56 59 58 58 57 56 54 55 54 54 54 54 53 52 50 50
62 62 61 60 59 58 56 53 44 47 49 49 50 54 57 51 44 45 44 42 42 45 56 56 56 56 57 57 58 58 57 54 56 56 55 56 55 55 54 52 51 51 50
64 62 61 60 59 57 56 56 55 50 43 44 43 45 49 47 42 43 41 41 42 47 54 56 56 57 57 58 59 59 58 56 56 56 56 56 55 55 53 53 52 51 50
64 53 63 62 61 57 56 57 57 55 55 52 44 46 42 41 41 40 40 44 51 50 54 55 57 58 58 59 60 60 59 56 57 57 57 57 56 56 54 54 53 52 50
64 63 65 63 62 59 57 56 57 57 56 54 50 46 41 39 39 39 41 56 55 55 54 55 56 59 60 60 61 61 58 57 57 57 56 56 56 56 55 55 55 44 47
65 56 59 63 59 58 57 56 56 56 55 55 55 54 49 49 52 52 52 55 56 55 55 56 55 56 57 58 58 58 57 54 56 56 57 57 57 57 56 56 55 54 52
66 60 53 63 62 62 60 59 58 56 55 55 57 53 43 57 56 55 56 55 57 58 57 57 56 56 56 57 57 57 57 57 57 57 57 57 57 57 57 57 57 56 56
65 64 61 64 64 63 62 61 59 59 58 57 55 52 37 55 57 57 57 57 59 59 60 59 58 59 59 60 59 58 57 57 56 57 58 58 58 58 59 58 57 56 55
63 63 64 65 65 55 56 62 61 60 60 60 58 54 48 55 58 59 59 59 59 59 60 60 61 60 60 61 62 63 62 62 62 62 60 60 59 59 59 58 58 57 55
62 64 64 65 63 61 61 62 62 53 61 61 60 59 54 56 60 60 61 61 60 60 61 61 62 63 62 61 62 63 64 65 64 64 62 61 61 57 60 59 59 59 57
60 60 60 59 60 58 59 59 61 62 62 63 62 61 59 59 59 61 61 62 61 61 61 62 62 63 61 61 62 62 58 45 59 55 64 63 62 61 61 60 60 57 55
58 61 61 59 59 59 59 59 60 60 60 63 63 62 62 60 61 61 63 62 62 62 63 63 63 63 64 64 63 57 45 43 48 43 61 62 61 61 61 60 59 58 56

GFSGL_sfc_temp_042.txt.gz
Temp
62 62 62 61 62 61 61 61 61 61 61 62 62 63 63 63 63 62 62 62 62 60 62 61 61 61 60 59 60 60 60 61 58 60 61 61 61 60 61 61 62 61 60
62 62 61 61 61 60 61 61 61 62 62 63 64 64 64 64 63 62 62 63 61 61 60 60 60 61 60 59 59 60 60 62 62 58 59 58 58 59 60 60 60 61 60
62 61 60 60 60 60 61 61 62 62 62 63 64 64 64 64 63 63 63 63 62 62 61 60 61 62 60 59 59 60 61 62 62 59 57 58 57 58 57 57 57 59 59
62 61 60 60 61 61 61 61 61 62 63 63 64 64 63 63 63 64 63 63 61 62 62 62 62 62 61 60 60 60 61 61 60 58 56 56 56 57 57 55 54 56 54
62 61 61 61 61 61 61 61 62 63 63 64 63 62 62 62 60 61 63 62 61 61 61 62 61 62 60 60 61 61 61 60 58 57 56 56 56 55 54 55 52 52 52
62 62 61 61 61 61 61 61 62 63 62 63 61 61 60 58 46 48 57 63 62 60 59 60 60 58 57 55 56 57 60 60 58 57 56 55 56 55 55 54 53 52 49
62 63 62 62 62 61 62 62 62 61 61 60 60 60 58 57 45 46 52 61 61 61 60 60 60 59 59 59 54 54 54 54 58 60 57 58 55 56 56 55 55 53 51
63 64 63 63 62 62 61 61 59 60 59 59 58 58 58 55 46 48 50 61 61 61 61 61 60 59 58 59 60 60 60 61 60 63 62 60 59 58 58 56 52 50 51
63 64 64 63 62 61 61 60 59 58 58 58 58 58 58 57 46 47 55 61 61 60 61 60 60 58 48 49 58 56 56 55 51 51 51 48 47 48 52 55 52 52 51
65 65 64 64 62 61 60 59 59 59 59 58 57 58 53 58 46 47 57 61 60 59 59 57 51 54 46 48 57 56 55 55 55 54 53 50 51 50 51 57 56 52 55
66 65 64 63 62 61 60 60 59 59 58 57 57 57 57 56 54 46 51 62 60 59 58 57 53 45 45 46 51 58 54 56 53 56 55 55 55 56 56 56 59 60 57
66 65 63 62 64 62 60 59 59 59 58 56 56 56 57 58 49 46 47 51 52 60 58 56 49 44 45 46 51 45 46 52 58 56 55 55 55 56 56 58 58 59 59
64 63 62 62 62 61 60 58 58 59 59 57 57 56 57 58 56 45 44 45 49 58 59 50 43 43 44 45 44 45 50 60 58 57 56 57 57 58 56 56 57 58 58
63 61 61 61 60 61 61 60 59 59 60 59 58 57 57 57 58 56 55 54 48 51 48 50 50 50 49 50 51 55 62 62 61 59 58 57 56 58 57 59 58 58 59
62 62 61 60 60 60 59 58 60 60 59 61 60 61 58 57 59 53 54 58 57 52 54 56 56 56 55 56 58 59 60 60 59 58 58 58 59 59 59 59 59 58 60
61 62 62 61 60 60 58 56 42 46 46 47 48 56 61 50 44 44 43 42 43 46 56 57 56 56 56 58 58 58 59 56 58 59 59 60 59 60 59 58 60 61 60
62 61 61 60 61 59 59 59 58 52 42 43 43 44 48 47 41 42 41 41 40 49 57 57 56 57 58 59 60 60 59 60 60 61 60 60 61 60 56 60 60 60 60
63 51 63 63 62 60 60 60 61 60 60 58 45 45 42 40 40 40 40 45 54 54 59 58 58 58 59 60 61 62 61 60 61 61 62 61 61 61 58 60 61 61 60
63 62 64 63 62 60 61 60 61 61 61 58 53 47 40 38 38 39 42 60 57 58 58 59 61 61 60 61 61 62 63 60 60 61 61 61 62 62 61 62 62 46 51
64 54 58 63 61 61 60 61 60 60 60 59 58 56 49 50 53 51 52 58 59 60 60 60 60 61 62 63 63 64 61 57 59 61 62 63 63 63 63 62 62 62 58
65 61 51 63 62 63 62 61 61 61 61 60 61 55 43 59 57 58 56 57 60 62 61 61 61 61 61 62 61 60 60 60 61 62 63 62 62 62 63 63 63 63 63
65 64 63 64 64 63 63 63 62 62 62 62 61 53 38 57 61 60 59 59 61 63 64 63 63 63 63 62 62 62 62 62 62 63 63 64 63 63 64 63 63 63 63
63 63 63 64 64 54 59 63 63 62 63 63 62 57 50 56 61 62 61 62 62 63 63 64 64 64 65 64 65 65 64 64 65 65 64 64 64 64 64 63 64 63 63
63 63 64 64 64 63 63 63 63 53 63 63 62 62 59 59 61 62 63 64 63 63 64 64 65 66 65 65 66 66 67 68 68 67 66 65 65 61 65 65 65 64 63
61 61 61 61 61 61 62 63 63 63 63 64 63 63 62 62 62 64 65 65 64 64 64 65 65 66 65 65 67 67 60 45 62 58 68 67 66 65 65 64 64 62 61
54 54 55 57 58 59 59 60 60 61 62 63 64 64 64 63 63 64 65 65 65 65 65 66 66 66 66 67 67 58 45 43 50 43 65 68 66 66 66 65 65 63 63

GFSGL_sfc_temp_045.txt.gz
Temp
74 74 73 74 74 73 73 73 73 72 73 72 72 72 72 72 72 70 70 71 70 65 63 68 68 68 69 66 62 70 70 68 59 61 62 63 62 62 63 64 63 61 61
75 74 74 74 74 72 72 72 73 72 73 73 73 73 73 73 72 71 71 72 69 62 62 61 63 68 67 64 63 68 69 68 68 58 59 59 60 61 61 60 60 61 60
76 74 73 72 72 71 72 72 73 72 73 74 74 73 73 73 72 72 72 71 68 66 63 64 62 65 65 61 66 66 70 68 68 59 58 59 58 59 59 59 58 58 59
75 74 72 72 72 72 72 72 72 73 73 73 74 74 73 73 73 73 72 69 66 63 63 62 62 65 64 61 64 67 70 66 63 58 57 57 57 57 59 56 55 56 54
75 74 72 72 72 72 72 72 72 73 74 74 73 73 72 72 72 72 72 66 64 61 62 63 63 66 62 65 70 68 68 65 59 57 56 56 56 56 54 55 53 53 53
75 74 73 73 72 71 71 71 71 72 72 73 72 72 70 70 47 49 59 69 67 63 60 61 61 60 59 56 57 58 66 65 61 60 57 56 56 56 56 54 53 52 49
75 74 73 73 72 71 72 71 71 70 70 70 70 70 68 68 47 47 52 67 65 63 61 60 61 60 60 62 54 54 55 54 61 63 59 59 57 58 58 55 56 55 52
75 74 74 74 72 72 71 71 70 69 68 68 68 69 68 64 47 48 51 68 66 66 64 61 60 60 60 61 63 64 65 65 65 68 65 63 62 64 63 63 59 53 53
75 74 75 74 72 72 71 69 69 68 68 68 69 68 67 62 47 47 58 66 65 64 63 61 61 59 49 50 62 62 61 58 52 51 52 49 47 49 54 58 55 58 53
76 76 75 75 73 72 70 68 68 68 68 69 68 68 55 61 46 48 58 63 61 60 60 58 52 55 45 48 60 61 57 56 56 56 55 51 52 51 52 60 61 54 59
78 77 75 74 73 72 70 69 68 69 68 67 67 66 61 59 56 47 50 66 63 61 58 57 53 45 45 47 51 62 57 59 54 57 56 55 56 58 57 58 58 60 66
77 76 75 73 74 72 70 69 69 67 64 65 66 63 61 60 49 47 47 51 54 61 58 56 50 44 44 45 52 45 46 53 59 56 55 55 56 56 57 61 63 68 70
76 74 74 74 74 72 70 69 69 67 68 64 64 65 61 60 58 44 45 46 49 59 58 50 43 43 43 45 44 45 49 58 57 56 56 57 61 63 63 63 64 66 64
74 73 73 73 71 72 73 71 69 67 67 66 66 63 61 60 60 61 59 58 48 51 48 50 49 49 50 50 51 55 60 63 61 61 60 59 62 63 63 65 62 62 65
74 73 73 73 73 70 71 71 71 70 66 64 68 68 63 61 62 58 58 61 61 53 54 57 57 56 55 57 59 61 62 62 63 64 61 63 62 62 64 66 68 67 66
73 74 74 74 73 71 68 63 43 48 46 47 48 60 67 52 45 45 44 43 44 45 57 57 56 57 56 58 59 60 62 60 64 68 68 67 66 66 66 68 69 68 67
74 74 74 72 74 71 70 70 68 55 42 41 42 43 46 48 42 41 41 42 42 50 58 57 57 59 59 60 61 65 65 69 70 71 71 70 70 70 65 68 68 69 70
75 56 75 76 76 75 73 73 74 71 68 65 44 47 41 40 40 40 41 47 57 56 61 59 58 63 65 62 64 67 70 69 69 70 71 71 70 70 68 69 70 70 70
76 75 77 77 77 72 75 74 75 74 72 70 57 47 41 38 39 40 43 67 63 63 61 61 62 63 66 69 69 69 70 71 71 71 71 71 71 71 70 72 72 51 57
77 61 67 76 75 75 75 75 74 73 72 71 65 62 51 51 54 52 60 68 68 71 70 68 66 65 65 67 69 69 68 64 65 70 72 72 72 72 72 72 73 72 70
78 74 57 77 76 77 76 75 75 74 74 74 73 64 45 69 65 62 62 66 70 72 72 72 73 73 72 70 68 66 66 68 66 69 72 72 73 72 72 74 74 74 73
77 76 75 78 78 76 77 77 76 76 76 75 75 62 39 70 72 68 68 67 72 74 75 73 73 73 72 72 72 70 69 67 66 66 72 73 73 73 73 73 73 73 73
75 74 74 76 77 62 72 77 77 76 76 77 76 69 57 68 74 74 73 72 72 73 75 74 75 75 76 75 74 74 72 72 73 73 73 74 74 74 74 73 73 73 73
71 74 74 74 74 75 75 75 76 61 76 77 75 75 71 71 73 75 75 76 75 75 75 75 75 76 76 75 75 76 76 77 77 76 75 75 75 70 74 74 74 74 73
64 65 68 70 71 72 73 74 75 76 75 76 76 76 77 75 75 75 76 76 75 75 75 75 76 76 75 75 76 76 65 43 67 62 77 75 75 74 75 75 74 74 73
53 55 57 59 61 66 67 68 68 69 70 72 72 73 74 74 74 73 73 74 75 75 75 75 75 74 74 75 75 60 43 40 54 42 71 76 75 75 75 74 74 74 73

GFSGL_sfc_temp_048.txt.gz
Temp
82 82 81 81 81 81 80 80 79 79 79 79 79 78 78 77 77 75 76 76 74 72 70 65 72 72 69 71 72 73 71 72 61 64 67 65 65 65 66 68 68 65 62
82 81 80 81 81 79 79 79 79 79 80 79 79 79 79 79 77 76 76 76 75 72 64 64 68 72 70 71 71 64 72 72 70 62 61 60 61 63 63 62 62 63 63
83 82 79 79 79 78 78 78 79 78 79 80 79 79 79 79 78 77 76 76 75 72 65 64 66 69 68 72 65 69 70 70 69 63 58 59 59 60 59 59 59 60 60
83 81 79 78 78 78 78 78 78 79 79 79 80 80 80 79 79 78 77 75 68 65 63 63 63 64 68 67 71 70 69 67 68 62 58 57 58 59 58 56 56 58 57
82 81 78 78 79 79 78 78 78 79 80 81 80 80 79 78 81 77 76 72 70 61 62 63 63 64 63 65 68 69 70 71 64 59 57 57 56 56 55 56 54 55 54
81 80 80 79 79 77 77 77 77 78 79 79 78 79 76 80 48 50 59 72 69 63 61 63 65 62 63 56 57 61 69 68 64 60 58 56 56 56 56 55 54 54 51
81 81 80 79 79 78 77 77 77 76 76 76 76 76 75 74 48 49 52 71 68 63 62 62 61 64 64 70 56 55 56 55 62 68 60 59 56 60 61 58 59 58 54
81 81 81 81 79 78 77 77 75 75 74 74 74 75 75 70 48 48 52 71 69 67 63 62 61 62 63 68 71 70 71 72 70 71 64 64 63 64 65 64 61 57 56
82 81 82 81 79 78 77 75 74 74 73 74 75 74 71 66 47 47 55 71 70 67 64 61 62 62 50 51 69 67 68 65 52 51 53 50 50 51 58 64 56 57 55
83 82 83 81 79 77 77 75 74 73 74 76 74 70 59 65 46 48 60 69 68 64 61 59 52 57 46 49 66 65 61 59 60 60 57 53 57 54 53 64 68 62 58
85 83 82 79 79 78 76 75 73 75 74 73 73 67 66 65 60 47 50 70 69 63 62 57 55 45 45 47 55 67 61 63 59 62 59 58 59 61 61 64 64 64 68
85 83 81 79 81 79 75 75 73 73 71 70 70 66 65 64 50 48 48 52 56 64 62 56 52 43 44 45 54 46 47 56 62 60 58 55 59 59 60 61 61 65 72
82 80 80 80 80 78 76 73 72 72 71 70 74 71 63 64 66 46 45 47 51 65 61 49 42 42 43 45 45 46 50 63 62 59 60 62 61 64 63 61 65 72 71
81 80 78 79 77 78 79 78 75 69 68 72 73 74 69 64 68 68 64 61 50 52 49 53 49 49 48 48 50 55 66 64 62 59 60 62 63 65 64 68 66 71 72
80 80 76 79 76 77 76 74 73 72 67 74 72 75 72 69 67 60 60 66 64 54 55 58 58 56 55 56 57 59 61 61 60 62 61 60 63 65 64 68 72 70 68
79 80 81 81 80 80 76 73 43 46 46 47 46 58 72 53 45 45 44 44 45 45 58 59 57 57 57 57 58 58 60 58 62 64 65 65 66 68 68 69 72 70 69
80 81 82 79 82 79 78 74 72 58 42 42 44 43 45 48 43 42 42 42 43 49 60 60 61 59 60 60 60 61 60 63 68 69 68 69 70 70 66 70 73 73 72
82 60 82 84 83 81 80 75 73 73 71 68 46 49 42 41 41 41 42 47 55 55 59 66 67 67 65 63 65 67 69 70 70 70 71 72 70 70 70 73 74 73 74
83 83 85 85 85 79 82 82 78 75 72 71 61 50 44 38 39 41 43 65 61 60 60 61 70 69 70 70 71 71 72 73 72 72 72 72 72 73 75 76 76 55 60
84 65 71 85 83 82 82 82 82 79 76 76 69 67 59 53 56 57 65 68 69 67 65 64 67 72 70 74 75 73 73 70 72 72 72 72 74 78 78 77 78 78 76
86 83 60 85 84 84 83 82 82 82 81 79 77 70 49 72 68 69 72 71 74 73 71 70 72 73 75 72 71 69 70 71 75 76 77 78 78 77 78 79 79 79 79
87 84 84 86 86 85 84 84 83 83 83 82 80 66 39 73 77 75 75 77 79 80 82 80 79 78 78 78 77 76 76 76 77 76 78 80 79 79 79 79 79 79 79
85 84 84 85 86 67 81 85 84 83 83 83 82 73 69 78 81 79 79 79 79 81 82 81 81 81 82 81 81 81 80 79 79 79 77 79 80 79 79 78 79 78 78
84 84 84 83 84 84 83 83 84 67 83 84 82 80 77 79 82 82 82 82 81 82 82 82 82 82 82 82 82 82 82 82 82 82 79 79 79 75 80 80 80 79 79
78 78 80 80 80 81 80 83 83 83 83 84 82 82 82 82 82 83 83 84 83 83 82 83 83 82 81 81 82 82 67 46 70 54 82 81 79 79 80 81 79 79 79
59 59 60 63 71 75 76 74 72 76 79 79 79 79 79 79 79 79 79 80 83 83 82 83 82 77 75 61 53 40 37 39 56 40 74 78 79 80 80 79 79 79 79

GFSGL_sfc_temp_051.txt.gz
Temp
85 85 84 85 83 83 83 83 82 81 82 82 82 78 78 79 79 77 78 78 73 73 73 72 72 71 70 71 72 72 75 74 64 65 66 68 69 71 71 71 72 67 63
86 85 83 83 83 81 81 82 82 81 83 83 83 81 82 81 79 77 76 77 76 73 72 70 68 68 69 70 71 72 71 72 71 65 63 62 63 63 64 64 64 64 63
86 85 82 81 81 80 80 81 82 81 82 83 82 81 81 81 77 78 79 77 74 71 72 68 65 67 65 69 72 72 70 69 69 68 60 60 60 61 59 60 61 61 61
85 83 81 80 80 80 81 80 81 81 81 81 81 83 81 78 78 76 78 75 74 68 64 64 65 67 69 67 72 71 69 66 70 62 59 58 58 58 59 57 57 59 58
84 83 80 81 81 81 80 80 80 80 81 83 80 77 76 79 75 75 77 75 73 68 64 62 65 65 62 61 70 72 69 66 66 60 58 57 56 56 56 57 55 55 56
83 82 82 81 81 79 77 75 76 80 81 78 75 76 78 79 49 52 63 73 72 68 62 62 64 61 62 56 56 57 66 69 63 61 59 56 56 56 57 56 55 54 51
83 83 82 82 76 76 76 74 77 76 75 73 74 77 77 71 50 50 52 71 67 66 64 63 64 69 66 70 57 56 57 57 62 66 61 58 56 59 58 58 61 62 56
83 83 84 83 77 75 74 74 77 77 75 74 76 77 72 68 50 49 50 68 68 67 63 63 63 67 68 72 73 72 72 71 68 69 65 62 63 63 62 63 61 58 57
84 84 85 85 80 75 74 72 76 74 74 74 76 72 72 69 49 49 56 68 68 67 63 63 63 65 52 50 72 68 64 64 53 54 54 51 49 51 58 63 58 56 53
85 86 87 85 78 76 73 74 74 75 74 75 73 74 61 69 48 49 57 67 66 66 63 60 52 60 47 48 67 66 63 61 61 60 57 53 55 53 52 64 60 56 57
88 87 84 80 77 77 73 74 75 75 74 73 72 69 71 68 64 49 48 66 70 64 61 58 56 45 45 49 54 68 63 63 57 63 60 60 59 58 60 61 62 62 60
86 84 81 77 78 75 75 76 76 73 70 71 69 66 69 69 51 49 49 52 59 67 63 59 54 44 44 47 57 47 49 56 65 61 60 58 58 58 60 60 63 63 64
81 79 76 76 77 74 75 75 73 71 69 70 74 71 68 70 69 47 46 48 48 64 63 49 42 42 43 47 45 47 50 65 64 60 59 60 60 62 64 60 61 62 70
75 78 75 79 74 75 75 74 71 69 68 71 72 74 71 70 69 69 65 63 51 55 49 53 49 48 48 52 54 54 65 65 64 63 62 62 63 62 62 61 60 69 70
76 76 77 75 77 74 70 72 74 70 65 72 71 71 73 69 67 61 64 68 64 56 57 59 57 55 54 55 59 61 65 65 65 65 64 63 64 64 64 63 64 69 68
81 75 80 76 80 73 76 73 44 45 43 43 45 58 66 53 44 44 44 45 45 45 61 60 57 56 55 56 57 59 64 60 64 64 65 64 65 64 65 68 68 69 69
81 78 75 72 83 82 79 76 71 58 43 42 43 43 50 46 43 42 42 43 42 49 63 62 58 59 59 58 58 60 59 62 64 64 67 67 68 69 65 69 70 70 69
84 64 85 86 85 84 79 78 74 72 71 69 47 48 42 42 41 41 42 47 56 57 67 66 62 61 61 61 62 60 62 63 63 68 69 68 70 68 68 69 73 73 73
85 86 87 87 86 82 77 81 79 72 71 71 65 53 44 39 40 42 45 61 61 63 69 67 67 65 63 64 66 68 68 69 67 69 70 71 71 69 70 74 76 54 61
86 68 71 87 85 84 82 74 74 76 74 74 69 69 58 54 58 60 64 64 64 63 65 70 70 70 68 70 69 68 68 67 71 71 74 73 73 73 74 76 77 77 75
87 86 60 88 86 86 85 76 72 72 74 77 75 70 49 70 69 69 69 69 69 68 70 68 75 73 75 72 71 70 69 71 72 72 73 75 76 75 77 80 79 79 79
88 86 86 88 88 87 86 86 85 79 78 77 76 65 43 74 76 76 73 73 74 75 78 77 77 78 77 77 78 77 76 75 73 74 76 74 74 76 78 79 80 79 79
89 87 86 88 88 70 84 87 86 86 85 79 78 73 71 74 76 78 79 79 75 75 74 73 71 75 77 78 79 80 79 78 78 79 79 80 81 81 81 79 79 79 79
89 87 86 87 87 87 87 86 86 72 85 84 80 78 79 80 80 81 82 81 80 75 75 76 80 83 83 83 83 82 78 77 78 78 81 79 79 76 80 81 81 80 80
87 86 86 86 85 84 84 79 73 86 86 86 83 82 83 84 78 78 77 77 76 77 79 76 72 72 59 56 54 51 40 36 60 47 77 78 79 77 75 74 75 79 79
71 70 71 71 70 69 72 66 62 69 72 68 72 68 68 68 69 70 70 71 65 59 62 60 57 58 57 51 45 36 35 35 43 35 63 77 78 79 81 80 80 80 80

GFSGL_sfc_temp_054.txt.gz
Temp
81 81 80 80 81 80 79 78 77 77 76 77 77 75 75 74 73 70 71 71 70 69 69 68 68 68 66 66 66 65 64 63 60 61 63 64 64 64 65 64 66 63 62
82 81 80 76 76 78 77 77 77 77 78 78 76 75 76 74 72 72 72 71 70 68 68 67 67 67 66 65 65 65 65 65 62 60 61 61 61 62 63 63 63 63 63
83 77 75 75 76 76 76 76 77 77 77 78 77 75 75 76 72 73 72 72 70 69 68 66 65 65 63 63 64 64 64 65 63 61 58 59 59 60 60 61 61 61 61
78 76 75 76 76 76 76 76 77 78 77 77 77 78 77 74 73 72 72 72 69 69 65 64 63 63 63 63 64 65 64 63 62 59 58 57 57 59 59 57 56 59 58
77 76 76 76 77 77 76 76 76 76 77 78 75 73 73 71 72 72 72 69 67 65 64 63 62 62 62 60 62 65 63 63 60 58 57 56 56 56 56 56 55 55 56
76 76 78 78 78 75 75 75 75 76 76 72 73 73 67 70 49 52 62 69 68 65 63 61 63 60 60 55 57 57 62 63 60 58 57 56 56 56 56 56 55 54 51
79 80 79 78 77 76 75 74 72 72 72 71 70 71 67 62 49 51 54 68 67 65 63 61 62 64 61 63 54 55 56 57 60 62 58 57 56 57 58 56 57 57 53
80 80 80 80 76 73 72 71 72 70 70 69 71 68 67 61 50 51 51 67 66 65 63 62 62 64 65 65 65 64 64 63 62 65 61 60 60 60 61 61 60 55 56
81 81 81 78 73 72 72 71 70 69 68 69 70 69 67 62 49 49 57 66 65 64 63 61 62 63 51 50 65 63 61 58 53 54 53 50 49 51 56 60 56 54 53
82 83 83 79 74 72 72 71 70 69 69 71 69 69 59 63 47 48 57 64 64 63 62 59 51 58 47 48 64 63 59 58 59 58 56 51 54 53 53 61 60 56 55
85 85 80 77 74 73 72 70 68 69 69 68 68 67 67 65 56 49 49 65 65 63 60 58 56 45 47 48 55 62 59 61 56 60 59 58 58 59 59 60 61 61 58
86 81 78 75 77 76 71 69 70 68 67 66 66 64 67 64 53 47 48 51 59 63 62 58 53 43 45 47 53 46 49 56 62 59 58 57 57 57 58 59 59 60 60
79 76 76 76 76 74 70 70 69 67 66 67 67 65 65 65 61 46 47 49 51 63 60 50 43 43 45 47 45 47 52 62 60 57 56 57 59 59 58 58 59 60 62
76 74 75 74 71 72 74 72 68 66 66 67 67 68 65 65 65 63 60 56 49 50 48 50 48 48 49 51 52 55 64 62 60 59 58 59 60 60 58 60 58 60 61
74 73 72 71 70 66 62 60 68 59 62 67 67 68 67 64 64 61 62 64 60 53 54 56 56 55 56 57 58 59 62 62 61 61 59 58 59 60 60 60 59 60 60
72 74 72 72 71 69 69 62 42 43 42 45 46 61 58 53 45 46 45 45 45 45 58 56 54 54 55 57 57 59 60 59 61 62 62 61 60 60 60 61 61 60 60
73 72 75 70 73 72 73 69 63 53 43 41 42 48 50 44 42 43 43 44 43 46 60 57 56 56 57 57 59 60 60 62 63 63 63 63 63 63 59 62 62 63 62
74 60 73 78 73 75 70 69 68 67 65 62 45 46 41 41 41 42 42 47 57 57 63 59 58 58 59 58 59 60 62 62 62 63 63 64 64 64 63 64 65 63 63
74 76 78 79 80 74 76 74 73 72 70 63 57 49 42 39 41 42 44 61 62 64 64 63 61 60 61 60 62 62 63 63 63 65 65 65 65 66 65 66 65 51 56
81 66 64 81 76 78 75 72 74 72 70 67 65 59 53 53 55 56 61 63 64 65 64 65 64 63 63 64 64 63 65 62 64 65 66 66 66 66 66 66 67 67 64
84 78 58 74 83 78 78 71 74 73 72 71 68 60 47 64 62 64 64 65 65 65 68 68 66 67 67 68 67 66 65 65 65 65 66 67 67 67 67 68 69 70 68
81 82 78 77 83 80 75 74 72 75 74 73 67 56 42 65 69 69 69 69 71 70 71 69 70 68 71 71 69 68 68 68 68 68 67 68 67 67 69 70 71 70 69
82 83 81 72 83 65 74 74 74 72 75 72 69 65 63 67 70 70 69 69 69 69 70 70 71 72 74 73 72 71 71 70 70 70 70 71 71 71 71 70 70 71 69
79 83 81 74 81 81 81 80 78 65 76 74 71 70 70 71 72 72 71 70 69 66 65 65 55 54 55 54 54 53 49 47 58 70 71 70 70 64 69 69 70 70 71
73 81 79 67 70 69 68 73 74 78 76 76 75 75 69 65 62 62 60 62 60 56 54 55 55 51 48 46 46 45 37 34 45 40 64 69 69 70 70 70 69 69 69
69 71 69 65 67 65 62 62 65 67 65 63 65 65 64 64 61 60 60 60 59 55 52 49 49 48 47 44 41 36 36 37 44 36 60 69 69 68 67 67 68 69 70

GFSGL_sfc_temp_057.txt.gz
Temp
69 70 70 71 72 75 71 71 71 71 69 70 70 69 69 67 66 65 64 65 64 63 63 63 63 64 62 61 62 61 59 58 56 58 60 62 61 62 63 63 64 62 61
73 72 71 71 71 71 70 71 72 71 71 70 71 70 69 68 66 65 65 66 64 62 63 62 63 64 62 62 61 61 60 59 58 59 59 60 61 62 63 63 62 63 62
75 70 69 69 70 70 68 68 71 71 70 71 70 69 69 68 68 69 66 66 64 64 63 62 62 62 61 62 63 62 60 61 59 59 57 59 59 61 60 61 61 61 61
71 69 68 69 71 71 69 68 67 68 69 69 72 72 72 69 71 69 69 66 65 64 63 61 61 62 62 61 62 62 61 60 58 57 58 57 58 59 59 58 57 59 58
72 70 70 72 72 69 66 67 68 69 69 70 69 68 69 71 71 69 68 64 62 60 60 60 60 62 61 60 62 61 61 58 57 57 57 56 56 57 57 56 55 56 55
73 72 72 73 70 69 67 67 67 68 67 67 66 68 65 66 50 54 62 62 62 60 59 59 60 60 60 54 57 57 61 59 57 58 57 56 56 56 56 56 56 55 52
74 74 72 71 69 67 67 67 66 64 67 67 67 64 59 57 48 51 55 62 61 60 59 59 60 63 60 60 54 55 56 56 59 61 57 57 56 57 57 56 57 55 53
74 74 73 72 69 66 66 65 66 67 66 64 64 63 59 55 49 52 53 62 61 60 60 59 60 61 58 60 59 60 60 60 59 63 60 59 59 60 60 60 57 55 56
74 73 73 71 68 65 64 67 64 64 62 62 63 60 57 55 48 51 54 62 60 59 60 60 61 60 50 49 61 58 57 55 52 53 52 50 48 50 56 59 56 55 53
74 74 73 71 68 69 66 64 63 62 62 63 63 61 55 55 46 48 54 61 59 58 58 58 47 55 46 49 60 58 57 57 57 56 54 50 52 52 52 60 58 55 53
77 75 72 71 67 66 64 63 62 62 62 62 61 60 59 55 52 47 51 62 60 59 58 57 54 45 46 47 52 59 57 59 54 58 58 57 57 57 58 59 59 58 55
74 73 71 68 71 68 64 62 62 62 61 59 60 60 61 57 50 46 46 54 55 59 58 57 51 44 44 47 52 45 47 54 60 58 57 56 57 56 57 58 58 57 60
72 69 69 68 68 66 63 62 62 62 61 59 60 61 59 55 53 44 44 47 52 57 57 51 43 43 44 47 45 46 51 60 59 57 55 56 58 58 58 58 59 60 60
70 68 67 67 66 65 65 63 62 61 60 59 59 60 60 59 55 52 53 52 48 50 48 50 48 48 49 51 52 56 60 60 59 57 57 58 58 58 56 57 56 57 58
70 69 66 64 63 55 52 52 59 56 57 61 60 62 60 59 58 54 55 55 56 51 53 56 56 56 56 56 57 59 59 59 58 58 57 57 57 56 57 55 56 56 57
67 67 67 64 62 60 56 54 42 41 43 47 50 58 57 51 46 46 45 44 44 45 56 55 55 56 56 56 57 57 59 57 59 58 58 59 58 58 56 57 59 57 56
69 67 67 66 66 64 60 57 55 50 42 42 42 45 48 45 43 43 43 44 42 48 56 55 55 55 56 57 58 58 58 59 61 60 59 59 58 59 53 58 58 59 56
70 59 68 69 68 66 65 60 59 58 55 53 43 42 41 41 42 42 42 46 53 52 57 56 56 57 57 58 58 59 59 60 61 61 61 60 59 60 58 59 60 59 56
70 69 70 69 72 65 66 63 62 61 56 53 51 46 41 39 40 41 44 58 56 55 55 58 58 58 59 59 60 61 60 60 60 61 61 58 60 57 57 60 58 48 51
71 59 65 70 66 68 67 62 62 60 56 56 56 52 50 51 54 55 57 59 57 60 57 57 59 60 60 60 60 60 57 55 58 59 59 59 59 58 58 58 59 58 56
69 68 56 71 70 68 68 64 64 62 60 59 55 53 45 57 56 58 59 59 61 60 62 59 58 57 61 61 60 60 57 58 57 59 59 59 59 58 59 59 59 59 62
74 75 73 74 71 70 68 70 65 65 63 59 56 51 39 59 58 57 58 61 62 62 62 64 64 64 63 64 63 62 62 62 62 62 62 62 63 64 63 60 59 59 60
73 72 70 69 74 57 68 66 67 64 64 59 58 57 51 56 63 64 64 64 62 62 60 58 58 57 55 56 56 59 63 63 64 64 63 64 65 63 62 60 61 61 62
69 71 69 68 71 70 68 68 67 57 64 62 60 58 58 59 60 63 57 55 55 53 51 49 49 47 49 49 49 50 48 48 55 60 66 65 65 60 65 64 63 64 63
66 64 65 64 63 62 67 65 68 68 68 66 64 62 60 59 56 55 53 51 49 47 47 47 47 44 45 44 45 46 39 36 47 40 64 63 60 61 61 63 63 62 61
60 59 59 59 57 59 63 60 60 62 61 59 58 56 57 54 52 52 51 48 46 44 43 44 44 43 42 42 40 36 36 38 45 42 55 56 52 53 55 55 55 56 53

GFSGL_sfc_temp_060.txt.gz
Temp
66 65 66 66 68 69 69 68 68 68 68 68 68 68 69 68 66 64 63 63 63 61 61 61 61 61 61 60 60 59 58 57 54 58 60 60 61 62 63 63 63 62 60
67 68 68 68 69 69 68 68 68 67 68 69 69 70 70 69 65 63 63 64 63 61 61 61 61 62 61 60 60 60 58 58 57 58 59 60 60 62 62 62 62 62 61
70 68 68 68 69 69 68 68 68 68 68 69 70 69 69 67 64 64 64 64 62 62 61 60 61 61 59 60 61 61 60 59 58 60 57 59 60 61 60 60 60 60 61
69 68 67 67 67 67 68 69 69 68 69 69 69 69 68 66 66 67 66 63 62 62 62 61 60 60 60 61 61 61 60 58 58 60 58 57 58 59 60 59 57 58 58
68 67 66 67 67 67 66 66 67 69 70 71 67 66 66 67 69 66 64 63 61 60 60 60 60 61 61 60 61 61 60 58 57 58 56 56 56 58 57 57 55 56 56
67 66 68 68 70 69 67 64 65 66 65 65 64 64 63 66 53 57 62 61 60 59 58 58 59 60 59 54 56 57 60 58 58 59 58 57 57 56 57 57 56 56 53
67 69 69 69 69 68 67 65 64 62 62 61 61 62 62 57 48 50 53 61 59 58 58 57 58 61 59 60 54 53 54 53 57 60 59 58 56 57 57 56 57 56 53
68 69 70 71 69 69 66 64 61 61 62 61 60 60 57 53 48 50 54 60 59 59 58 58 58 60 60 60 59 59 59 59 59 60 59 56 58 59 60 59 57 55 56
69 70 71 70 68 65 63 61 61 63 63 62 61 57 55 54 48 49 56 59 58 58 58 59 59 59 48 48 60 58 57 56 51 51 51 49 48 50 56 58 56 55 53
71 71 70 69 67 65 62 62 63 63 62 61 58 57 54 55 46 46 54 59 57 58 58 56 48 56 45 47 58 58 56 55 55 55 53 50 52 51 51 60 59 56 53
73 71 69 68 66 64 62 63 61 62 62 60 58 56 56 56 51 44 49 60 59 59 58 56 54 45 44 45 51 59 56 56 53 56 56 56 56 57 57 58 56 59 54
72 70 68 65 67 65 63 61 61 61 60 59 59 58 55 55 47 45 47 52 54 58 58 57 53 44 43 45 51 44 46 53 58 56 56 55 56 56 57 58 57 58 59
70 66 65 65 65 64 62 60 60 60 59 60 60 58 56 55 53 44 44 46 50 56 58 51 43 42 44 46 44 45 49 58 57 56 55 55 57 58 58 57 58 59 60
66 65 64 63 62 62 63 62 61 59 58 59 59 59 58 55 54 54 53 52 48 51 48 50 49 49 49 49 51 55 60 60 58 56 56 56 57 57 57 56 56 55 57
68 66 63 62 59 54 51 54 60 58 58 59 58 59 57 56 54 51 52 56 55 52 53 56 56 56 56 56 57 58 58 58 57 57 56 56 56 56 55 54 54 56 55
67 65 62 60 57 56 55 51 41 42 43 45 49 56 55 50 44 43 43 43 43 45 56 56 55 56 56 57 56 56 57 55 57 57 57 57 57 56 55 54 56 56 55
67 63 62 60 58 57 58 56 53 46 41 42 47 46 49 46 43 42 42 42 41 48 56 55 56 56 56 57 57 57 56 57 59 58 58 58 58 58 53 55 56 57 54
68 57 63 63 61 58 57 56 55 55 54 52 43 43 41 41 41 41 41 46 54 52 56 55 55 57 57 57 57 57 57 58 58 58 58 58 58 57 53 56 56 56 56
65 66 68 64 62 59 58 57 56 55 54 51 50 45 40 39 40 41 43 57 56 53 56 56 57 57 58 57 58 59 59 59 59 59 59 59 58 55 55 58 56 47 49
67 58 60 65 62 61 59 58 56 55 55 56 55 51 48 51 54 55 56 58 56 56 57 57 58 58 59 59 59 58 58 56 58 59 59 59 59 56 55 58 56 58 57
66 62 51 65 64 63 61 60 58 56 57 57 55 52 44 58 56 57 56 58 56 56 55 56 59 59 59 60 59 59 58 55 58 59 59 57 56 57 57 57 58 57 56
68 70 66 66 66 64 62 61 59 58 57 56 55 52 37 55 55 56 58 59 60 60 60 60 59 60 60 60 61 59 57 57 57 59 60 59 59 59 58 57 56 56 56
67 68 70 66 65 55 62 61 60 59 56 55 55 53 52 55 58 60 60 59 54 52 52 55 55 53 53 54 55 58 61 61 61 62 61 62 62 62 59 58 58 57 57
70 70 66 67 65 67 61 61 58 51 57 57 56 55 55 58 56 53 51 50 49 47 47 47 47 46 47 47 49 50 48 49 54 58 60 62 62 58 61 61 60 60 58
62 62 64 66 65 64 60 61 60 60 60 59 58 56 54 53 51 49 47 47 45 43 44 45 44 44 44 44 44 44 38 37 49 47 57 57 57 56 56 57 54 55 54
56 56 55 58 61 63 63 62 61 60 58 57 54 52 51 49 47 45 45 44 43 43 44 43 43 44 44 42 39 37 37 38 44 41 53 53 52 51 53 52 52 51 50

GFSGL_sfc_temp_063.txt.gz
Temp
64 62 63 63 63 65 66 67 67 67 67 68 68 67 67 66 66 66 64 63 62 61 60 60 60 59 58 58 58 58 57 56 53 58 59 60 62 62 62 62 63 62 60
66 66 64 63 65 66 66 66 67 67 68 68 68 67 67 68 66 65 65 64 62 60 60 60 60 60 59 59 58 58 57 57 56 57 59 59 61 62 61 61 62 62 61
63 63 64 65 66 66 67 66 67 67 67 68 68 67 67 67 66 66 65 62 62 61 60 60 60 59 58 58 58 58 58 58 57 56 57 59 60 61 60 60 60 59 60
64 64 65 66 67 67 67 66 67 68 67 67 68 69 69 68 67 64 63 62 61 61 60 60 60 60 59 58 59 60 59 58 58 58 58 57 59 60 60 58 56 58 57
65 65 66 66 67 68 67 67 67 68 67 68 68 69 67 65 66 63 62 61 60 60 60 60 59 60 60 59 60 60 59 58 58 58 57 56 57 58 58 57 55 56 56
65 64 65 65 66 68 68 67 66 66 66 68 66 65 63 64 53 55 60 60 60 59 58 58 58 59 58 54 55 56 59 58 58 58 55 57 57 56 57 57 56 56 54
65 65 66 65 65 64 64 65 65 64 65 65 61 62 60 58 49 51 54 62 59 58 57 56 57 59 58 59 53 53 54 53 57 60 57 58 57 57 58 56 57 54 54
64 66 66 66 65 65 65 64 63 63 62 60 58 58 57 54 47 47 51 59 58 58 57 57 57 58 58 58 58 59 59 59 59 60 61 58 56 59 60 60 56 55 56
63 66 67 67 65 66 65 61 60 60 58 57 57 56 55 53 46 47 56 58 57 57 57 57 58 58 50 49 59 58 57 56 51 51 51 49 48 49 55 60 56 55 53
62 67 67 67 67 66 62 61 60 61 59 58 56 57 51 53 45 47 55 58 58 58 58 56 49 55 45 46 58 58 56 55 55 54 53 49 51 51 51 60 58 56 53
66 68 67 67 66 64 61 61 61 60 59 58 56 56 56 55 50 45 49 58 59 58 58 56 54 45 44 44 50 58 56 56 53 56 56 56 55 55 55 56 57 59 55
66 66 65 64 65 64 61 61 62 61 59 56 56 56 56 55 47 45 45 51 53 59 58 56 53 43 42 44 50 43 45 52 57 56 55 55 55 56 55 57 56 57 58
63 63 63 63 62 62 61 60 60 59 59 58 58 57 55 55 52 44 44 45 49 56 56 51 44 41 42 44 43 44 48 58 56 55 55 55 56 57 57 56 55 56 57
62 62 62 61 60 61 62 61 60 59 59 59 58 57 56 54 54 54 53 52 47 51 47 49 48 48 48 48 50 54 59 58 57 56 55 55 56 56 56 56 55 56 55
62 62 61 60 60 56 52 55 60 58 58 60 59 57 56 54 54 52 53 56 56 52 53 55 55 54 54 55 57 57 57 57 57 56 56 55 55 56 54 56 56 56 55
62 62 60 58 57 56 55 51 41 42 44 46 48 54 54 48 42 43 45 43 43 45 55 56 55 56 56 56 56 56 56 54 56 57 56 56 55 55 55 55 56 56 55
64 60 59 57 57 58 57 56 53 46 41 41 43 43 47 44 41 41 41 40 42 48 56 56 56 56 56 56 56 56 55 56 57 57 57 56 56 56 54 55 56 56 55
65 52 61 59 58 60 58 57 56 56 56 53 42 43 41 41 40 40 41 46 54 53 56 56 56 57 57 56 56 56 56 56 57 57 56 57 57 56 55 55 54 55 56
62 62 62 59 58 55 56 55 56 56 55 52 49 44 40 39 40 40 42 56 55 55 56 56 57 57 57 57 57 58 58 57 57 57 57 57 57 56 56 57 56 46 49
64 52 56 59 57 57 56 55 56 55 54 55 55 51 47 50 52 53 55 56 53 54 56 56 57 58 58 58 58 58 57 55 57 57 58 58 58 57 56 56 57 57 55
61 59 49 60 59 58 57 55 57 57 57 56 54 51 42 57 56 56 55 55 57 56 57 57 56 58 58 58 58 58 57 57 58 58 58 58 58 57 56 57 57 57 58
63 61 62 62 61 59 58 56 58 59 58 55 54 47 40 55 57 57 56 58 59 58 58 58 58 59 59 60 59 58 58 55 55 57 58 58 57 57 57 56 57 57 57
65 62 60 60 60 51 57 57 57 57 56 55 55 52 54 56 58 58 56 53 51 51 52 55 54 53 53 53 53 57 58 58 59 59 59 59 59 59 58 57 57 56 55
64 65 61 60 60 59 58 57 55 50 56 56 55 55 56 55 53 51 50 48 47 46 47 47 47 47 48 49 49 49 50 51 53 56 58 60 60 56 59 58 58 58 58
63 62 61 61 59 59 57 56 56 56 57 56 56 53 53 50 49 47 45 45 44 43 44 45 43 44 45 45 44 45 37 35 48 44 54 56 54 54 54 53 53 53 52
57 57 60 60 59 59 58 56 56 56 56 53 50 47 48 46 45 44 45 44 43 42 43 43 43 42 42 42 40 37 37 37 44 40 52 51 50 50 51 49 49 48 47

GFSGL_sfc_temp_066.txt.gz
Temp
63 66 67 65 64 64 65 65 66 67 68 68 68 68 69 68 67 67 67 65 66 63 64 64 63 63 62 61 62 61 60 60 59 60 61 62 63 63 63 64 65 63 61
62 64 64 63 64 64 65 66 67 67 68 68 69 69 68 68 67 67 66 66 65 64 63 63 63 62 62 62 62 62 61 61 61 60 60 60 62 63 63 62 63 63 63
61 60 60 62 64 64 65 66 67 68 68 68 69 68 68 68 67 68 67 66 65 64 64 63 63 63 62 62 62 62 61 61 61 61 59 60 61 61 60 60 60 61 62
63 61 62 63 64 65 66 66 67 68 68 68 69 69 69 68 68 67 66 65 64 64 63 63 63 63 63 62 62 62 62 60 59 59 60 59 59 60 60 59 58 59 59
63 63 64 65 66 66 66 67 68 68 68 69 68 69 68 68 67 66 66 65 64 63 63 63 63 62 60 61 62 62 61 60 59 60 59 58 58 58 58 57 56 58 58
63 64 65 66 68 67 68 67 67 68 68 68 68 68 66 66 53 55 62 63 63 62 62 62 62 60 59 53 55 56 59 59 58 60 59 58 58 57 58 57 57 58 56
63 65 66 68 68 68 68 67 67 66 67 66 67 66 64 64 50 51 54 63 62 62 62 61 60 62 60 61 53 53 54 54 57 60 60 59 59 59 58 57 59 58 57
63 66 66 67 67 67 67 66 66 66 65 65 64 64 63 59 47 47 50 63 62 62 62 61 61 61 61 61 60 60 59 59 60 60 63 62 62 62 63 60 57 56 57
63 64 66 66 65 65 65 64 64 63 62 62 62 61 60 55 45 46 56 61 61 60 60 61 61 61 51 47 59 59 58 57 51 52 52 50 48 50 57 61 58 58 55
62 64 67 66 64 64 63 62 63 63 61 60 58 58 53 54 45 46 56 61 59 59 59 58 50 57 46 45 60 58 57 55 56 56 55 51 52 53 51 63 62 59 57
63 64 67 65 64 63 62 62 62 60 59 58 57 57 56 54 51 46 48 61 60 59 59 58 57 45 43 43 50 60 56 56 53 56 57 56 57 57 60 60 63 64 61
62 66 65 63 63 63 62 61 60 59 57 56 56 56 57 56 48 45 46 52 55 61 60 58 55 43 43 44 51 44 45 52 59 57 56 55 56 57 59 61 61 63 64
60 63 62 63 62 63 62 60 59 59 58 58 57 56 55 55 53 44 44 44 48 59 61 53 44 41 42 44 43 44 48 60 57 56 55 56 57 58 57 57 59 62 62
59 60 61 61 61 63 63 62 60 60 59 59 58 57 56 56 56 54 53 52 48 51 48 49 47 47 48 48 50 54 60 60 58 57 56 56 57 57 57 58 58 60 59
59 60 60 60 60 56 51 57 61 60 59 60 59 59 57 56 57 52 54 58 57 52 52 54 54 54 54 55 57 58 59 59 58 57 56 56 56 56 55 57 58 59 59
59 60 60 60 58 56 55 52 41 43 44 45 48 55 55 49 44 44 43 44 43 44 56 55 55 55 55 56 56 56 58 56 58 58 57 57 56 56 55 55 56 58 60
60 60 59 59 59 58 59 57 53 47 41 40 42 43 45 44 42 43 41 41 42 46 57 56 55 56 56 57 57 58 56 57 59 58 58 58 58 56 54 55 56 56 55
61 51 60 60 60 60 60 59 58 57 57 54 42 43 40 40 40 40 40 45 52 53 57 56 56 57 57 57 57 56 57 57 57 58 58 58 57 57 56 55 56 55 56
61 62 61 61 62 59 59 59 59 60 57 53 49 44 40 39 39 40 43 57 56 56 56 57 58 58 58 59 58 59 59 58 58 58 58 59 58 58 57 58 57 47 50
61 49 55 59 58 57 57 57 57 56 55 55 55 50 47 51 53 54 56 56 55 57 56 57 58 58 59 60 61 60 58 57 58 58 58 59 59 59 58 58 59 57 57
60 58 48 60 59 59 58 57 57 57 56 56 53 50 43 57 55 56 56 57 58 58 58 58 58 58 60 60 60 59 59 59 59 59 59 60 60 59 59 57 60 58 57
61 62 62 60 60 58 57 59 58 58 56 54 52 47 39 57 58 58 59 58 58 59 59 60 59 59 59 59 60 59 59 59 59 59 60 59 59 59 60 60 58 57 58
63 62 61 60 59 51 57 58 58 57 56 55 54 55 56 58 59 57 54 51 51 51 53 55 55 54 55 56 59 62 62 61 61 61 60 60 60 60 60 60 60 57 56
64 63 61 59 59 58 57 58 57 50 56 56 57 57 57 55 53 50 47 46 46 46 47 47 48 49 50 51 53 54 56 58 59 62 60 59 60 57 61 59 60 60 61
62 61 61 59 59 58 57 56 57 57 57 57 55 53 51 49 47 45 45 44 43 44 43 43 43 44 43 43 44 44 36 35 49 44 57 58 58 56 55 55 54 53 52
61 61 60 60 59 59 57 57 56 56 54 51 50 48 47 45 44 43 43 44 43 43 42 40 42 42 42 41 39 36 36 37 44 40 54 53 52 51 50 49 49 49 48

GFSGL_sfc_temp_069.txt.gz
Temp
69 71 71 70 74 76 76 76 76 77 77 78 79 78 77 77 77 76 77 77 74 69 68 69 73 73 75 75 74 75 74 74 71 71 69 68 68 67 66 68 66 67 67
68 69 70 70 73 75 75 76 77 77 79 80 80 79 79 78 77 77 76 77 73 67 68 73 73 73 72 72 74 71 73 72 73 68 66 66 66 67 67 65 65 68 67
66 66 66 69 72 73 74 75 77 78 79 80 80 79 79 78 77 78 77 74 70 69 70 74 73 72 71 73 72 72 73 72 72 72 68 66 63 65 63 63 62 64 68
63 60 62 69 71 73 75 75 76 78 79 79 79 80 79 78 78 78 76 71 68 68 70 74 74 73 72 71 71 71 71 71 70 70 69 64 62 62 65 59 59 62 62
58 58 61 71 71 74 75 75 77 77 78 79 78 79 78 77 77 77 72 68 68 68 72 73 73 71 65 68 73 71 71 71 69 70 66 62 60 59 61 62 63 60 61
57 57 61 72 73 74 74 75 75 75 76 77 77 77 75 76 54 57 65 68 70 72 71 72 73 62 62 55 56 59 67 70 65 68 63 66 62 60 61 64 62 60 58
55 57 62 71 73 74 75 74 72 70 71 72 75 75 74 75 52 53 57 71 73 73 73 71 71 72 66 70 55 53 55 55 59 66 61 66 65 60 61 60 59 66 62
54 58 63 69 71 73 72 70 70 69 70 70 72 74 73 71 50 50 53 73 74 73 73 72 71 70 70 70 70 68 69 67 64 65 62 68 67 62 66 63 65 64 62
55 61 63 67 69 69 68 69 69 67 68 69 72 68 67 59 47 47 61 73 72 71 72 72 71 71 52 49 69 64 62 62 51 51 52 53 51 53 61 66 58 60 61
60 65 66 66 68 69 70 68 67 67 68 68 64 70 59 63 44 47 61 75 70 71 69 68 50 63 45 45 68 64 60 58 57 57 57 54 54 55 52 66 62 61 64
61 68 69 68 67 67 66 65 66 65 66 63 61 61 64 64 54 46 50 73 72 69 66 62 63 47 44 44 50 63 59 58 56 58 57 58 61 61 63 67 69 70 67
63 66 70 69 66 65 64 64 64 64 62 61 61 60 61 60 51 46 48 55 58 69 66 63 60 44 42 43 51 45 45 54 60 59 57 57 59 59 61 64 65 68 68
65 63 68 66 64 64 62 62 62 62 61 62 65 62 59 60 58 45 45 47 50 68 69 55 44 42 42 46 43 44 47 62 60 59 57 57 61 64 64 63 67 67 66
62 60 64 62 62 63 63 63 63 62 65 68 66 62 61 61 60 58 57 55 49 58 49 53 50 49 48 50 50 54 66 68 66 61 60 62 62 60 59 65 65 66 64
61 61 61 61 62 58 59 66 68 70 68 68 67 67 62 60 61 55 56 62 66 57 54 56 56 56 55 57 59 64 67 63 63 62 61 59 58 59 58 60 63 66 66
59 61 60 58 58 59 59 55 42 46 46 46 50 62 66 52 44 44 44 44 43 45 59 57 55 56 56 57 59 60 64 60 62 61 60 59 57 57 57 60 63 66 64
60 61 60 57 59 62 63 61 55 47 41 41 43 44 47 46 42 42 42 42 42 48 59 57 56 57 57 58 59 63 64 65 62 61 61 60 59 59 57 60 61 59 61
64 51 60 61 65 69 68 64 61 59 57 56 43 46 42 42 42 41 41 45 54 54 59 57 56 58 58 59 60 64 66 63 61 61 61 63 63 59 58 60 64 60 62
62 63 67 69 70 67 67 64 64 62 61 55 52 45 42 39 40 40 43 61 59 58 57 58 59 60 61 64 65 62 61 61 61 62 62 61 61 61 62 60 59 47 52
64 52 62 68 64 64 64 63 63 61 59 60 61 52 50 53 56 59 62 62 61 59 57 58 60 61 61 62 61 62 62 61 61 61 61 61 61 61 61 60 61 60 58
65 64 52 65 63 62 62 62 63 62 61 61 56 51 43 62 60 62 62 60 59 60 57 59 61 65 62 68 66 66 62 63 62 62 62 61 62 62 64 65 64 63 61
70 70 71 71 64 62 61 62 61 61 59 56 52 47 39 63 65 64 61 61 63 63 62 59 60 62 66 66 65 63 63 63 63 63 63 62 64 64 63 63 62 59 61
74 72 66 62 62 54 62 62 60 59 57 55 54 55 60 63 61 55 52 51 53 53 54 56 56 54 55 57 64 65 64 63 63 63 63 63 63 62 61 61 63 60 61
74 71 63 60 61 62 61 60 58 51 57 57 57 60 60 55 52 50 46 46 47 48 47 47 47 48 49 53 57 57 62 59 65 64 64 62 62 58 63 61 59 60 61
71 70 66 61 60 60 58 58 58 58 58 57 56 54 52 50 46 44 44 43 44 46 46 46 45 45 47 49 50 50 38 36 54 47 59 58 55 54 55 55 55 54 53
71 69 62 61 59 59 60 59 59 57 55 54 52 49 48 47 44 43 43 42 41 40 41 42 42 41 41 40 41 36 36 37 44 40 55 52 51 49 50 49 48 47 48

GFSGL_sfc_temp_072.txt.gz
Temp
75 75 74 74 76 78 78 79 81 81 81 82 82 82 82 82 82 80 83 83 80 80 81 79 77 80 82 83 83 83 82 81 78 76 81 74 71 71 71 71 75 77 75
76 74 73 74 73 73 77 78 81 82 83 84 85 84 85 85 83 82 83 85 81 79 79 78 77 80 77 79 81 79 80 80 79 72 73 70 70 71 72 69 70 74 75
75 74 72 71 70 70 74 77 80 82 83 85 86 86 86 86 84 84 85 84 82 81 79 78 78 78 77 80 79 79 80 79 78 77 71 72 74 72 69 66 67 68 71
72 72 70 70 69 68 74 77 79 82 84 85 86 88 88 88 86 86 85 82 82 81 79 77 80 78 78 77 77 77 78 76 77 76 73 69 71 69 70 65 63 65 65
69 68 68 69 69 68 73 77 79 81 84 86 87 88 88 87 88 85 83 81 80 78 76 78 79 77 70 73 79 77 75 74 74 74 70 70 68 63 65 68 62 62 64
65 66 68 69 66 66 71 77 79 81 83 86 86 87 84 87 57 60 75 80 78 76 74 74 80 67 66 59 60 58 67 72 71 73 69 71 66 64 68 68 68 62 63
63 65 67 67 63 65 71 77 79 80 82 83 84 84 83 84 54 55 59 80 78 77 74 76 79 79 71 76 57 54 56 55 58 70 70 71 66 69 65 66 67 67 68
63 65 67 63 61 63 71 78 79 80 80 81 82 83 81 79 51 52 56 78 76 76 79 78 77 77 75 75 76 74 74 73 71 74 70 67 68 71 67 67 65 64 65
61 64 63 60 60 61 72 78 79 79 78 80 82 81 77 70 49 51 64 77 76 78 79 79 77 77 56 51 74 71 73 69 55 50 51 51 50 53 60 66 61 62 61
63 62 59 57 59 60 71 73 74 74 75 79 80 80 68 71 47 51 65 79 77 79 77 76 52 67 47 47 72 70 66 65 64 64 65 57 55 59 52 67 64 58 58
59 59 57 56 60 65 68 69 69 71 72 72 72 73 73 68 55 49 49 80 80 79 78 75 76 47 44 45 48 69 66 64 56 60 60 62 64 63 64 67 64 62 59
59 56 57 59 64 66 69 70 70 69 66 66 65 67 66 65 53 49 47 56 63 79 76 75 70 45 44 44 53 46 46 54 64 61 58 57 58 59 63 66 69 69 67
60 61 62 66 69 66 66 65 65 67 65 65 68 62 63 67 66 46 45 48 52 72 78 61 45 42 42 46 44 44 47 62 62 59 57 57 60 60 63 64 67 67 68
59 60 68 66 65 64 65 64 64 65 66 68 66 63 66 70 68 67 67 67 53 64 54 61 56 53 49 57 53 53 65 66 64 66 65 59 61 63 62 65 65 65 66
59 62 61 64 63 61 60 62 64 68 64 64 67 71 73 73 72 64 65 73 75 65 63 63 60 58 58 59 59 65 67 68 66 66 66 64 61 64 66 70 67 69 69
58 60 60 58 57 58 58 55 44 50 48 48 55 70 76 55 46 46 44 44 45 46 68 64 59 58 57 58 62 66 69 65 68 68 65 64 62 60 62 63 63 67 66
59 59 58 58 60 60 61 60 57 52 43 41 43 47 50 49 44 43 42 42 43 47 70 64 59 58 58 65 64 67 68 69 69 69 66 63 61 60 59 65 69 70 68
58 51 60 61 61 62 62 64 68 68 63 58 45 51 42 42 41 41 42 47 57 59 66 61 58 59 59 66 66 71 69 68 67 65 65 64 62 61 61 61 65 62 59
59 61 61 63 63 63 71 72 73 72 70 62 55 48 43 40 41 42 44 67 63 62 62 61 59 61 62 64 68 70 70 70 66 64 65 65 64 61 61 62 63 48 53
61 56 59 65 69 71 71 69 69 69 70 70 66 54 54 56 59 59 64 64 64 61 59 61 62 63 66 67 67 67 68 63 66 66 66 67 64 64 65 63 65 62 62
65 65 54 71 73 70 68 68 71 72 72 71 65 62 49 72 68 64 64 65 64 61 59 61 65 68 68 68 67 66 67 69 70 68 69 68 66 64 66 66 63 64 65
65 70 73 76 73 68 69 71 71 71 72 65 59 59 39 70 69 66 64 62 63 65 63 62 63 66 68 69 70 70 71 70 68 68 68 67 67 66 67 66 66 65 66
71 69 70 71 72 59 69 71 70 70 70 61 59 57 69 66 66 61 58 58 56 56 55 57 58 59 67 69 73 72 70 70 69 68 68 67 68 69 67 63 63 61 64
72 73 71 71 72 69 66 65 66 59 65 58 58 60 62 64 54 50 50 50 52 50 51 49 51 52 53 64 67 65 64 64 66 67 68 66 65 59 61 59 59 58 58
76 74 73 69 64 63 62 62 61 60 59 57 57 56 57 55 49 44 46 47 50 47 47 48 48 50 50 55 60 57 41 37 62 50 63 56 54 53 55 54 52 52 54
76 71 65 64 64 63 61 59 58 57 55 53 55 55 53 49 48 44 42 45 49 47 44 43 45 46 47 44 42 36 35 37 47 40 55 54 52 48 48 49 49 48 48

GFSGL_sfc_temp_075.txt.gz
Temp
76 76 77 77 77 77 77 78 79 80 80 80 83 85 83 84 85 82 82 81 79 80 81 81 79 82 83 78 76 84 84 83 72 80 79 76 74 74 76 76 75 77 73
77 77 76 76 76 75 75 75 77 78 81 82 81 81 83 84 83 81 81 84 82 81 81 79 80 82 79 80 79 80 82 80 77 75 77 75 72 74 73 72 71 76 75
76 76 74 75 74 74 74 74 75 77 81 82 85 84 84 85 84 83 83 86 85 84 80 81 81 81 78 77 78 81 81 80 80 77 72 74 74 72 69 70 71 69 72
75 73 72 72 73 74 74 74 74 76 81 82 84 86 88 87 87 85 86 86 85 84 83 81 81 81 79 76 76 78 79 76 78 72 70 71 72 71 68 69 64 69 69
72 71 69 71 72 73 74 74 74 75 81 82 85 86 88 88 90 86 87 86 84 83 81 82 81 78 70 73 80 78 76 77 75 70 70 70 71 70 67 69 68 68 66
69 68 68 69 70 71 72 74 72 74 79 81 83 86 85 90 68 65 78 84 83 81 79 80 79 70 68 63 59 59 66 73 71 70 67 65 68 70 68 68 68 65 61
68 68 66 67 68 70 73 73 72 72 76 79 81 85 85 86 57 58 62 83 81 80 77 78 79 81 73 78 58 56 57 56 59 71 69 69 65 71 70 66 68 66 69
67 67 66 63 65 68 70 70 71 72 75 78 81 84 85 84 54 55 59 82 80 78 79 78 77 76 76 76 76 74 75 75 71 74 74 72 71 71 71 68 69 66 69
65 63 59 58 59 65 67 69 70 72 74 76 79 81 81 75 51 54 66 80 77 78 79 79 78 79 59 53 76 74 73 68 54 51 50 50 50 51 58 67 65 64 63
63 60 58 59 61 62 65 66 70 70 74 77 78 80 72 74 49 53 68 82 76 78 77 74 52 71 49 50 74 72 66 68 70 68 67 60 57 56 53 67 67 64 65
60 57 58 60 60 63 64 60 66 67 73 75 77 77 78 72 64 52 51 81 79 78 79 76 76 47 46 47 50 72 68 67 61 66 65 63 66 65 65 66 66 66 59
64 64 62 63 64 63 60 59 61 66 69 73 74 72 75 73 58 48 48 58 65 79 77 74 63 45 44 45 54 46 47 57 64 62 60 61 60 62 65 67 66 65 64
63 61 58 59 59 57 57 57 61 67 67 67 69 67 66 71 68 47 48 49 52 74 74 55 45 43 44 49 45 45 48 66 63 61 59 58 58 60 62 64 65 63 64
59 56 55 54 56 59 58 60 66 65 65 67 67 66 67 69 69 72 65 64 56 63 55 64 57 55 54 59 57 55 68 66 62 66 65 65 61 60 60 63 66 68 68
58 55 54 56 56 56 59 64 66 67 70 75 75 72 69 67 69 65 68 76 77 66 67 67 64 64 63 63 64 65 65 66 65 65 67 65 61 59 61 67 67 68 66
57 57 56 58 59 59 58 53 44 46 47 49 56 68 72 57 48 46 44 45 48 50 70 69 61 61 63 63 64 66 66 62 65 64 63 63 66 61 66 65 64 64 64
60 56 57 58 59 60 60 58 55 51 45 44 47 49 52 50 43 42 43 44 45 50 70 65 62 61 63 66 66 68 68 70 67 66 66 66 67 66 64 66 66 65 68
59 50 56 61 61 61 62 64 70 68 65 61 45 48 43 43 42 41 43 51 62 62 70 66 63 62 63 64 67 69 66 70 70 68 68 68 66 63 62 65 69 67 68
60 58 61 62 63 63 66 71 72 72 66 58 54 47 43 40 41 42 46 71 69 68 67 65 65 65 64 64 69 66 68 69 68 68 66 65 64 63 63 64 64 49 54
61 51 55 64 66 68 63 68 72 71 69 67 60 53 51 54 56 59 65 68 68 68 66 65 64 62 62 71 70 68 68 70 69 68 67 66 66 66 64 65 67 61 65
64 60 50 66 67 68 65 70 75 74 72 68 61 57 46 64 62 66 68 65 68 67 66 66 66 66 67 70 71 70 72 71 71 68 69 68 68 66 66 65 64 65 65
62 63 65 68 68 71 74 75 74 72 71 66 66 63 40 71 69 67 66 69 70 66 65 67 67 68 70 71 72 71 71 71 69 72 67 68 69 67 67 66 65 62 61
69 72 68 70 69 61 68 72 71 68 69 68 70 70 71 68 64 61 59 61 60 58 58 61 61 68 69 69 74 74 71 73 73 73 71 70 68 67 69 68 66 62 63
71 71 71 72 71 69 70 68 67 62 71 69 66 63 62 64 61 57 55 53 52 50 51 52 53 55 68 69 71 71 65 69 71 70 70 69 68 65 66 63 59 57 58
70 69 67 68 68 68 67 67 69 69 66 61 61 60 60 54 51 50 52 50 49 48 48 49 52 53 55 65 65 63 41 38 57 50 62 61 57 59 55 52 52 52 52
73 70 70 66 64 64 64 63 61 60 59 59 60 60 55 47 46 46 48 46 45 45 44 44 47 47 45 47 43 36 36 38 51 41 55 53 51 49 48 48 50 48 48

GFSGL_sfc_temp_078.txt.gz
Temp
74 73 72 72 73 72 71 72 72 72 73 75 75 75 75 77 78 77 76 77 77 77 76 74 74 75 76 74 74 73 71 72 68 67 69 70 69 69 68 69 68 68 66
73 72 72 72 72 70 70 71 72 71 73 74 75 76 76 77 78 78 78 79 78 75 75 75 75 77 75 74 73 71 71 74 69 66 66 66 67 67 67 66 67 70 68
74 72 69 69 69 68 69 70 71 72 72 72 74 76 77 78 77 79 80 79 78 76 76 76 76 75 73 72 72 71 72 73 71 68 65 67 66 67 66 66 66 66 67
75 72 68 67 67 67 68 69 69 71 72 72 72 74 77 79 79 80 80 78 77 77 77 77 76 76 74 73 71 70 70 70 69 66 66 65 65 65 65 62 61 63 64
73 71 67 67 67 66 66 67 68 69 71 72 72 73 76 78 82 78 79 77 76 77 77 77 76 74 70 71 70 70 69 68 68 66 63 63 63 62 62 63 61 63 63
71 70 70 68 67 65 64 65 66 67 69 70 70 72 73 80 68 63 73 77 77 77 76 76 76 68 66 61 59 61 67 69 67 65 64 62 63 63 63 62 62 60 58
70 71 70 68 67 66 66 65 64 64 67 68 69 70 72 75 62 56 61 78 77 77 75 74 75 76 67 65 57 59 56 58 61 67 64 64 63 65 63 62 62 61 59
69 70 70 69 67 66 64 61 60 63 65 67 68 70 71 76 60 52 59 78 76 76 75 75 73 71 71 71 68 68 67 65 63 67 67 66 66 66 65 64 64 63 62
67 68 68 67 64 63 60 58 58 60 63 66 68 69 70 74 52 52 61 76 74 75 76 75 74 71 57 57 70 67 67 62 52 51 50 50 50 49 56 63 61 60 59
67 67 65 64 61 59 58 57 58 61 63 66 67 69 68 73 48 50 67 75 73 74 74 72 59 70 50 51 69 68 65 63 63 62 61 56 56 55 53 63 62 60 58
66 65 62 61 59 57 54 54 56 59 62 63 64 67 70 71 59 50 59 74 75 74 73 70 67 49 49 47 55 68 64 65 61 63 63 63 62 61 63 63 64 62 59
63 61 60 58 57 56 53 54 57 59 60 60 61 64 69 68 57 50 52 64 64 74 72 72 58 45 45 46 55 45 48 58 65 63 61 60 61 60 62 63 62 63 63
58 57 58 58 58 56 57 58 57 59 59 59 60 64 67 66 58 51 49 53 57 72 71 56 44 43 44 47 44 45 49 64 62 60 58 58 59 59 61 61 62 63 63
55 55 55 54 55 57 58 58 58 58 58 58 60 64 65 63 61 63 60 58 51 53 51 54 54 53 54 52 53 54 65 64 62 61 60 61 60 59 58 60 60 60 60
54 53 53 53 54 55 56 56 58 59 57 61 64 66 64 64 67 60 63 69 68 61 59 62 62 63 60 61 61 63 65 63 61 61 61 60 59 59 58 59 59 60 60
52 52 52 53 54 56 57 57 44 47 49 49 52 63 67 56 50 49 49 48 49 51 65 63 61 60 60 61 61 62 63 60 64 61 61 61 61 59 58 59 61 60 59
53 52 52 53 56 57 56 55 52 48 44 44 48 49 50 46 44 45 47 47 48 54 67 62 60 60 61 62 63 63 63 63 64 63 61 61 61 61 57 61 61 61 61
57 50 56 59 59 59 58 60 62 61 59 55 45 48 43 42 43 44 45 51 62 62 67 63 60 61 63 64 65 64 65 65 64 63 62 62 62 62 60 61 62 61 60
59 58 57 60 62 60 63 63 63 61 55 52 51 47 43 42 43 44 49 68 67 67 65 64 62 63 64 65 64 65 66 66 65 64 63 63 62 62 60 60 60 45 53
59 50 51 61 61 63 64 65 62 61 60 59 56 53 54 58 62 64 68 69 67 66 63 63 62 64 65 65 64 62 62 63 63 63 63 62 62 61 60 60 61 61 60
61 61 47 65 63 66 66 68 67 66 61 58 56 57 46 64 65 66 66 65 66 66 64 62 65 66 66 65 65 65 64 65 65 65 64 62 62 61 61 61 61 61 60
59 60 63 65 65 65 66 67 68 66 62 59 59 54 41 67 66 64 64 63 65 65 66 66 66 66 67 66 68 65 66 67 65 63 63 63 63 63 63 63 60 61 60
61 64 62 62 63 54 63 68 67 66 64 63 64 65 64 63 59 58 56 56 57 57 61 62 64 65 66 63 65 68 67 65 66 67 65 63 64 63 63 61 61 59 58
65 63 63 63 64 65 67 69 67 59 67 67 64 62 61 58 54 52 51 51 50 51 53 54 52 56 59 62 62 61 59 63 67 66 65 63 61 59 58 56 55 53 54
66 62 66 66 66 66 67 67 67 65 64 63 61 59 57 53 50 48 48 47 46 46 47 49 48 49 49 51 52 53 41 41 54 47 57 55 54 53 51 50 50 49 50
64 68 68 67 65 69 67 63 61 62 61 59 56 53 51 49 48 45 44 43 42 42 43 43 43 44 44 44 42 37 37 39 45 41 53 51 50 48 48 47 47 47 47

GFSGL_sfc_temp_081.txt.gz
Temp
64 64 63 64 65 64 64 64 65 65 67 67 68 68 69 69 68 71 71 72 71 71 73 73 73 75 71 69 68 67 65 63 62 65 64 64 64 64 65 64 65 64 63
64 64 63 62 62 63 62 63 64 65 66 67 68 69 70 71 69 68 72 75 72 72 73 73 74 73 71 70 68 67 65 64 63 62 62 63 63 64 63 63 64 67 64
65 63 61 61 61 59 61 62 63 64 64 64 68 68 70 70 71 72 71 75 75 73 74 72 73 71 70 71 67 65 64 67 65 62 61 62 61 63 62 62 62 62 65
65 62 60 59 60 59 59 60 62 64 65 66 67 69 70 70 71 72 75 73 74 75 74 73 71 72 71 70 67 65 65 65 64 62 61 60 60 61 61 59 58 60 60
63 61 59 59 59 60 59 59 61 61 64 66 66 67 68 70 72 72 73 74 74 74 71 73 73 72 68 69 68 65 64 62 62 60 59 59 59 59 59 59 58 58 59
61 61 61 60 60 58 58 58 58 60 61 63 64 65 66 70 61 57 61 73 75 72 71 72 73 66 65 61 62 64 65 63 61 60 58 58 58 59 59 59 58 57 58
61 62 62 61 61 60 60 58 58 57 57 57 61 63 64 67 57 54 56 64 70 72 71 71 70 72 65 66 58 57 58 58 63 62 60 60 59 60 60 59 58 57 57
60 61 62 62 61 60 58 56 54 53 53 56 59 61 62 66 55 52 54 63 67 72 71 71 69 64 65 64 66 65 62 62 61 65 63 62 62 62 62 61 60 58 59
59 60 62 63 59 57 56 54 53 51 53 55 58 58 60 63 55 53 55 64 66 71 72 70 68 66 54 57 65 63 60 57 51 50 51 50 49 50 56 60 58 58 57
61 62 63 63 58 54 54 53 53 52 55 57 57 59 58 61 56 51 54 64 65 69 69 66 58 65 50 52 64 63 59 57 57 57 56 54 53 53 51 60 59 59 57
58 58 59 56 54 53 52 52 53 54 55 54 55 57 59 60 62 52 51 61 67 68 68 65 64 51 49 49 57 63 60 59 56 58 58 57 57 57 59 60 60 60 59
58 58 56 53 56 58 51 52 52 54 53 51 52 54 58 60 56 54 49 48 60 68 66 65 58 49 47 47 54 47 49 55 59 58 57 56 56 56 59 60 60 61 61
55 54 55 56 57 55 53 52 51 52 51 52 54 55 56 58 60 52 47 47 52 66 66 56 46 45 45 48 45 47 50 59 57 56 57 57 57 57 58 60 61 61 61
53 53 53 52 52 53 54 54 53 53 53 54 54 55 55 57 61 57 55 55 52 54 50 50 51 51 51 50 51 53 59 58 57 56 56 58 58 56 56 59 59 59 58
52 52 51 51 51 51 52 53 54 56 56 55 55 55 55 57 61 57 58 61 60 56 56 58 58 57 57 57 56 57 58 58 57 56 56 55 56 57 56 58 59 59 58
48 49 49 50 50 51 51 52 46 44 43 44 47 53 59 54 48 48 50 48 47 49 59 58 57 57 57 57 56 56 59 56 57 57 58 56 57 57 55 57 58 57 56
48 49 50 49 50 50 51 50 49 48 43 44 43 45 43 49 46 47 47 46 46 53 59 58 58 57 58 60 58 56 57 57 58 59 59 59 58 58 54 57 58 56 56
49 47 49 50 53 53 52 52 53 53 52 50 43 48 44 46 47 46 45 50 58 59 59 57 57 57 59 60 59 58 57 58 57 57 58 59 59 58 55 57 57 57 58
50 52 55 57 54 54 55 55 56 56 55 49 50 47 44 43 45 45 48 62 60 57 57 57 58 61 61 60 59 59 59 58 57 57 57 57 58 59 57 58 56 44 50
52 48 50 58 59 59 58 58 56 55 56 57 57 53 53 56 60 61 61 62 60 58 58 57 60 61 58 59 59 58 57 57 58 60 60 59 59 59 57 58 58 57 57
51 54 47 61 61 60 59 59 58 57 57 57 57 56 46 61 61 61 61 61 59 58 58 58 62 62 59 59 59 58 60 58 57 58 58 59 59 58 59 59 58 58 58
49 54 60 62 62 62 60 59 58 58 58 58 57 52 43 62 61 60 62 62 62 60 61 62 61 61 59 62 62 61 59 58 58 57 60 60 60 60 59 59 58 58 57
50 54 60 61 61 54 58 59 59 59 59 60 60 60 58 57 57 56 55 56 56 56 56 57 59 59 60 60 61 61 62 59 59 59 60 60 60 60 59 58 58 57 56
51 59 60 61 61 60 60 59 59 54 61 59 57 56 54 52 51 50 50 51 51 51 50 51 53 57 57 57 57 56 61 62 61 59 59 60 58 54 55 54 53 53 51
54 61 61 60 61 61 61 62 61 59 57 55 52 51 50 48 47 46 46 46 47 46 46 47 48 49 51 52 52 50 41 40 52 46 56 54 52 51 50 49 49 49 49
60 61 60 60 60 61 59 57 56 53 51 50 49 48 46 45 44 43 43 42 42 42 42 42 43 43 44 44 43 38 38 39 44 41 52 50 49 48 48 47 47 46 45

GFSGL_sfc_temp_084.txt.gz
Temp
61 61 60 60 61 61 60 60 61 62 64 65 66 67 67 67 67 65 66 68 69 69 69 69 69 70 70 70 71 68 65 62 63 61 63 63 62 63 64 64 64 63 62
65 62 60 59 59 58 59 60 60 60 62 63 65 65 66 66 66 66 66 69 69 69 69 68 70 71 70 71 69 68 67 64 62 61 62 61 61 61 62 62 63 65 63
61 61 59 58 58 58 58 58 59 60 60 61 62 63 64 66 67 66 67 68 69 69 71 69 71 71 70 71 70 68 66 65 62 61 60 60 60 60 60 60 61 61 63
63 61 59 59 58 58 58 58 58 59 59 59 60 62 64 64 66 67 68 67 68 69 70 72 72 71 71 71 69 68 64 63 62 60 59 59 59 60 60 58 58 59 59
63 62 60 60 59 58 57 57 58 58 59 60 60 61 61 62 66 64 66 66 66 67 68 71 73 71 67 68 70 67 64 62 60 59 58 58 58 58 58 58 58 57 58
59 58 60 61 60 58 58 56 56 57 57 58 58 59 59 64 57 54 57 64 66 65 65 68 71 65 64 60 60 60 64 63 61 59 57 57 57 58 58 58 56 55 55
57 60 59 58 58 57 58 57 56 55 55 54 56 56 57 59 53 51 53 60 61 62 63 64 68 71 65 69 57 57 58 56 60 61 59 58 58 59 59 57 56 56 55
59 58 59 59 59 59 58 58 57 56 55 55 55 55 55 58 52 50 51 56 59 61 63 64 66 70 66 67 63 64 63 63 61 63 62 62 61 60 61 60 59 57 57
57 58 60 60 59 58 57 58 57 52 50 51 53 54 53 55 50 49 50 58 59 60 64 65 67 69 57 51 65 63 60 57 51 50 53 51 49 50 56 59 57 56 55
54 56 57 57 57 58 58 57 55 54 55 55 55 53 53 53 50 48 49 58 58 60 63 65 56 64 50 51 64 62 60 58 58 57 56 52 52 52 50 60 58 56 55
57 56 56 56 54 52 53 54 52 53 53 51 53 54 52 52 53 49 47 56 59 60 62 64 64 50 50 48 53 62 60 58 56 57 56 56 56 56 57 57 58 58 56
55 55 55 55 56 58 51 49 49 49 49 49 49 50 53 51 50 50 47 46 53 59 60 64 62 49 49 47 53 49 48 53 58 56 55 56 55 55 56 58 59 60 61
53 52 53 54 55 55 51 51 49 49 49 50 50 50 51 53 53 50 47 46 46 52 60 60 51 48 46 49 48 46 49 59 57 57 57 56 55 56 58 60 60 60 60
51 51 52 51 51 52 54 55 54 53 52 50 50 50 52 54 55 56 56 56 48 50 52 53 52 52 52 52 51 55 60 59 58 58 58 55 58 58 57 58 58 58 58
49 50 49 50 50 50 52 53 53 55 53 53 53 53 53 52 54 52 53 59 58 55 54 55 58 58 58 58 58 57 57 57 55 54 54 57 57 56 57 58 57 58 57
47 47 47 47 48 49 49 49 46 47 47 45 47 51 54 50 47 43 44 47 46 46 58 59 58 59 58 58 58 57 56 54 55 56 55 55 55 55 56 57 56 57 56
46 46 46 46 47 47 48 48 48 47 44 43 42 44 44 49 42 42 43 42 44 48 59 59 58 59 58 59 57 59 58 56 56 56 56 55 55 54 53 56 57 56 55
47 44 46 47 48 48 48 48 48 49 49 49 43 43 42 41 41 42 41 47 55 57 60 58 58 58 58 57 56 56 56 57 57 56 56 58 57 57 54 55 56 57 55
47 47 49 50 51 50 51 50 49 50 50 51 51 42 42 40 41 43 44 60 60 58 58 58 57 57 57 58 57 57 57 57 56 57 56 57 58 57 55 55 55 45 49
48 45 44 50 54 52 51 50 50 50 51 53 52 49 46 47 48 52 60 60 59 58 57 57 58 58 58 58 58 58 56 55 56 56 56 56 58 59 55 56 57 56 56
44 45 42 56 57 56 53 52 53 53 54 54 53 52 47 58 59 60 59 58 57 57 57 58 59 60 60 59 58 58 57 57 57 60 57 58 58 57 58 57 57 57 57
43 45 51 59 58 58 57 57 56 56 56 56 55 48 44 60 60 59 58 57 57 58 59 61 62 60 61 59 59 58 57 56 55 56 56 59 59 58 58 57 57 57 56
45 49 58 58 57 52 58 59 58 58 58 58 58 58 59 58 58 58 58 57 56 56 59 61 60 58 60 60 61 62 60 57 57 57 57 58 59 58 58 57 57 56 55
46 52 59 58 58 58 58 58 56 51 56 56 55 54 54 54 53 52 52 52 52 51 53 56 57 57 57 56 56 57 58 57 58 58 58 58 56 54 55 54 53 51 50
52 59 59 59 58 58 57 56 55 55 54 53 51 50 50 49 48 48 48 48 48 47 47 49 51 53 53 54 53 51 40 40 51 46 55 54 51 50 51 50 49 49 49
60 60 59 58 57 57 55 53 52 51 49 48 47 47 46 45 44 44 44 44 44 44 44 44 45 46 46 45 43 38 38 39 45 42 52 51 49 47 47 46 46 44 44

GFSGL_sfc_temp_087.txt.gz
Temp
58 58 58 58 59 59 58 59 60 60 61 62 63 63 63 64 64 64 63 64 66 66 67 68 67 68 67 66 67 66 66 66 64 67 63 64 64 63 63 63 64 63 62
62 58 60 58 58 57 58 58 58 59 60 61 62 63 63 64 63 63 63 64 65 64 67 67 67 69 67 67 67 68 67 67 65 64 62 61 62 61 62 61 62 64 63
60 57 56 58 56 56 57 57 57 58 58 60 61 61 61 61 61 62 63 64 66 65 65 66 68 68 67 68 68 68 67 67 65 62 62 60 60 60 59 60 60 60 62
59 57 57 57 58 58 59 58 58 58 58 57 58 60 61 61 62 61 61 60 62 63 65 65 66 68 68 69 69 69 67 65 64 62 60 59 59 59 59 58 58 58 59
57 56 56 59 59 60 57 57 58 56 59 58 58 58 58 59 62 59 59 58 58 61 63 63 65 65 63 64 69 69 69 65 63 61 58 57 57 59 60 58 58 57 57
57 57 57 57 57 55 57 58 57 57 56 56 56 57 56 61 56 53 56 55 57 57 58 61 62 61 63 58 57 60 66 66 62 61 59 58 57 58 58 58 57 55 54
56 57 58 56 57 58 56 55 55 55 55 54 55 54 54 54 51 50 52 55 54 53 54 58 60 64 61 66 62 55 56 56 60 63 61 59 57 59 59 56 56 55 55
55 56 57 58 56 55 55 56 54 52 52 55 55 55 55 55 50 48 49 51 52 52 55 57 59 60 61 61 66 66 65 63 60 62 63 61 63 62 62 61 59 56 55
54 54 55 56 55 54 54 55 56 57 55 56 55 55 52 53 49 48 49 53 53 53 57 58 59 60 56 50 61 66 64 61 52 51 52 52 51 49 55 59 56 55 55
53 54 55 54 53 52 53 53 54 55 56 56 56 56 54 54 47 47 47 54 51 54 55 57 53 55 51 49 59 65 62 60 58 58 57 52 52 52 50 59 57 55 54
53 53 53 53 52 51 51 53 51 50 54 54 54 55 51 49 48 46 47 51 53 53 54 56 59 49 48 47 48 64 61 59 56 59 58 57 56 56 57 59 58 57 55
53 53 53 53 53 55 51 50 50 53 51 51 48 46 47 48 47 46 45 45 49 52 54 57 57 48 47 44 48 51 48 54 59 57 56 56 54 54 56 57 57 57 58
51 51 51 52 53 54 52 52 50 49 51 49 49 49 49 48 49 46 46 44 44 47 53 53 47 46 45 46 46 49 48 59 58 57 56 56 54 55 56 57 57 58 58
48 49 50 50 50 51 52 52 52 51 51 51 52 51 49 47 48 50 50 50 45 48 49 52 51 50 48 54 49 50 60 59 58 58 58 56 56 57 58 59 56 56 56
49 49 49 50 50 50 52 51 52 53 52 51 52 52 50 49 51 50 51 55 56 55 53 54 53 54 56 56 56 59 58 58 57 56 57 57 57 57 57 58 56 58 57
47 46 46 46 46 47 46 48 47 47 46 45 46 51 52 49 47 45 44 44 42 41 53 54 55 56 58 58 58 58 58 55 55 55 56 56 57 56 56 57 58 57 56
45 45 45 45 45 46 46 46 46 46 44 43 43 43 45 49 42 43 42 40 40 40 53 57 58 59 59 60 59 58 57 56 56 56 55 54 54 56 55 56 57 56 56
45 44 45 45 46 46 46 47 47 46 47 46 42 44 42 43 40 41 39 41 51 46 56 59 59 60 59 59 59 59 57 56 56 55 54 55 55 54 54 55 55 56 55
44 44 45 46 47 46 47 47 48 47 48 49 48 42 42 40 40 39 39 51 53 55 59 58 59 60 60 58 58 57 57 56 56 55 55 56 56 56 55 55 53 44 48
45 42 42 44 44 45 48 48 48 48 47 49 49 50 47 43 46 47 48 51 57 60 59 58 58 59 58 57 57 57 56 55 56 56 55 57 57 57 54 53 52 52 53
41 41 39 43 50 50 49 49 49 49 48 49 49 50 41 49 49 51 52 56 59 58 58 58 58 58 57 58 57 56 56 56 56 56 55 54 54 54 54 55 57 56 56
40 41 43 53 54 51 50 50 50 51 51 52 52 46 38 51 53 54 58 58 58 58 59 59 58 58 58 58 58 57 56 56 55 57 56 56 56 56 57 56 56 56 55
40 43 54 55 56 49 53 53 52 53 55 54 51 49 52 58 58 58 57 57 57 57 58 58 58 57 58 58 59 59 58 57 56 56 59 58 58 57 57 56 56 55 54
43 51 58 57 57 57 56 55 54 50 57 56 56 56 56 55 54 54 54 55 55 56 57 56 57 58 57 58 59 60 58 56 57 57 59 58 55 53 55 53 52 51 50
55 58 58 57 56 55 55 54 53 52 52 52 52 51 51 51 51 50 50 50 50 51 51 52 53 54 55 56 56 52 41 40 52 47 56 54 53 52 51 50 49 48 48
57 57 56 55 54 53 52 51 50 49 49 48 49 48 47 46 46 46 46 47 46 45 46 46 47 48 49 48 46 39 38 39 44 42 53 52 49 48 47 45 44 45 44

GFSGL_sfc_temp_090.txt.gz
Temp
57 58 57 58 59 60 60 60 60 61 62 63 64 64 65 65 65 65 65 66 66 66 67 67 67 67 67 67 67 67 66 65 63 67 67 66 65 66 67 67 67 69 68
62 60 59 60 59 58 59 59 60 61 62 63 63 64 65 65 65 64 65 66 65 65 66 66 67 68 68 67 67 66 66 66 65 63 66 65 64 65 66 65 65 68 68
60 60 58 59 57 57 58 59 59 60 60 61 62 62 63 63 63 63 64 65 65 65 65 65 65 67 66 67 66 65 66 66 65 64 65 65 64 63 63 63 65 65 66
58 57 57 58 58 59 59 58 59 60 60 60 60 62 62 62 63 63 63 63 62 64 63 64 65 65 65 66 67 67 66 65 65 64 65 65 63 63 63 63 62 63 65
58 58 58 59 59 59 58 58 59 59 60 61 60 60 60 62 63 61 62 61 60 60 61 63 64 63 62 61 63 63 65 65 65 64 63 62 61 61 62 63 63 63 63
55 56 57 56 56 57 57 57 57 58 59 58 58 59 58 62 54 53 57 59 59 59 58 59 61 60 61 57 56 55 58 64 66 66 63 62 63 63 62 63 62 61 62
55 57 58 57 56 55 56 56 55 54 54 54 56 57 57 58 50 50 52 58 57 56 56 57 58 62 60 64 59 56 55 53 55 67 65 63 64 64 63 61 62 62 63
54 56 57 58 57 57 55 54 55 55 54 54 55 56 56 58 50 49 49 56 55 56 56 56 56 57 59 61 62 63 64 67 63 62 66 67 65 65 64 66 64 64 62
54 54 55 56 55 55 54 53 53 53 53 54 56 56 55 56 48 48 49 55 55 54 57 57 57 58 53 47 57 59 62 64 53 52 53 53 51 51 57 63 62 61 60
53 55 56 56 54 53 53 53 53 54 54 56 56 55 53 56 47 47 49 57 53 55 56 56 50 54 49 45 54 58 59 62 60 57 56 53 53 53 51 67 63 62 60
53 53 53 53 52 51 51 52 52 52 53 53 54 55 54 54 54 45 45 55 57 56 56 55 56 47 44 44 44 55 57 60 57 60 60 58 59 59 60 63 64 64 62
52 52 52 52 52 55 49 50 51 51 50 51 52 52 54 54 49 45 44 47 50 54 54 56 55 45 44 43 45 47 45 48 60 60 58 59 59 60 60 60 62 63 65
49 49 49 50 51 52 50 50 49 48 50 52 53 53 53 52 52 46 44 44 45 50 55 53 47 43 42 45 46 44 43 60 60 59 58 59 60 61 61 61 62 63 64
48 49 49 48 49 50 52 52 51 51 50 51 51 53 53 51 50 51 50 48 45 49 48 50 49 47 46 49 51 49 57 60 59 59 59 59 59 59 60 61 60 60 60
47 48 48 49 49 49 50 50 51 52 52 51 52 53 53 51 51 49 50 52 53 52 51 54 54 53 53 54 55 54 60 59 59 58 59 58 59 59 60 60 61 60 59
45 45 46 46 47 47 47 48 46 46 45 44 45 50 55 49 44 44 44 44 42 44 51 55 54 53 53 55 56 58 59 56 58 59 59 58 58 59 59 59 60 59 59
44 45 45 45 45 45 45 45 44 46 43 43 43 43 43 48 43 43 43 40 40 41 51 54 55 55 55 58 59 59 58 58 59 58 58 60 60 60 58 58 58 59 58
44 43 43 44 44 44 45 45 45 45 45 46 42 44 42 43 43 41 40 39 46 43 53 54 53 57 58 60 60 60 58 57 58 59 60 61 60 59 57 57 58 60 59
43 43 43 44 44 44 45 45 46 46 46 47 48 41 42 41 41 38 38 50 52 54 54 54 55 58 60 62 61 60 58 58 59 60 60 60 60 59 58 60 59 47 52
42 41 41 43 44 44 45 45 45 46 47 47 48 48 47 42 45 45 46 49 51 53 54 54 59 61 62 62 60 59 56 57 59 60 60 60 61 61 61 61 60 59 60
40 40 38 40 41 42 44 43 46 47 47 48 49 49 42 48 49 49 49 50 51 53 54 59 61 60 61 60 59 59 59 59 61 61 61 62 60 60 62 62 63 59 58
39 40 41 43 51 50 49 48 49 49 49 49 49 43 37 51 51 50 51 53 54 56 59 60 60 60 60 61 61 60 60 61 61 62 61 61 62 62 63 62 59 57 57
39 40 45 54 51 45 50 50 50 50 50 51 51 48 47 51 51 52 54 57 58 58 60 60 59 59 61 61 62 63 63 62 63 63 62 62 63 63 61 57 57 56 56
42 47 56 55 55 53 51 50 51 47 52 53 52 49 49 53 54 56 57 58 58 58 59 59 59 61 61 62 63 64 63 62 63 64 64 63 61 56 57 55 54 52 50
55 57 56 54 53 53 53 53 53 53 54 54 53 53 54 53 52 53 54 54 54 55 56 59 61 61 62 62 62 59 44 41 60 50 61 58 55 53 52 51 50 49 49
54 53 52 52 51 51 50 50 49 49 49 49 49 49 49 49 49 49 49 51 49 49 50 52 54 55 56 56 52 41 39 40 47 43 57 54 53 50 49 48 48 46 43

GFSGL_sfc_temp_093.txt.gz
Temp
71 71 70 71 71 71 70 71 72 72 72 74 74 74 74 74 74 73 73 74 74 73 73 73 72 71 68 69 71 72 70 68 65 69 70 75 71 71 77 76 73 75 76
68 68 69 65 68 69 70 72 73 73 74 75 74 74 75 75 73 73 73 75 74 73 73 73 74 74 71 70 71 70 71 69 67 64 66 69 68 69 69 73 71 72 76
67 70 67 64 65 65 67 68 70 73 73 74 74 74 74 74 74 74 75 74 74 73 73 72 72 72 71 73 71 70 70 70 70 64 62 65 66 67 68 69 68 70 73
67 68 66 66 64 67 68 67 66 70 73 73 73 74 75 75 74 74 73 72 72 72 71 71 72 71 70 70 71 70 70 69 69 69 66 63 65 69 68 68 66 68 72
63 65 65 68 67 67 66 66 68 68 72 74 73 73 73 73 75 73 73 71 70 70 70 72 72 67 61 62 69 69 68 70 71 68 68 62 64 65 64 70 68 74 72
62 64 66 64 64 66 66 67 68 70 69 71 72 72 71 74 59 56 66 71 71 70 68 70 70 64 65 56 55 56 60 67 68 68 69 63 64 65 65 65 68 68 69
61 63 65 67 66 66 66 64 66 66 68 68 69 69 70 70 51 50 53 70 69 68 68 68 68 72 64 69 62 56 55 52 55 66 66 66 68 69 68 65 68 70 72
59 61 64 65 66 68 66 64 63 65 65 66 67 67 67 69 51 48 50 68 68 68 68 67 66 67 66 65 66 67 68 69 69 69 63 66 68 73 71 71 70 69 69
58 60 62 64 64 65 65 65 64 63 63 64 65 66 65 67 50 48 52 67 67 67 68 68 67 67 57 49 63 63 65 65 61 53 51 52 50 51 61 66 65 66 69
57 59 60 62 62 62 64 64 64 64 64 66 65 65 61 65 51 47 52 70 66 68 67 66 52 59 51 46 59 62 60 61 67 68 63 58 52 57 51 68 69 69 70
56 57 58 59 59 60 61 63 63 63 64 63 64 65 65 63 63 46 45 66 69 68 69 69 69 48 46 43 43 57 57 61 61 63 61 62 62 63 62 65 69 73 72
54 55 56 57 59 60 59 59 61 61 60 60 61 63 66 65 52 47 44 47 57 67 67 71 68 48 43 42 45 46 44 46 56 57 60 60 61 61 62 65 69 73 77
52 52 53 54 56 57 57 57 59 59 59 61 62 61 62 66 65 47 44 44 45 61 69 63 52 44 41 45 43 42 43 57 57 59 60 60 62 64 65 65 68 69 71
47 48 50 50 51 52 56 58 57 58 59 59 60 61 62 63 64 65 61 56 46 53 56 62 57 51 46 51 51 56 60 59 59 60 60 62 62 61 62 64 63 65 67
46 47 47 48 49 50 51 53 56 58 59 59 60 61 61 61 64 58 59 63 64 60 60 65 63 62 62 63 61 58 60 58 60 60 59 59 61 62 61 64 64 67 68
44 46 46 47 48 48 49 50 46 47 45 45 45 53 62 52 46 46 46 45 45 45 57 62 63 63 63 64 62 59 58 57 60 60 60 60 59 61 63 65 69 68 65
44 44 45 45 45 45 46 47 46 48 44 43 42 43 43 48 42 43 43 42 42 43 59 62 62 63 63 63 63 59 58 59 60 60 60 62 63 65 64 67 68 68 67
44 42 42 42 43 44 44 45 46 46 46 47 43 45 42 43 42 41 41 41 51 44 58 60 62 63 63 63 63 59 59 60 59 59 60 63 65 66 65 62 64 66 63
42 41 42 42 43 43 43 43 44 45 45 46 48 42 42 41 41 41 39 54 53 56 54 56 57 63 63 64 65 61 60 61 60 59 61 66 67 66 64 63 61 50 55
39 38 39 41 41 42 43 43 43 45 45 46 46 48 47 44 46 47 46 50 56 58 55 55 58 61 64 64 64 60 61 59 60 61 65 69 68 68 65 63 67 63 67
40 41 38 41 41 41 42 43 44 45 45 47 47 48 42 49 51 50 50 54 58 54 54 58 63 64 65 63 61 60 62 61 61 67 70 70 70 70 70 70 69 68 69
38 39 40 41 42 44 45 43 44 46 47 48 48 47 37 51 55 57 58 58 58 59 61 62 63 63 62 61 61 63 63 62 68 72 71 70 71 71 71 71 70 66 65
39 40 41 45 51 45 47 46 47 48 48 49 49 46 46 50 57 57 58 59 58 59 61 60 58 60 61 63 66 66 66 69 72 71 71 70 70 71 72 70 69 64 64
43 46 52 50 54 55 53 52 51 47 51 52 51 51 51 52 55 57 55 58 57 58 58 60 61 61 64 66 66 67 72 73 72 73 73 72 72 65 70 67 63 59 53
55 54 53 53 54 54 57 55 55 57 57 57 56 52 55 55 54 56 54 57 58 58 59 60 61 64 66 65 68 72 52 41 68 57 74 72 70 66 62 59 55 53 51
51 50 49 49 49 50 50 50 50 51 52 54 55 54 51 51 51 52 54 53 54 56 58 60 63 63 65 70 68 46 39 41 53 46 65 64 62 60 60 56 51 48 46

GFSGL_sfc_temp_096.txt.gz
Temp
75 77 76 78 78 78 78 78 79 79 79 80 81 81 81 80 80 79 79 81 78 76 77 78 76 76 73 76 76 72 70 69 63 69 73 77 75 74 71 76 77 74 74
74 74 74 75 76 75 76 78 79 78 80 81 81 81 81 81 80 79 79 81 78 76 75 75 76 75 73 74 72 71 69 70 68 67 73 75 75 75 72 70 72 72 75
70 73 68 69 73 75 75 77 78 79 79 81 81 80 80 80 80 79 80 79 78 77 77 77 77 77 75 77 77 74 73 72 71 69 71 75 75 74 67 68 67 71 74
71 66 60 65 66 71 74 74 75 76 77 78 80 81 81 81 80 80 79 78 78 78 77 76 77 76 75 75 75 75 75 75 75 71 71 72 74 75 69 65 66 76 74
69 69 64 60 62 68 66 64 69 67 73 76 74 76 78 80 81 78 78 77 76 75 75 76 76 71 63 65 73 73 72 73 76 75 75 73 74 72 68 67 72 76 76
67 67 67 64 65 68 70 69 67 70 70 70 75 78 77 79 59 59 70 76 75 74 73 75 76 65 65 56 56 56 61 67 69 73 76 75 73 73 67 68 70 70 64
65 67 68 69 67 69 72 71 70 68 69 70 71 76 76 76 53 54 56 76 75 74 74 74 75 79 68 76 64 57 56 53 54 67 68 70 71 74 68 70 69 69 64
63 64 66 68 68 70 71 71 70 70 69 71 73 73 75 77 51 51 53 74 74 75 75 74 73 74 73 71 72 72 73 74 72 71 69 71 73 74 73 73 72 70 67
62 63 64 67 67 68 69 69 71 69 69 70 72 73 73 75 50 49 55 72 73 73 75 74 74 73 61 52 69 69 70 71 68 56 55 51 49 48 54 65 65 64 64
60 62 64 65 66 65 67 68 70 70 69 73 71 72 67 72 49 47 55 75 71 74 73 73 55 66 53 49 67 69 67 69 71 72 73 61 55 63 50 60 66 64 68
59 58 58 61 62 63 64 66 67 68 70 69 71 71 71 69 67 46 46 70 76 74 74 75 76 51 49 47 46 67 65 64 63 68 70 71 73 69 66 61 69 72 69
53 54 54 54 58 64 62 63 65 66 66 67 67 69 72 71 56 47 45 47 60 73 74 77 75 49 47 46 49 51 45 46 65 68 70 71 65 63 62 64 71 69 73
50 49 51 51 54 56 56 60 63 64 65 66 68 68 70 73 71 48 44 44 46 65 76 68 55 47 44 46 42 42 41 63 67 67 65 63 62 62 64 67 69 71 73
47 47 49 49 49 52 56 56 58 62 64 66 67 68 69 71 72 73 67 60 47 56 59 68 64 56 52 54 57 60 70 70 69 65 61 62 63 64 63 64 64 67 68
46 46 46 48 50 51 53 55 55 56 62 66 67 69 69 69 71 64 66 71 70 64 65 70 70 70 69 70 71 73 74 70 68 66 60 60 60 62 62 65 66 69 71
44 44 46 47 49 51 51 53 47 47 47 43 45 52 70 57 49 46 47 48 46 46 64 67 68 70 71 72 72 73 73 64 66 62 60 59 60 61 61 65 68 72 66
44 45 45 45 46 46 46 46 46 48 45 46 43 43 43 47 43 44 43 44 43 44 63 67 67 69 71 73 73 73 72 71 68 62 60 59 60 60 59 64 73 72 68
45 42 42 42 43 44 45 45 46 46 46 48 45 46 43 43 41 41 42 41 59 52 63 65 68 69 71 72 72 73 72 68 62 61 59 60 61 60 62 71 72 67 67
40 39 40 40 41 41 42 43 44 46 46 47 49 44 46 41 40 41 41 60 61 62 63 65 68 71 71 72 72 73 71 65 60 59 60 61 60 63 69 70 68 53 60
40 39 39 40 40 40 41 42 42 42 44 46 47 49 51 46 48 50 53 56 58 59 60 65 67 69 70 71 72 72 69 59 59 60 61 61 62 68 66 68 72 70 72
39 41 38 39 39 40 40 40 42 43 43 44 46 48 41 48 53 56 57 57 60 60 64 66 68 69 68 67 72 69 68 60 63 62 62 61 71 70 70 73 71 72 67
39 39 39 41 41 41 41 42 43 44 45 46 47 47 37 52 53 55 55 58 60 63 67 63 65 62 65 66 70 70 62 62 64 64 61 69 70 71 73 70 73 72 71
40 41 42 44 45 42 45 43 43 45 47 48 48 48 47 50 53 55 57 60 63 62 62 66 60 62 67 69 68 64 62 65 64 62 65 69 73 70 71 71 70 71 68
44 44 49 53 52 50 47 46 46 44 49 50 50 49 49 51 53 56 59 62 62 63 65 66 66 67 67 64 62 64 69 68 65 66 73 73 72 65 71 69 65 61 57
51 52 55 58 55 54 52 53 53 53 54 54 55 55 53 53 58 61 64 66 67 66 66 66 66 61 61 62 63 70 52 43 67 60 74 74 71 68 69 66 61 55 52
48 48 49 49 49 51 54 53 53 53 53 55 59 55 53 53 59 62 64 64 64 63 60 59 62 61 62 67 67 48 41 40 60 46 71 69 67 67 66 61 55 53 52

GFSGL_sfc_temp_099.txt.gz
Temp
78 77 76 76 76 77 79 78 79 78 80 76 80 80 80 80 80 77 78 82 79 78 78 79 78 78 75 81 80 73 74 76 68 75 78 76 74 73 74 75 77 77 78
76 75 76 75 76 66 68 75 79 80 80 82 82 82 82 81 80 79 79 81 81 79 78 76 77 76 75 74 72 72 71 72 69 68 72 72 72 75 76 76 75 75 75
76 75 74 71 72 69 66 64 68 80 80 82 82 82 82 82 82 81 81 81 81 81 79 77 76 76 73 73 71 70 72 72 71 68 70 70 73 77 75 74 73 73 74
75 73 72 71 69 67 60 61 62 68 75 80 81 82 83 83 83 82 81 80 80 81 77 78 78 76 74 73 74 75 75 75 75 73 73 69 71 75 75 71 70 72 71
71 71 70 71 71 67 59 57 58 60 65 68 72 73 82 81 83 80 80 79 78 78 78 78 78 73 63 66 75 75 73 73 74 75 75 75 74 71 69 72 69 69 73
69 69 70 70 72 69 63 59 57 61 67 67 70 75 75 81 62 60 71 77 76 76 74 75 74 67 66 59 59 58 62 67 67 69 72 72 71 74 71 71 69 67 64
68 68 68 69 69 70 67 61 57 58 63 64 64 71 72 69 52 56 58 76 75 75 74 74 76 79 70 74 59 56 56 55 57 68 66 67 68 71 72 69 68 67 65
66 67 68 68 68 69 70 67 62 60 59 62 66 68 72 62 55 51 56 75 74 75 75 75 74 74 74 74 75 73 74 74 71 69 68 69 71 72 72 70 68 67 67
62 63 62 65 66 67 67 67 66 64 63 63 68 69 70 71 51 49 58 73 75 75 76 76 75 75 62 55 72 70 71 72 69 57 55 54 52 51 53 67 66 63 63
57 60 61 61 61 64 66 67 68 66 64 69 68 70 67 70 49 49 55 76 73 75 75 75 57 68 53 50 69 70 68 70 72 72 70 67 59 63 50 63 68 62 62
59 58 59 58 57 60 60 61 65 65 67 66 69 70 71 69 66 47 48 71 76 74 75 75 76 52 51 47 51 69 66 65 65 68 69 72 73 74 75 69 67 66 63
56 54 53 54 56 58 58 58 60 60 60 64 64 67 73 71 57 47 46 53 63 75 75 77 76 51 50 49 51 53 48 47 68 69 70 71 72 73 74 69 67 69 70
56 53 52 54 57 57 56 56 54 57 58 62 65 65 71 74 73 49 44 46 50 63 77 69 49 46 48 49 45 45 40 66 67 68 69 71 73 71 65 64 65 66 70
49 50 49 50 51 54 57 56 55 56 57 62 63 62 69 73 71 70 63 57 47 57 59 69 64 59 58 60 61 57 68 70 69 71 71 72 70 62 62 63 65 68 65
48 48 48 48 49 51 53 53 54 58 58 60 67 66 65 66 71 66 66 69 69 64 65 71 71 71 71 71 72 73 74 74 74 74 71 69 63 61 62 67 67 64 62
47 48 47 46 46 48 48 49 47 46 44 45 42 48 58 45 46 48 48 49 50 49 64 68 68 70 70 71 73 73 75 70 75 75 70 67 60 60 63 66 64 62 61
46 47 47 46 46 45 46 46 47 50 46 44 44 42 43 43 45 46 44 44 44 47 68 67 68 70 71 72 74 75 75 77 76 75 69 62 60 59 59 62 63 61 65
44 42 43 42 44 44 45 45 47 47 48 53 48 46 43 42 43 44 43 41 59 55 68 68 68 69 70 71 74 75 76 76 75 72 68 61 60 60 60 60 61 64 67
39 40 41 40 40 40 42 44 45 46 46 48 51 50 45 41 40 42 41 60 65 66 67 67 68 69 70 73 74 75 75 74 73 70 64 60 60 61 60 60 62 52 58
40 39 39 40 39 39 40 40 41 43 45 46 48 49 56 52 53 55 58 60 63 67 68 69 68 69 72 73 75 75 75 73 71 65 61 60 60 61 61 62 66 68 67
38 39 37 39 38 38 38 39 41 41 42 44 46 49 42 52 57 59 60 61 62 65 67 69 71 71 71 73 74 74 73 73 65 62 60 60 60 62 65 66 66 67 65
40 40 40 40 40 39 38 39 40 42 43 44 46 47 36 53 54 57 59 62 64 64 67 67 69 70 74 73 73 71 72 68 64 61 60 61 62 63 68 68 70 69 65
44 44 44 43 43 40 40 40 41 43 44 45 46 47 48 52 53 54 56 62 63 64 66 67 66 69 67 66 72 71 70 69 65 63 63 63 63 64 66 70 66 63 67
48 48 52 54 52 47 44 43 43 42 47 48 48 49 48 50 51 54 55 60 61 63 65 66 68 64 65 65 67 69 71 68 65 65 66 66 65 58 66 63 63 67 67
50 51 54 54 55 51 49 49 48 48 50 50 50 50 51 52 53 55 58 60 61 60 62 65 67 67 68 67 68 68 57 42 60 53 66 65 64 65 64 66 64 64 61
45 46 46 49 50 54 54 52 51 52 53 53 53 52 55 58 55 57 59 61 64 65 66 66 67 66 67 66 64 52 41 40 52 40 60 64 65 63 64 64 61 59 57

GFSGL_sfc_temp_102.txt.gz
Temp
73 73 71 71 72 71 70 69 69 67 72 75 76 77 76 75 75 70 70 68 67 66 69 70 72 72 71 71 70 69 67 66 64 69 69 70 70 68 70 70 70 71 71
73 73 71 71 71 69 68 67 65 64 63 61 66 74 77 75 70 66 66 69 69 69 71 71 71 72 71 71 69 68 67 67 64 64 65 68 68 69 69 69 71 72 71
73 72 69 69 69 67 67 66 66 64 61 60 59 60 63 75 71 68 69 67 64 72 73 72 71 70 68 69 68 67 66 66 65 64 64 66 67 67 67 68 68 69 70
73 71 67 66 66 67 67 66 65 64 60 58 58 60 59 73 75 73 73 72 73 74 73 72 72 71 69 68 68 66 66 65 64 63 63 64 66 67 66 65 64 66 67
71 69 67 66 66 66 66 66 65 63 61 60 59 59 60 60 78 75 75 73 72 72 71 73 71 67 66 67 68 65 64 63 63 62 61 62 62 63 63 64 63 64 66
69 68 68 67 67 65 64 64 64 61 61 60 59 59 59 59 52 54 60 71 72 71 69 70 64 62 61 59 60 60 61 61 59 58 58 57 58 60 61 62 62 61 60
66 67 67 66 66 65 65 65 64 61 59 57 59 59 60 60 52 50 51 69 69 69 67 67 68 73 65 65 58 58 56 55 57 61 59 59 59 60 61 60 61 62 61
64 65 65 65 64 63 62 62 61 61 59 59 59 60 60 62 49 50 48 58 67 68 67 67 66 65 65 66 64 62 63 63 58 61 59 60 61 64 64 63 61 61 63
60 61 61 60 60 60 60 58 59 60 59 59 62 61 59 62 50 53 56 59 59 66 69 69 68 66 57 58 67 65 65 64 65 58 55 53 50 49 51 56 58 59 59
59 58 59 58 57 57 57 57 58 59 58 60 61 63 59 63 49 50 57 60 57 63 67 67 58 65 50 54 64 63 61 62 65 64 62 59 57 59 52 54 61 59 58
55 57 57 56 55 57 56 56 56 57 58 56 60 61 62 62 57 48 50 61 60 64 68 68 69 49 48 47 54 63 61 62 60 61 60 60 62 62 63 61 63 63 60
53 51 52 52 53 57 55 55 55 55 55 55 55 58 60 61 53 46 47 50 54 61 65 69 68 52 48 48 51 53 51 50 59 59 59 60 61 62 63 64 65 65 65
50 49 49 53 51 51 52 53 53 53 54 53 56 56 59 61 61 48 46 46 50 61 67 58 53 51 49 51 47 47 44 57 59 58 59 60 61 62 63 62 63 64 64
46 48 49 49 50 53 54 52 52 53 54 53 55 57 57 59 60 55 51 49 49 52 55 54 56 55 53 57 55 49 58 61 61 61 61 63 62 61 60 61 61 61 62
44 46 46 46 48 50 51 50 51 53 54 55 56 58 55 58 50 45 53 57 58 57 58 63 61 62 62 62 63 64 63 63 62 62 62 63 62 61 60 62 62 62 60
39 43 46 45 46 49 48 49 46 44 44 43 44 47 53 48 43 44 44 44 50 49 57 60 61 64 64 65 64 64 65 62 66 66 65 62 60 59 59 61 61 60 59
38 40 43 44 45 45 45 45 44 47 43 44 43 42 44 46 44 44 44 41 41 48 61 62 62 63 64 65 65 65 65 66 66 66 64 62 60 59 57 59 60 60 59
39 39 39 42 42 43 44 44 44 44 45 49 45 44 40 42 44 43 44 46 55 51 63 63 62 63 64 65 65 65 65 65 65 65 63 62 60 58 58 59 59 58 59
39 39 39 39 41 41 41 42 44 44 45 48 52 48 42 41 42 43 43 53 55 60 64 65 65 64 64 65 64 66 66 65 64 64 62 61 60 59 58 59 58 47 50
38 38 38 39 39 39 40 39 41 42 44 45 48 51 53 44 46 50 52 54 57 60 64 64 64 64 63 64 65 66 67 64 64 63 61 60 59 60 59 58 58 58 59
38 39 36 38 38 38 38 38 39 40 42 44 46 49 42 53 54 54 55 56 58 61 64 65 67 66 65 65 66 67 66 64 64 61 60 59 59 58 60 60 59 59 60
41 40 40 39 39 38 38 39 39 40 42 43 44 45 35 50 54 57 57 59 61 62 64 64 65 66 68 67 67 66 65 63 62 61 60 59 60 60 61 60 60 60 59
43 44 45 43 41 38 38 39 39 40 42 43 45 46 47 48 52 55 59 61 62 62 63 63 63 65 66 64 65 64 66 63 63 62 60 60 61 61 61 60 60 59 59
49 49 50 49 45 43 40 39 40 39 43 45 45 47 49 49 51 53 56 59 61 62 62 62 62 64 64 64 63 64 65 64 64 62 62 61 62 57 59 60 61 60 59
45 46 47 48 48 44 43 43 43 45 46 47 46 47 49 53 53 54 55 57 59 60 61 62 62 63 63 63 64 65 57 41 58 50 62 62 63 60 60 60 60 59 58
40 42 42 44 45 48 49 47 46 47 47 49 50 50 50 51 53 53 55 56 57 58 59 61 62 63 62 63 64 54 40 39 50 39 61 61 60 59 59 58 58 56 55

GFSGL_sfc_temp_105.txt.gz
Temp
64 63 62 62 63 62 61 61 60 59 59 60 61 60 58 59 61 58 59 61 64 67 65 63 62 62 61 63 66 65 63 62 60 61 62 63 65 65 66 66 67 67 67
64 63 62 61 61 60 60 60 60 59 58 58 60 60 61 61 58 58 63 64 67 61 61 59 61 63 61 60 61 65 63 62 60 59 59 61 63 63 64 65 67 69 68
64 63 61 59 58 58 58 59 59 59 58 57 59 59 60 60 59 57 60 61 62 61 61 62 62 60 62 63 64 64 62 63 61 59 58 59 60 62 64 64 63 64 67
63 61 59 58 58 57 57 57 58 58 58 56 57 58 59 59 60 60 61 58 60 64 63 63 65 64 66 65 66 63 62 61 60 58 56 56 58 61 60 61 60 61 62
62 60 59 58 58 57 56 56 56 57 58 57 57 57 57 58 61 56 57 57 57 61 60 63 65 65 67 66 66 62 60 58 57 56 55 56 57 58 58 58 58 59 60
59 59 60 59 58 56 56 55 55 54 56 55 55 57 56 59 54 51 54 56 59 62 63 65 66 63 60 58 59 58 60 58 54 54 51 51 52 54 54 55 55 55 55
58 60 60 59 58 58 57 56 54 53 53 53 54 55 56 57 52 51 51 55 58 59 58 58 60 61 59 61 56 56 56 56 56 55 52 52 53 55 56 54 54 55 56
56 57 58 58 58 57 55 53 53 52 51 54 54 56 55 58 51 50 49 55 58 60 59 58 58 57 59 60 58 58 58 57 56 58 54 56 56 56 57 57 56 56 56
54 55 57 58 57 56 54 54 57 56 49 50 54 55 54 56 49 47 48 56 56 60 62 61 61 59 53 53 59 57 56 57 57 54 53 51 50 48 49 50 51 50 51
53 54 55 55 54 55 55 54 55 54 50 51 51 52 53 56 48 46 49 58 54 56 59 60 56 59 51 51 58 56 55 56 58 58 56 54 52 54 51 52 53 51 52
50 50 51 51 51 52 53 54 52 51 52 49 50 49 52 56 56 47 47 58 56 55 56 58 59 50 48 48 53 57 56 56 55 56 53 53 53 54 55 55 53 56 54
47 46 46 48 50 51 51 51 52 52 47 47 46 47 50 55 51 49 46 47 52 57 56 58 58 47 46 48 51 51 49 52 54 52 51 51 51 52 55 56 58 58 59
44 43 44 46 47 48 47 48 49 50 44 45 47 45 46 52 56 48 46 45 46 55 58 56 52 46 46 48 48 47 46 53 52 51 51 52 52 55 56 57 58 59 60
40 40 41 42 44 47 49 48 49 49 45 47 47 45 46 49 49 49 52 49 47 51 50 53 53 50 49 51 48 48 53 53 53 52 52 55 53 53 54 56 56 59 60
40 39 39 41 43 45 46 47 48 49 47 47 46 47 46 47 46 43 44 52 51 52 52 54 53 54 53 52 52 51 52 54 53 53 52 54 54 53 55 56 57 60 59
38 39 38 39 41 43 45 45 44 45 44 42 42 44 51 45 43 43 42 41 43 46 50 52 52 53 55 55 55 54 53 53 56 55 54 55 53 54 55 55 57 59 58
38 38 39 38 40 41 43 44 43 42 42 42 42 41 43 46 42 45 43 42 42 43 53 54 55 55 55 56 56 56 55 57 58 56 56 54 55 55 54 55 57 58 58
37 39 38 38 38 39 42 43 44 44 43 42 42 41 40 42 42 43 44 44 49 46 55 56 56 55 56 56 56 56 56 56 56 56 54 55 56 55 54 55 57 57 57
36 36 38 39 38 38 40 42 42 42 43 44 47 43 40 41 41 42 44 49 47 50 54 53 54 54 55 56 56 56 57 56 56 56 55 56 56 55 55 57 58 47 50
37 37 37 37 38 38 39 40 40 40 42 43 45 46 41 39 42 44 45 49 50 52 52 58 58 55 55 56 56 55 55 55 55 54 56 56 56 56 56 57 57 57 56
39 40 36 38 38 38 38 38 39 39 40 42 44 45 40 43 45 47 49 50 51 52 55 56 60 55 56 56 55 55 55 54 55 55 56 57 57 56 57 58 58 58 58
42 42 41 39 39 38 38 39 39 39 40 42 43 41 35 43 46 48 49 51 52 55 56 58 60 57 56 56 55 54 55 54 55 57 57 57 57 57 58 58 58 58 57
46 46 46 45 42 37 37 39 38 39 41 42 42 44 45 46 44 47 52 54 55 56 56 57 57 55 55 55 56 56 55 54 57 58 58 57 57 58 59 58 58 58 58
43 45 47 44 43 40 39 38 39 38 42 43 44 43 45 47 46 46 47 52 53 53 52 53 53 54 54 54 55 56 56 58 58 59 60 58 58 56 58 58 58 56 55
40 41 42 44 44 43 41 42 42 42 43 44 45 45 45 48 49 50 50 47 49 50 50 52 52 54 54 55 55 57 51 43 51 48 59 60 59 57 56 58 57 54 52
36 37 38 39 40 42 45 44 44 45 44 46 46 46 47 46 49 49 49 49 47 48 50 50 52 54 54 55 56 50 43 38 46 39 54 59 58 56 57 57 56 54 52

GFSGL_sfc_temp_108.txt.gz
Temp
61 61 61 60 60 60 58 59 59 58 58 58 58 58 57 57 59 58 57 59 59 60 61 63 64 62 61 61 61 61 61 61 59 62 59 61 62 62 64 65 66 66 66
62 60 60 60 60 59 59 59 58 57 57 57 57 58 58 58 56 56 57 60 59 58 60 62 63 62 59 58 59 60 59 60 60 59 59 60 61 62 63 63 64 67 65
60 60 59 58 57 57 57 57 56 57 56 56 57 57 57 57 57 56 57 58 57 58 62 62 61 61 59 59 58 59 59 60 61 61 60 58 59 59 59 60 62 62 64
59 58 57 57 57 57 55 55 56 56 55 56 56 57 58 58 58 58 58 56 56 57 57 61 61 62 61 60 60 59 59 60 62 60 57 55 55 57 56 57 59 59 61
58 57 56 55 55 54 54 54 54 54 55 55 55 55 54 56 59 57 55 54 53 54 56 58 59 63 62 61 62 62 61 61 60 59 56 55 55 55 56 56 55 56 57
57 57 58 57 57 55 54 55 53 52 53 53 53 54 53 56 53 52 53 54 55 55 56 57 60 62 61 59 59 59 62 60 56 54 53 54 53 53 53 53 53 52 52
53 55 57 56 57 56 56 55 52 51 51 52 52 52 52 53 51 50 51 54 55 55 56 55 57 62 60 62 54 55 55 55 58 56 54 52 52 53 53 52 52 52 52
51 52 54 55 55 55 53 52 51 50 49 50 50 51 51 54 50 49 49 53 55 55 56 56 58 61 61 60 58 57 57 57 57 58 56 55 56 55 55 55 54 52 52
50 51 53 54 53 53 54 54 53 51 48 46 52 50 50 51 49 48 49 54 55 55 58 58 57 56 48 49 56 56 55 57 53 52 52 50 50 49 52 50 49 48 47
49 50 50 49 48 48 50 52 53 55 55 54 52 51 50 50 48 47 48 53 54 54 57 56 51 54 47 48 57 57 55 54 56 53 51 49 49 51 48 51 51 49 48
48 48 47 47 47 47 47 48 50 51 52 51 50 48 48 49 50 47 45 52 55 54 55 57 59 48 46 47 51 58 57 54 53 54 52 51 51 52 52 52 51 51 49
45 45 45 45 46 47 45 46 47 47 48 49 46 44 46 48 48 48 44 44 50 56 55 57 56 46 46 46 52 49 46 51 53 51 50 50 51 50 52 53 54 53 55
42 42 43 43 43 43 43 42 43 46 46 48 47 47 44 46 48 48 47 44 43 51 60 54 48 46 45 46 48 46 46 53 51 50 50 50 50 52 52 54 56 56 57
40 40 41 41 41 41 43 44 44 45 46 47 47 44 43 44 47 49 52 51 45 48 49 50 49 48 47 48 47 47 53 53 52 51 51 50 50 50 51 53 54 55 56
39 39 39 40 40 40 41 42 44 47 47 48 48 48 43 42 44 43 45 50 51 50 49 50 51 50 49 49 50 50 50 52 52 51 51 50 50 50 51 53 54 55 57
36 37 38 38 39 39 39 41 43 42 43 42 43 46 48 44 41 40 40 41 41 43 51 50 50 51 51 50 50 49 50 51 52 52 51 50 50 50 52 53 54 55 57
36 36 37 37 38 38 39 39 39 44 41 41 40 41 43 43 41 43 41 41 41 42 51 50 50 52 52 53 52 52 52 52 54 52 52 51 51 51 52 52 54 55 57
35 36 35 36 37 38 38 37 41 41 43 43 41 42 39 42 43 44 43 43 47 45 51 51 51 52 53 53 53 53 53 53 52 52 52 52 52 53 52 52 53 55 56
35 35 37 37 38 38 38 38 40 41 42 44 45 41 40 41 42 41 42 48 47 48 52 52 53 53 53 54 53 53 54 52 53 53 52 52 53 53 52 53 53 45 49
36 37 37 38 38 37 38 37 39 41 41 42 44 44 41 38 39 44 43 47 46 47 50 51 52 51 54 53 52 52 52 52 52 52 51 52 54 54 53 53 54 56 55
37 39 37 40 38 38 37 38 39 40 40 41 43 44 38 43 41 43 44 46 46 47 49 51 52 52 53 53 52 53 53 52 51 51 51 52 53 53 54 56 56 57 57
39 44 44 44 40 39 38 39 39 39 40 41 42 42 34 46 43 42 44 46 47 50 53 52 52 53 54 54 53 52 52 50 51 53 53 54 54 55 56 55 56 56 56
41 43 44 43 41 37 38 39 39 39 40 41 42 43 43 45 46 43 45 50 51 51 53 53 51 51 51 52 53 53 53 52 52 54 54 55 55 56 57 56 56 56 57
39 40 42 43 42 39 39 39 39 37 41 42 42 43 44 46 46 45 44 47 48 49 50 50 53 50 51 52 52 53 53 54 55 56 57 57 57 54 57 57 57 55 53
37 37 38 38 41 42 41 41 41 41 42 44 42 43 45 46 46 44 44 48 49 47 52 50 50 53 52 53 53 54 48 42 52 43 57 57 58 57 56 57 54 52 51
34 35 35 36 36 37 39 43 43 43 43 45 45 44 44 46 47 45 45 44 45 46 47 48 51 54 54 53 53 46 41 39 46 38 53 56 56 57 56 55 53 52 50

GFSGL_sfc_temp_111.txt.gz
Temp
59 59 58 59 59 58 57 57 58 56 56 56 57 56 56 55 55 54 54 56 56 56 57 59 59 60 59 60 62 61 62 62 58 59 61 62 62 62 62 63 64 63 63
57 57 57 57 58 57 56 58 57 56 56 57 57 56 57 56 55 54 54 56 55 56 57 57 58 61 61 62 61 59 59 60 59 58 58 60 60 61 61 61 62 65 64
57 56 56 55 54 55 57 58 55 55 55 55 56 56 56 56 55 54 55 55 55 55 56 58 59 60 60 58 58 58 58 59 59 58 59 60 61 59 59 58 59 60 63
57 56 54 54 55 54 55 54 55 56 55 54 54 56 57 56 56 56 56 54 54 56 56 57 57 58 59 59 58 58 58 57 58 57 58 59 58 58 56 55 56 57 59
55 54 54 54 54 53 52 53 54 54 56 55 54 54 55 56 58 54 54 54 54 53 55 56 56 58 60 59 60 60 59 58 57 57 57 58 54 55 55 56 55 54 56
51 52 53 53 53 52 53 54 53 53 54 52 53 54 53 55 52 52 53 53 54 53 53 55 55 57 57 56 56 58 60 58 57 57 58 57 57 55 54 53 53 51 50
49 51 53 53 53 53 53 52 50 49 50 49 50 51 51 51 49 49 51 52 52 53 54 54 56 59 57 58 57 55 56 55 58 61 58 55 53 54 54 52 51 50 51
48 50 51 52 52 53 53 53 53 53 50 53 53 52 50 53 49 48 49 50 51 53 54 55 55 56 57 57 58 58 59 60 59 59 59 55 56 56 56 54 52 51 49
47 48 49 50 49 48 47 47 49 50 51 49 54 54 50 51 48 47 47 50 51 52 55 56 56 57 53 49 57 58 58 56 54 52 52 50 48 49 53 52 49 47 46
46 47 47 47 46 46 47 47 49 49 50 52 52 53 52 50 48 47 47 49 50 53 56 56 52 51 47 48 56 55 53 53 54 53 52 49 49 49 49 54 51 48 46
45 46 46 46 45 46 46 46 46 46 47 48 48 48 50 50 49 45 45 48 51 53 54 55 56 46 45 46 50 54 54 56 53 55 53 52 52 52 51 49 49 50 48
45 44 44 44 45 45 44 44 44 44 44 43 43 45 49 48 47 46 45 43 49 52 52 55 55 44 45 45 50 45 47 52 55 52 50 49 49 50 51 51 50 50 52
42 41 40 41 43 43 42 41 40 41 41 42 45 46 48 47 48 45 43 41 43 50 51 52 47 42 44 45 45 45 49 54 51 49 49 49 49 51 50 51 53 54 54
38 37 38 39 40 41 42 42 41 40 41 43 44 46 47 46 44 45 47 46 46 49 49 49 49 45 46 46 47 48 53 53 53 51 50 49 49 49 49 50 51 52 52
36 37 37 38 38 39 41 41 41 42 42 42 45 47 46 43 43 43 43 51 51 49 49 49 48 49 49 49 49 50 51 51 51 50 50 49 48 49 49 50 51 52 55
34 36 36 37 38 38 38 39 41 40 40 40 41 42 49 45 41 40 41 40 42 42 48 49 48 50 51 51 50 49 49 49 50 51 50 49 49 49 49 51 52 53 56
34 34 35 36 36 36 37 38 37 40 41 40 40 40 42 42 39 39 40 42 40 40 49 49 49 51 50 51 51 50 49 51 51 51 50 49 49 49 48 51 52 53 57
34 35 34 35 35 36 37 38 38 37 39 42 39 41 39 40 39 40 40 43 47 46 52 50 50 51 51 52 52 51 51 51 50 50 50 51 50 50 51 51 52 52 53
34 35 36 37 37 37 37 38 38 38 39 42 45 39 40 39 40 39 40 46 45 46 51 51 51 51 53 52 52 52 53 51 51 51 50 50 51 50 51 51 51 45 47
35 36 37 38 38 38 37 37 38 38 40 41 43 43 41 40 38 40 44 46 45 47 50 50 51 51 52 53 52 51 51 50 50 50 49 49 51 52 51 51 51 53 54
36 38 37 43 41 39 38 37 38 39 40 40 42 43 38 42 39 39 42 46 47 48 50 51 51 51 52 52 50 50 51 50 50 49 50 50 51 51 52 53 53 53 55
37 41 43 41 40 39 38 38 39 40 40 40 41 41 34 43 39 39 41 46 48 49 51 51 51 53 52 53 53 51 50 50 50 51 52 52 52 53 53 53 53 53 55
38 40 41 42 40 37 38 39 39 40 40 40 42 43 42 43 41 39 42 44 46 48 50 52 51 51 51 51 52 52 52 51 51 52 53 53 53 53 53 54 54 55 55
36 37 38 39 41 40 40 39 39 38 40 39 42 43 43 45 45 42 42 44 45 48 51 51 50 51 50 50 51 52 52 52 53 54 55 54 54 51 54 55 56 56 56
34 35 35 35 37 38 41 41 41 41 42 40 43 43 44 45 45 44 43 45 45 47 51 48 49 51 51 51 51 52 44 37 51 44 55 55 55 56 55 55 53 50 49
31 32 33 33 34 35 36 38 41 42 42 42 44 44 44 44 46 45 43 46 47 45 46 49 51 51 51 51 52 43 39 36 43 37 51 54 54 54 55 53 52 49 49

GFSGL_sfc_temp_114.txt.gz
Temp
57 58 58 58 58 58 58 58 59 60 60 60 60 60 59 58 58 57 57 58 59 58 59 59 60 61 60 61 61 62 61 61 59 62 64 66 66 64 67 67 67 68 67
58 57 57 57 57 57 57 57 57 57 59 60 60 60 59 59 58 57 57 59 59 58 59 58 59 61 60 62 61 60 62 63 61 60 63 62 63 63 64 67 66 67 68
57 57 55 55 55 55 55 56 57 57 57 58 59 59 59 59 59 57 58 59 58 58 59 59 59 60 59 60 61 61 61 62 62 61 62 63 64 64 63 66 63 64 66
55 55 54 53 53 54 54 54 55 56 56 57 57 59 59 59 59 59 58 57 57 58 58 58 59 59 59 59 61 60 60 59 59 60 59 60 62 64 63 64 60 62 64
52 52 51 52 53 53 53 53 53 53 55 55 56 57 57 58 60 58 58 57 57 56 57 58 59 59 59 59 61 60 60 59 59 58 57 58 59 59 60 60 61 61 62
50 51 52 52 53 53 52 53 53 53 54 54 54 55 55 57 55 53 55 56 56 56 55 56 57 57 58 55 56 57 60 59 58 58 57 56 58 60 58 58 59 56 57
49 51 52 52 52 52 52 52 51 51 52 52 53 53 53 53 50 49 51 55 55 55 55 55 56 60 57 58 55 53 54 54 55 60 57 59 60 60 59 58 57 57 58
48 49 50 50 50 50 50 49 48 49 49 50 51 52 52 54 49 47 48 54 54 53 54 55 55 56 57 57 58 57 58 58 57 57 59 61 62 59 60 60 58 57 57
47 48 48 49 48 47 46 46 46 47 47 48 50 51 51 52 48 46 47 52 51 52 54 55 56 56 53 49 54 55 56 58 56 52 54 52 50 49 53 57 56 57 56
46 46 47 46 45 45 45 46 47 47 47 48 48 49 49 50 48 46 48 52 51 51 53 55 51 53 49 46 50 52 52 55 57 56 56 50 50 51 50 61 58 57 55
45 45 45 46 45 45 45 45 44 45 46 45 45 47 48 48 49 45 44 50 50 50 52 55 57 48 44 44 44 56 55 57 53 55 53 54 53 54 56 58 58 60 55
43 43 43 44 44 44 41 41 43 44 43 43 43 44 46 46 46 46 44 44 48 50 52 55 53 46 45 44 47 44 45 52 54 53 53 52 53 55 58 58 56 56 59
42 41 40 40 40 40 39 40 41 41 40 40 42 43 44 49 49 45 43 43 42 44 52 51 44 43 43 47 43 44 46 55 55 56 55 56 56 58 57 56 57 57 58
37 36 37 37 37 39 40 41 41 41 40 41 41 42 45 46 48 47 47 48 44 46 49 50 49 46 43 48 48 49 56 59 60 59 57 55 55 55 56 57 58 58 58
34 35 36 37 37 38 40 40 41 42 41 39 41 42 42 44 46 44 45 49 51 49 49 51 50 49 49 51 53 56 56 58 58 56 56 56 57 56 57 56 57 58 58
34 35 35 35 36 37 37 38 41 40 40 39 39 39 43 42 41 38 41 40 39 42 49 49 50 50 52 53 55 54 55 55 58 58 57 57 56 56 57 57 58 58 59
33 33 34 35 35 35 36 36 36 39 40 39 39 39 39 41 39 40 40 41 39 41 48 49 51 53 53 55 55 55 56 57 58 59 58 57 57 56 54 58 58 59 60
33 35 34 35 35 36 36 36 37 37 37 39 41 40 39 39 39 39 39 44 48 46 48 50 52 54 54 54 54 57 55 56 57 57 57 57 58 58 57 57 59 59 59
34 34 35 36 37 38 38 37 37 38 38 38 43 40 40 38 38 38 39 46 46 45 46 50 55 55 55 56 56 57 58 57 58 58 57 57 58 58 58 59 58 45 50
35 36 36 38 40 41 39 37 37 38 38 39 41 43 44 43 44 45 46 46 45 45 46 49 55 56 57 58 57 58 58 57 58 59 57 58 59 59 59 59 59 57 57
35 36 36 42 41 39 38 37 38 38 39 41 41 43 37 45 45 44 46 45 44 45 46 50 55 57 58 58 58 59 59 58 58 58 57 57 57 58 59 60 60 59 59
36 38 40 42 40 39 39 39 39 40 41 40 41 42 34 44 45 44 46 45 45 46 48 52 54 56 58 58 59 58 57 58 57 57 58 59 60 60 60 60 60 60 58
35 36 38 39 41 38 39 39 39 39 40 41 42 42 43 44 46 45 46 46 46 46 50 53 54 55 57 57 57 60 60 58 58 58 60 60 60 61 61 61 61 59 57
34 35 36 37 37 39 41 40 40 39 41 41 42 43 44 47 47 46 46 45 47 48 51 53 54 56 56 56 57 60 60 59 60 61 62 62 62 57 58 57 57 57 56
32 33 33 33 35 35 37 41 41 43 43 42 43 44 45 47 48 48 47 47 48 47 51 54 55 56 56 57 57 59 44 38 57 47 62 62 62 61 61 60 58 53 51
30 31 31 32 32 33 34 35 37 39 42 43 44 45 45 47 48 48 49 50 50 49 50 54 55 55 56 57 57 42 37 35 48 37 59 61 60 59 59 57 51 50 50

GFSGL_sfc_temp_117.txt.gz
Temp
71 71 70 70 71 70 70 70 71 71 71 72 73 72 71 70 70 69 69 70 69 69 69 69 69 70 72 72 72 71 70 66 59 64 73 76 73 73 76 76 77 77 77
69 69 68 68 69 68 68 70 70 68 70 70 71 71 71 71 70 68 68 71 69 68 69 69 69 72 68 69 71 68 68 68 64 61 70 73 73 74 75 74 77 79 78
69 69 67 66 66 65 66 66 67 68 68 69 70 69 70 70 70 69 68 69 69 69 70 69 68 69 68 70 68 69 69 69 66 61 61 71 74 76 73 73 71 71 75
66 66 64 64 63 64 64 64 65 66 65 66 66 67 68 69 69 69 69 68 68 69 68 69 69 69 68 67 67 66 67 67 64 60 60 65 68 71 71 71 72 72 66
63 63 62 62 63 63 63 63 63 63 64 65 65 66 66 67 68 68 67 67 66 66 67 68 68 67 64 64 68 67 66 66 67 67 60 63 67 67 65 72 71 73 67
60 61 62 62 62 61 61 61 61 61 62 62 62 63 63 66 58 54 58 65 66 65 65 66 67 63 61 56 55 56 60 63 63 65 67 62 62 64 67 67 70 69 67
59 60 60 60 60 60 60 59 58 57 58 58 58 59 59 60 52 50 51 61 62 63 63 64 66 70 62 66 58 54 54 53 55 63 62 64 61 65 64 61 64 65 67
57 58 59 59 58 58 57 56 55 56 55 55 56 56 57 58 50 48 48 56 59 61 60 61 62 63 64 63 64 64 65 66 64 63 63 65 67 68 67 63 61 63 61
56 56 57 56 55 54 53 53 54 53 53 53 54 52 51 52 48 46 49 57 57 57 59 58 57 58 54 49 60 59 61 63 62 53 54 52 50 50 57 57 55 55 56
55 54 54 53 52 51 51 51 52 49 48 51 48 49 50 50 48 45 48 56 57 58 57 58 52 55 50 48 57 59 57 58 57 58 57 54 53 58 50 59 58 56 64
52 52 51 51 50 49 48 48 47 46 45 44 46 48 49 50 52 45 44 54 52 51 52 55 61 50 46 44 44 54 53 55 54 58 58 58 60 59 55 58 59 62 59
50 49 49 48 46 43 40 40 41 40 40 41 42 45 48 50 49 47 44 44 49 51 54 57 57 48 43 43 43 45 44 45 51 54 54 55 57 55 60 57 61 68 68
45 43 41 39 38 39 39 39 39 40 39 40 42 44 45 52 50 46 43 42 43 49 54 54 47 43 43 45 45 42 43 54 53 54 54 57 59 63 58 61 63 65 66
36 36 36 36 38 39 41 41 40 40 40 41 42 42 44 46 47 47 51 52 45 48 49 54 52 46 43 44 48 52 55 55 55 58 62 62 63 64 64 67 66 65 68
35 36 36 37 37 37 39 40 40 42 41 39 41 42 41 41 42 42 41 46 55 54 53 56 55 51 50 53 57 61 64 64 60 60 60 63 66 68 64 65 67 67 67
34 35 35 36 36 37 37 37 40 39 39 39 39 40 44 41 40 40 40 39 39 40 49 52 49 51 53 59 60 61 59 62 67 68 68 67 66 66 65 66 68 66 67
32 34 34 35 35 35 36 36 35 39 40 39 38 38 38 39 39 39 39 39 39 41 50 51 51 53 56 61 63 59 57 64 68 68 66 65 65 66 66 67 68 68 68
33 35 34 35 36 37 37 37 37 37 37 39 40 40 38 38 38 38 39 42 48 48 53 51 53 55 59 62 61 59 61 63 66 68 68 69 69 68 67 68 68 67 67
34 34 35 36 37 39 40 40 38 37 38 39 40 42 39 38 38 39 39 54 48 47 48 49 52 58 60 62 64 64 65 66 67 69 69 69 69 70 68 69 68 49 56
34 35 35 37 40 41 40 39 38 38 39 39 41 43 43 43 46 52 56 52 47 47 48 50 52 60 62 63 63 65 64 66 69 70 69 70 70 71 70 70 70 69 68
34 36 36 40 42 40 40 39 39 39 39 41 42 44 35 53 55 57 55 50 47 48 49 49 53 64 65 66 67 70 71 70 70 70 70 69 69 70 71 71 71 71 70
34 36 38 39 41 41 40 41 41 41 43 41 42 44 35 52 54 54 55 50 48 48 48 51 57 65 69 69 70 71 71 70 70 70 69 70 70 71 70 70 70 70 69
35 35 36 38 39 38 41 42 43 42 42 41 42 43 43 47 55 56 55 48 47 48 52 57 61 65 68 68 70 73 73 71 71 71 70 70 70 70 71 71 70 70 67
34 34 34 35 36 39 41 43 46 40 42 43 44 45 51 53 54 52 46 45 47 54 58 61 64 65 66 68 69 72 72 71 70 72 72 72 70 64 71 69 68 66 66
32 32 32 32 33 35 37 39 42 44 45 45 46 48 52 55 55 51 47 48 49 52 61 64 64 64 65 67 70 71 47 38 65 52 72 70 68 67 69 69 66 65 63
31 31 31 31 31 32 32 34 36 37 38 40 45 49 52 56 55 51 49 50 54 58 62 64 65 66 66 67 65 43 35 36 54 39 69 71 70 69 68 66 63 60 56

GFSGL_sfc_temp_120.txt.gz
Temp
80 80 79 79 79 78 77 78 78 78 78 79 79 79 78 77 77 75 75 76 76 74 75 75 75 75 77 79 80 79 78 76 72 76 79 79 77 77 80 80 80 82 83
77 76 75 75 76 74 75 75 76 76 77 78 78 78 78 78 77 75 74 75 75 74 75 74 74 77 74 74 76 73 75 75 72 68 73 75 75 77 77 75 75 80 78
76 76 74 73 73 72 72 72 73 74 75 75 76 76 76 76 76 76 76 75 74 75 75 74 75 74 72 74 74 74 76 76 75 73 72 75 75 76 76 74 72 75 80
74 74 72 70 70 70 70 70 71 72 72 72 73 74 74 75 75 75 75 75 75 75 74 74 74 74 73 72 72 72 72 71 71 71 71 73 74 74 76 70 73 75 76
71 71 70 70 70 70 69 69 69 69 70 71 71 72 72 73 75 73 72 72 72 72 73 73 72 71 68 69 75 72 71 71 71 71 70 72 74 73 72 74 68 73 76
68 69 69 69 69 68 68 67 67 67 68 68 68 69 68 71 60 53 58 67 69 69 70 71 73 67 66 60 58 59 65 69 67 68 68 67 65 70 72 71 69 62 66
67 68 68 68 67 67 68 67 65 64 64 64 64 65 64 65 54 50 51 63 63 64 64 66 69 74 67 71 61 56 56 53 55 64 63 64 65 66 67 69 68 69 71
66 67 68 68 66 66 65 64 62 63 62 62 62 63 62 63 51 47 48 59 60 60 62 63 64 66 64 63 66 65 66 68 64 66 65 66 66 69 67 66 67 67 70
65 65 66 66 63 62 61 60 60 60 58 57 58 58 58 58 49 46 48 53 53 54 59 60 62 63 58 50 59 60 64 65 63 54 53 52 52 52 55 68 68 63 58
63 63 63 62 60 58 57 55 55 54 54 55 53 53 53 53 48 45 46 49 51 58 60 60 52 54 49 46 57 59 57 59 64 66 66 60 53 61 50 64 69 62 55
62 61 59 59 55 53 52 52 49 46 44 42 42 43 44 44 46 43 43 47 51 55 56 57 58 48 46 46 47 56 55 59 61 62 62 63 65 62 62 64 67 61 56
58 56 54 52 48 45 41 40 39 39 40 41 42 43 46 47 46 46 44 44 50 54 54 57 57 48 45 44 45 48 45 47 60 61 61 57 57 59 62 67 64 60 58
49 46 42 40 38 38 38 37 39 40 39 40 42 43 44 48 53 47 44 43 44 48 56 55 46 44 44 46 43 43 43 53 53 52 51 52 57 65 66 61 59 58 61
39 36 36 36 38 40 42 41 40 40 40 41 41 41 43 48 51 52 47 46 46 51 52 56 54 52 45 48 48 50 51 51 49 49 51 53 58 58 58 60 59 62 64
36 37 37 38 39 40 40 40 40 42 41 39 40 41 40 42 46 43 40 42 45 46 44 55 58 55 55 52 55 53 55 54 55 54 53 55 56 57 59 62 62 66 65
35 36 35 36 38 38 37 37 41 39 39 39 38 38 41 40 40 40 39 39 39 39 51 57 53 55 52 55 55 54 56 54 55 56 57 59 62 65 67 65 68 65 66
32 33 34 35 35 36 38 38 37 40 39 39 38 38 38 39 39 39 39 38 38 39 50 50 52 53 52 59 56 55 61 67 66 65 65 70 71 72 69 72 72 71 72
34 35 35 35 35 37 39 39 40 39 38 40 41 40 39 38 38 37 37 38 46 48 51 51 56 56 56 57 61 60 63 68 71 73 72 72 72 71 72 72 73 72 70
34 33 34 35 37 39 41 41 40 40 40 40 41 42 41 38 37 38 38 50 53 51 50 53 57 58 55 57 60 64 67 68 72 73 73 73 73 73 72 72 71 51 59
34 34 35 36 39 42 42 40 40 40 40 40 42 44 45 44 48 51 52 57 57 49 53 56 59 59 58 57 59 65 67 68 74 73 73 74 75 76 75 75 74 72 72
35 35 34 40 42 43 41 41 42 42 42 42 43 45 34 49 53 53 56 62 52 49 56 61 61 64 60 66 69 69 72 71 75 75 75 75 75 75 76 76 76 77 75
36 36 38 40 42 42 42 44 48 47 42 42 44 50 37 55 59 60 62 55 50 50 58 61 63 66 72 71 74 75 68 72 76 75 75 76 76 76 76 76 76 76 72
36 35 36 40 43 40 42 46 47 45 43 42 43 43 48 54 57 63 61 52 49 53 60 62 65 69 71 70 71 67 71 76 77 77 76 76 76 76 76 75 75 75 73
34 34 34 36 38 39 41 44 43 41 44 46 50 53 54 51 55 54 48 47 50 57 62 66 68 71 71 72 74 80 78 78 78 77 77 76 74 70 77 76 76 73 75
33 33 32 32 33 34 36 38 40 40 41 45 50 53 54 50 48 48 48 48 50 54 64 68 70 70 72 73 76 75 49 38 69 55 77 75 73 71 74 75 74 73 71
32 32 32 32 31 31 32 33 34 36 38 40 44 46 48 47 48 49 50 55 60 67 69 71 71 72 72 74 69 42 36 39 59 41 73 76 74 74 73 71 70 69 66